[[{"header":{"parameterUnit":"m.s-1","parameterCategory":1,"la1":30.6,"la2":29.2853,"lo1":-89.7004,"lo2":-87.6739,"dy":0.0162,"dx":0.0183,"nx":112,"ny":82,"refTime":"2026-04-01T12:00:00:Z","depth":0,"parameterNumber":2,"parameterNumberName":"U-component_of_WINDS"},"data":[0.0,0.0,0.0,0.0,0.0,0.0,0.0,0.0,0.0,0.0,0.0,0.0,0.0,0.0,0.0,0.0,0.0,0.0,0.0,0.0,0.0,0.0,0.0,0.0,0.0,0.0,0.0,0.0,0.0,0.0,0.0,0.0,0.0,0.0,0.0,0.0,0.0,0.0,0.0,0.0,0.0,0.0,0.0,0.0,0.0,0.0,0.0,0.0,0.0,0.0,0.0,0.0,0.0,0.0,0.0,0.0,0.0,0.0,0.0,0.0,0.0,0.0,0.0,0.0,0.0,0.0,0.0,0.0,0.0,0.0,0.0,0.0,0.0,0.0,0.0,0.0,0.0,0.0,0.0,0.0,0.0,0.0,0.0,0.0,0.0,0.0,0.0,0.0,0.0,0.0,-4.8861,-4.8225,-4.9269,-5.0108,-5.0406,-5.147,-5.1542,-5.0188,0.0,0.0,0.0,0.0,0.0,0.0,0.0,0.0,0.0,0.0,0.0,0.0,0.0,0.0,0.0,0.0,0.0,0.0,0.0,0.0,0.0,0.0,0.0,0.0,0.0,0.0,0.0,0.0,0.0,0.0,0.0,0.0,0.0,0.0,0.0,0.0,0.0,0.0,0.0,0.0,0.0,0.0,0.0,0.0,0.0,0.0,0.0,0.0,0.0,0.0,0.0,0.0,0.0,0.0,0.0,0.0,0.0,0.0,0.0,0.0,0.0,0.0,0.0,0.0,0.0,0.0,0.0,0.0,0.0,0.0,0.0,0.0,0.0,0.0,0.0,0.0,0.0,0.0,0.0,0.0,0.0,0.0,0.0,0.0,0.0,0.0,0.0,0.0,0.0,0.0,0.0,0.0,0.0,0.0,0.0,0.0,0.0,0.0,0.0,0.0,0.0,0.0,0.0,0.0,-4.7057,-4.7488,-4.8477,-4.9116,-4.9164,-4.9653,-5.0012,-5.0099,0.0,0.0,0.0,0.0,0.0,0.0,0.0,0.0,0.0,0.0,0.0,0.0,0.0,0.0,0.0,0.0,0.0,0.0,0.0,0.0,0.0,0.0,0.0,0.0,0.0,0.0,0.0,0.0,0.0,0.0,0.0,0.0,0.0,0.0,0.0,0.0,0.0,0.0,0.0,0.0,0.0,0.0,0.0,0.0,0.0,0.0,0.0,0.0,0.0,0.0,0.0,0.0,0.0,0.0,0.0,0.0,0.0,0.0,0.0,0.0,0.0,0.0,0.0,0.0,0.0,0.0,0.0,0.0,0.0,0.0,0.0,0.0,0.0,0.0,0.0,0.0,0.0,0.0,0.0,0.0,0.0,0.0,0.0,0.0,0.0,0.0,0.0,0.0,0.0,0.0,0.0,0.0,0.0,0.0,0.0,0.0,0.0,0.0,0.0,0.0,0.0,0.0,0.0,-4.6594,-4.6524,-4.6842,-4.7606,-4.8179,-4.8384,-4.8891,-4.9265,-4.9445,-4.9799,0.0,0.0,0.0,0.0,0.0,0.0,0.0,0.0,0.0,0.0,0.0,0.0,0.0,0.0,0.0,0.0,0.0,0.0,0.0,0.0,0.0,0.0,0.0,0.0,0.0,0.0,0.0,0.0,0.0,0.0,0.0,0.0,0.0,0.0,0.0,0.0,0.0,0.0,0.0,0.0,0.0,0.0,0.0,0.0,0.0,0.0,0.0,0.0,0.0,0.0,0.0,0.0,0.0,0.0,0.0,0.0,0.0,0.0,0.0,0.0,0.0,0.0,0.0,0.0,0.0,0.0,0.0,0.0,0.0,0.0,0.0,0.0,0.0,0.0,0.0,0.0,0.0,0.0,0.0,0.0,0.0,0.0,0.0,0.0,0.0,0.0,0.0,0.0,0.0,0.0,0.0,0.0,0.0,0.0,0.0,0.0,0.0,0.0,0.0,0.0,0.0,0.0,-4.6498,-4.6601,-4.6456,-4.7041,-4.7551,-4.7834,-4.8274,-4.8654,-4.8897,-4.8813,0.0,0.0,0.0,0.0,0.0,0.0,0.0,0.0,0.0,0.0,0.0,0.0,0.0,0.0,0.0,0.0,0.0,0.0,0.0,0.0,0.0,0.0,0.0,0.0,0.0,0.0,0.0,0.0,0.0,0.0,0.0,0.0,0.0,0.0,0.0,0.0,0.0,0.0,0.0,0.0,0.0,0.0,0.0,0.0,0.0,0.0,0.0,0.0,0.0,0.0,0.0,0.0,0.0,0.0,0.0,0.0,0.0,0.0,0.0,0.0,0.0,0.0,0.0,0.0,0.0,0.0,0.0,0.0,0.0,0.0,0.0,0.0,0.0,0.0,0.0,0.0,0.0,0.0,0.0,0.0,0.0,0.0,0.0,0.0,0.0,0.0,0.0,0.0,0.0,0.0,0.0,0.0,0.0,0.0,0.0,0.0,0.0,0.0,0.0,0.0,0.0,0.0,-4.6778,-4.7276,-4.6665,-4.7202,-4.7547,-4.746,-4.7473,-4.7887,-4.8846,-4.855,0.0,0.0,0.0,0.0,0.0,0.0,0.0,0.0,0.0,0.0,0.0,0.0,0.0,0.0,0.0,0.0,0.0,0.0,0.0,0.0,0.0,0.0,0.0,0.0,0.0,0.0,0.0,0.0,0.0,0.0,0.0,0.0,0.0,0.0,0.0,0.0,0.0,0.0,0.0,0.0,0.0,0.0,0.0,0.0,0.0,0.0,0.0,0.0,0.0,0.0,0.0,0.0,0.0,0.0,0.0,0.0,0.0,0.0,0.0,0.0,0.0,0.0,0.0,0.0,0.0,0.0,0.0,0.0,0.0,0.0,0.0,0.0,0.0,0.0,0.0,0.0,0.0,0.0,0.0,0.0,0.0,0.0,0.0,0.0,0.0,0.0,0.0,0.0,0.0,0.0,0.0,0.0,0.0,0.0,0.0,0.0,0.0,0.0,0.0,0.0,0.0,0.0,-4.6116,-4.633,-4.6071,-4.6584,-4.6755,-4.6255,-4.6932,-4.7358,-4.7233,0.0,0.0,0.0,0.0,0.0,0.0,0.0,0.0,0.0,0.0,0.0,0.0,0.0,0.0,0.0,0.0,0.0,0.0,0.0,0.0,0.0,0.0,0.0,0.0,0.0,0.0,0.0,0.0,0.0,0.0,0.0,0.0,0.0,0.0,0.0,0.0,0.0,0.0,0.0,0.0,0.0,0.0,0.0,0.0,0.0,0.0,0.0,0.0,0.0,0.0,0.0,0.0,0.0,0.0,0.0,0.0,0.0,0.0,0.0,0.0,0.0,0.0,0.0,0.0,0.0,0.0,0.0,0.0,0.0,0.0,0.0,0.0,0.0,0.0,0.0,0.0,0.0,0.0,0.0,0.0,0.0,0.0,0.0,0.0,0.0,0.0,0.0,0.0,0.0,0.0,0.0,0.0,0.0,0.0,0.0,0.0,0.0,0.0,0.0,0.0,0.0,0.0,-4.5568,-4.5906,-4.6058,-4.6058,-4.6413,-4.6352,-4.5572,-4.6305,-4.6632,-4.6224,0.0,0.0,0.0,0.0,0.0,0.0,0.0,0.0,0.0,0.0,0.0,0.0,0.0,0.0,0.0,0.0,0.0,0.0,0.0,0.0,0.0,0.0,0.0,0.0,0.0,0.0,0.0,0.0,0.0,0.0,0.0,0.0,0.0,0.0,0.0,0.0,0.0,0.0,0.0,0.0,0.0,0.0,0.0,0.0,0.0,0.0,0.0,0.0,0.0,0.0,0.0,0.0,0.0,0.0,0.0,0.0,0.0,0.0,0.0,0.0,0.0,0.0,0.0,0.0,0.0,0.0,0.0,0.0,0.0,0.0,0.0,0.0,0.0,0.0,0.0,0.0,0.0,0.0,0.0,0.0,0.0,0.0,0.0,0.0,0.0,0.0,0.0,0.0,0.0,0.0,0.0,0.0,0.0,0.0,0.0,0.0,0.0,0.0,0.0,0.0,0.0,0.0,-4.5488,-4.63,-4.6756,-4.6756,-4.6756,-4.6414,-4.5554,-4.5468,-4.5674,0.0,0.0,0.0,0.0,0.0,0.0,0.0,0.0,0.0,0.0,0.0,0.0,0.0,0.0,0.0,0.0,0.0,0.0,0.0,0.0,0.0,0.0,0.0,0.0,0.0,0.0,0.0,0.0,0.0,0.0,0.0,0.0,0.0,0.0,0.0,0.0,0.0,0.0,0.0,0.0,0.0,0.0,0.0,0.0,0.0,0.0,0.0,0.0,0.0,0.0,0.0,0.0,0.0,0.0,0.0,0.0,0.0,0.0,0.0,0.0,0.0,0.0,0.0,0.0,0.0,0.0,0.0,0.0,0.0,0.0,0.0,0.0,0.0,0.0,0.0,0.0,0.0,0.0,0.0,0.0,0.0,0.0,0.0,0.0,0.0,0.0,0.0,0.0,0.0,0.0,0.0,0.0,0.0,0.0,0.0,0.0,0.0,0.0,0.0,0.0,0.0,0.0,0.0,-4.4533,-4.4417,-4.4365,-4.4854,-4.4479,-4.4138,-4.396,-4.4344,-4.4439,-4.4108,0.0,0.0,0.0,0.0,0.0,0.0,0.0,0.0,0.0,0.0,0.0,0.0,0.0,0.0,0.0,0.0,0.0,0.0,0.0,0.0,0.0,0.0,0.0,0.0,0.0,0.0,0.0,0.0,0.0,0.0,0.0,0.0,0.0,0.0,0.0,0.0,0.0,0.0,0.0,0.0,0.0,0.0,0.0,0.0,0.0,0.0,0.0,0.0,0.0,0.0,0.0,0.0,0.0,0.0,0.0,0.0,0.0,0.0,0.0,0.0,0.0,0.0,0.0,0.0,0.0,0.0,0.0,0.0,0.0,0.0,0.0,0.0,0.0,0.0,0.0,0.0,0.0,0.0,0.0,0.0,0.0,0.0,0.0,0.0,0.0,0.0,0.0,0.0,0.0,0.0,0.0,0.0,0.0,0.0,0.0,0.0,0.0,0.0,0.0,0.0,0.0,0.0,-4.3627,-4.3411,-4.3359,-4.4029,-4.3487,-4.2993,-4.2803,-4.3111,-4.3148,-4.2698,0.0,0.0,0.0,0.0,0.0,0.0,0.0,0.0,0.0,0.0,0.0,0.0,0.0,0.0,0.0,0.0,0.0,0.0,0.0,0.0,0.0,0.0,0.0,0.0,0.0,0.0,0.0,0.0,0.0,0.0,0.0,0.0,0.0,0.0,0.0,0.0,0.0,0.0,0.0,0.0,0.0,0.0,0.0,0.0,0.0,0.0,0.0,0.0,0.0,0.0,0.0,0.0,0.0,0.0,0.0,0.0,0.0,0.0,0.0,0.0,0.0,0.0,0.0,0.0,0.0,0.0,0.0,0.0,0.0,0.0,0.0,0.0,0.0,0.0,0.0,0.0,0.0,0.0,0.0,0.0,0.0,0.0,0.0,0.0,0.0,0.0,0.0,0.0,0.0,0.0,0.0,0.0,0.0,0.0,0.0,0.0,0.0,0.0,0.0,0.0,0.0,0.0,-4.2815,-4.2832,-4.2998,-4.3697,-4.3158,-4.2506,-4.1917,-4.1869,-4.184,-4.1808,0.0,0.0,0.0,0.0,0.0,0.0,0.0,0.0,0.0,0.0,0.0,0.0,0.0,0.0,0.0,0.0,0.0,0.0,0.0,0.0,0.0,0.0,0.0,0.0,0.0,0.0,0.0,0.0,0.0,0.0,0.0,0.0,0.0,0.0,0.0,0.0,0.0,0.0,0.0,0.0,0.0,0.0,0.0,0.0,0.0,0.0,0.0,0.0,0.0,0.0,0.0,0.0,0.0,0.0,0.0,0.0,0.0,0.0,0.0,0.0,-4.838,-4.7733,0.0,0.0,0.0,0.0,0.0,0.0,0.0,0.0,0.0,0.0,0.0,0.0,0.0,0.0,0.0,0.0,0.0,0.0,0.0,0.0,0.0,0.0,0.0,0.0,0.0,0.0,0.0,0.0,0.0,0.0,0.0,0.0,0.0,0.0,0.0,0.0,0.0,0.0,0.0,0.0,-4.1981,-4.0984,-4.0441,-4.111,-4.0578,-4.0408,-4.0927,-4.0979,-4.1033,-4.1103,-4.1084,0.0,0.0,0.0,0.0,0.0,0.0,0.0,0.0,0.0,0.0,0.0,0.0,0.0,0.0,0.0,0.0,0.0,0.0,0.0,0.0,0.0,0.0,0.0,0.0,0.0,0.0,0.0,0.0,0.0,0.0,0.0,0.0,0.0,0.0,0.0,0.0,0.0,0.0,0.0,0.0,0.0,0.0,0.0,0.0,0.0,0.0,0.0,0.0,0.0,0.0,0.0,0.0,0.0,0.0,0.0,0.0,0.0,0.0,0.0,-4.8152,-4.7919,0.0,0.0,0.0,0.0,0.0,0.0,0.0,0.0,0.0,0.0,0.0,0.0,0.0,0.0,0.0,0.0,0.0,0.0,0.0,0.0,0.0,0.0,0.0,0.0,0.0,0.0,0.0,0.0,0.0,0.0,0.0,0.0,0.0,0.0,0.0,0.0,0.0,0.0,0.0,0.0,-4.1155,-4.0165,-3.9679,-4.0337,-3.9813,-3.9574,-4.006,-4.008,-4.012,-4.0256,-3.9594,0.0,0.0,0.0,0.0,0.0,0.0,0.0,0.0,0.0,0.0,0.0,0.0,0.0,0.0,0.0,0.0,0.0,0.0,0.0,0.0,0.0,0.0,0.0,0.0,0.0,0.0,0.0,0.0,0.0,0.0,0.0,0.0,0.0,0.0,0.0,0.0,0.0,0.0,0.0,0.0,0.0,0.0,0.0,0.0,0.0,0.0,0.0,0.0,0.0,0.0,0.0,0.0,0.0,-4.447,-4.5278,-4.5217,-4.6969,-4.7494,-4.7141,-4.8147,-4.867,-4.8764,-4.8371,0.0,0.0,0.0,0.0,0.0,0.0,0.0,0.0,0.0,0.0,0.0,0.0,0.0,0.0,0.0,0.0,0.0,0.0,0.0,0.0,0.0,0.0,0.0,0.0,-4.079,-4.0868,-4.1221,0.0,0.0,0.0,0.0,0.0,0.0,0.0,0.0,0.0,0.0,0.0,-4.0551,-3.99,-3.9634,-4.0172,-3.9738,-3.9388,-3.9388,-3.9388,-3.944,-3.956,-3.8371,-3.8208,0.0,0.0,0.0,0.0,0.0,0.0,0.0,0.0,0.0,0.0,0.0,0.0,0.0,0.0,0.0,0.0,0.0,0.0,0.0,0.0,0.0,0.0,0.0,0.0,0.0,0.0,0.0,0.0,0.0,0.0,0.0,0.0,-4.9971,-5.0067,0.0,0.0,0.0,0.0,0.0,0.0,0.0,0.0,0.0,0.0,0.0,0.0,0.0,-4.2609,-4.2971,-4.354,-4.3891,-4.3973,-4.4774,-4.5113,-4.5113,-4.5393,-4.5769,-4.6285,-4.6441,0.0,-4.7586,-4.8312,0.0,0.0,0.0,0.0,0.0,0.0,0.0,0.0,0.0,0.0,0.0,0.0,0.0,0.0,0.0,0.0,0.0,0.0,0.0,0.0,0.0,0.0,-3.9116,-3.8518,-3.8338,-3.8364,0.0,-4.0256,-4.1464,-4.0029,-4.037,0.0,0.0,0.0,0.0,0.0,0.0,0.0,-4.0597,-3.992,-3.9418,-3.9508,-3.9433,-3.9388,-3.9388,-3.9388,-3.9415,-3.9418,-3.876,-3.8442,-3.8638,-3.7189,0.0,0.0,0.0,0.0,0.0,0.0,0.0,0.0,0.0,0.0,0.0,0.0,0.0,0.0,0.0,0.0,0.0,0.0,0.0,0.0,0.0,0.0,0.0,0.0,0.0,0.0,0.0,0.0,0.0,-4.8794,-4.9138,-4.9138,-4.918,-4.8651,0.0,0.0,0.0,0.0,0.0,0.0,0.0,0.0,0.0,-4.1944,-4.2177,-4.2259,-4.2122,-4.2422,-4.2761,-4.3088,-4.4142,-4.4718,-4.5041,-4.585,-4.6408,-4.6657,-4.6657,-4.6867,-4.7148,-4.6842,-4.5696,-4.4215,0.0,0.0,0.0,0.0,-4.3968,-4.4032,-4.468,-4.4533,-4.3961,-4.3561,0.0,0.0,0.0,0.0,0.0,0.0,0.0,0.0,0.0,0.0,-3.8931,-3.8985,-3.8999,-3.8999,-3.8999,-3.9596,-3.9746,0.0,-3.8216,-3.8376,-3.8739,0.0,0.0,0.0,0.0,-3.902,-3.9864,-3.9646,-3.9388,-3.9388,-3.9388,-3.9388,-3.9388,-3.9388,-3.9388,-3.9388,-3.8797,-3.8632,-3.9084,-3.7779,-3.6985,0.0,0.0,0.0,0.0,0.0,0.0,0.0,0.0,0.0,0.0,0.0,0.0,0.0,0.0,0.0,0.0,0.0,0.0,0.0,0.0,0.0,0.0,0.0,0.0,0.0,0.0,0.0,0.0,-4.7718,-4.7985,-4.7822,-4.761,-4.6798,0.0,0.0,0.0,0.0,0.0,0.0,-4.2025,-4.1908,-4.19,-4.206,-4.219,-4.2096,-4.1756,-4.1702,-4.1957,-4.2414,-4.3439,-4.4118,-4.4535,-4.5555,-4.6069,-4.6069,-4.6069,-4.6069,-4.5988,-4.5559,-4.4751,-4.3719,-4.3018,-4.2318,-4.1718,-4.1916,-4.2117,-4.2461,-4.3113,-4.3223,-4.2976,-4.2279,-4.141,-4.0421,-3.8846,0.0,0.0,0.0,0.0,-3.7787,-3.8168,-3.8243,-3.8394,-3.8911,-3.9019,-3.9019,-3.9019,-3.8489,-3.7876,0.0,-3.6834,-3.6657,-3.7412,0.0,0.0,0.0,0.0,-3.7806,-3.8495,-3.8568,-3.8694,-3.8943,-3.898,-3.9104,-3.9388,-3.9388,-3.9265,-3.9017,-3.8506,-3.8531,-3.9115,-3.7992,-3.7425,-3.7634,0.0,0.0,0.0,0.0,0.0,0.0,0.0,0.0,0.0,0.0,0.0,0.0,0.0,0.0,0.0,0.0,0.0,0.0,0.0,0.0,0.0,0.0,0.0,0.0,0.0,0.0,0.0,0.0,0.0,-4.6564,-4.5737,0.0,0.0,0.0,0.0,-4.2329,-4.1239,-4.0856,-4.1436,-4.0901,-4.0847,-4.1333,-4.1902,-4.2443,-4.2886,-4.2886,-4.2911,-4.2936,-4.3048,-4.306,-4.3085,-4.3184,-4.3184,-4.3184,-4.3184,-4.3184,-4.3343,-4.5252,-4.5632,-4.495,-4.4345,-4.3334,-4.2345,-4.2956,-4.2893,-4.2595,-4.3249,-4.307,-4.2637,-4.3194,-4.2159,-4.0587,-3.9823,-3.8789,0.0,0.0,-3.7121,-3.7043,-3.6612,-3.6543,-3.6543,-3.6581,-3.6593,-3.6593,-3.6593,-3.6105,-3.6135,0.0,-3.7469,-3.6888,-3.6371,0.0,-3.6233,-3.6339,-3.6339,-3.6314,-3.6355,-3.6355,-3.6774,-3.7791,-3.7866,-3.8308,-3.9301,-3.9388,-3.898,-3.7956,-3.7838,-3.7861,-3.7898,-3.722,-3.7017,-3.7417,-3.6205,0.0,0.0,0.0,0.0,0.0,0.0,0.0,0.0,0.0,0.0,0.0,0.0,0.0,0.0,0.0,0.0,0.0,0.0,0.0,0.0,0.0,0.0,0.0,0.0,0.0,0.0,0.0,0.0,-4.6189,-4.594,0.0,-4.4049,-4.302,-4.236,-4.2311,-4.1216,-4.0951,-4.1857,-4.1711,-4.1819,-4.2371,-4.2585,-4.2841,-4.2974,-4.2974,-4.2974,-4.2974,-4.2974,-4.2974,-4.2974,-4.2974,-4.2974,-4.2974,-4.2974,-4.2974,-4.3073,-4.3797,-4.3736,-4.3203,-4.3008,-4.2398,-4.1633,-4.1516,-4.1619,-4.1697,-4.1631,-4.1385,-4.1138,-4.0705,-3.9797,-3.8904,-3.8696,-3.8052,-3.7402,-3.7202,-3.6917,-3.6595,-3.6436,-3.6405,-3.6405,-3.6405,-3.6405,-3.6405,-3.6405,-3.5931,-3.5595,-3.5836,-3.5427,-3.5096,-3.5223,-3.465,-3.4637,-3.6013,-3.5668,-3.548,-3.6132,-3.6198,-3.6369,-3.6735,-3.6774,-3.693,-3.7329,-3.7329,-3.7458,-3.7791,-3.7137,-3.7098,-3.7753,-3.691,-3.631,-3.6054,-3.5194,-3.3909,0.0,0.0,0.0,0.0,0.0,0.0,0.0,0.0,0.0,0.0,0.0,0.0,0.0,0.0,0.0,0.0,0.0,0.0,0.0,0.0,0.0,0.0,0.0,0.0,0.0,-4.5024,-4.4701,-4.5095,-4.509,-4.4579,-4.3352,-4.2681,-4.2307,-4.2255,-4.1519,-4.1467,-4.2439,-4.2489,-4.2652,-4.2974,-4.2974,-4.2974,-4.2974,-4.2974,-4.2974,-4.2974,-4.2974,-4.2974,-4.2974,-4.2974,-4.2974,-4.2974,-4.2974,-4.2974,-4.2974,-4.2974,-4.276,-4.2532,-4.2945,-4.2636,-4.1934,-4.2061,-4.2112,-4.1957,-4.1145,-4.0577,-4.0124,-3.9383,-3.8768,-3.8304,-3.8304,-3.7776,-3.7186,-3.7186,-3.6784,-3.6405,-3.6405,-3.6405,-3.6405,-3.6405,-3.6405,-3.6405,-3.6405,-3.5931,-3.5332,-3.4781,-3.4274,-3.3971,-3.4127,-3.3556,-3.3556,-3.4952,-3.4568,-3.4374,-3.5075,-3.5143,-3.5305,-3.5668,-3.5708,-3.5814,-3.6158,-3.6198,-3.6369,-3.6724,-3.6067,-3.6027,-3.6724,-3.5874,-3.5376,-3.5317,-3.4427,-3.3386,-3.2176,0.0,0.0,0.0,0.0,0.0,0.0,0.0,0.0,0.0,0.0,0.0,0.0,0.0,0.0,0.0,0.0,0.0,0.0,0.0,0.0,0.0,0.0,0.0,-4.402,-4.3624,-4.3152,-4.3178,-4.3102,-4.2559,-4.1438,-4.1869,-4.2238,-4.2238,-4.2238,-4.2464,-4.2949,-4.2974,-4.2974,-4.2974,-4.2974,-4.2974,-4.2974,-4.2974,-4.2974,-4.2974,-4.2974,-4.2974,-4.2974,-4.2974,-4.2974,-4.2974,-4.2974,-4.2974,-4.2974,-4.2974,-4.2974,-4.3129,-4.4427,-4.4203,-4.3346,-4.4666,-4.4393,-4.3218,-4.1985,-4.0743,-3.9697,-3.9697,-3.9333,-3.8944,-3.8932,-3.809,-3.7211,-3.7186,-3.6784,-3.6405,-3.6405,-3.6405,-3.6405,-3.6405,-3.6405,-3.6405,-3.6405,-3.5918,-3.532,-3.4781,-3.4261,-3.3709,-3.3212,-3.3124,-3.3124,-3.3124,-3.3124,0.0,-3.3124,-3.3124,-3.3513,-3.4553,-3.4664,-3.5047,-3.6013,-3.6079,-3.5708,-3.4746,-3.4664,-3.4664,-3.4705,-3.4096,-3.4246,-3.5226,-3.3939,-3.3197,-3.31,0.0,0.0,0.0,0.0,0.0,0.0,0.0,0.0,0.0,0.0,0.0,0.0,0.0,0.0,0.0,0.0,0.0,0.0,0.0,0.0,0.0,-4.2124,-4.2053,-4.3904,-4.319,-4.2643,-4.2996,-4.2995,-4.2861,-4.2559,-4.266,-4.2748,-4.2748,-4.2748,-4.2823,-4.2974,-4.2974,-4.2974,-4.2974,-4.2974,-4.2974,-4.2974,-4.2974,-4.2974,-4.2974,-4.2974,-4.2974,-4.2974,-4.2974,-4.2974,-4.2974,-4.2974,-4.2974,-4.2974,-4.2974,-4.2974,-4.303,-4.3394,-4.3114,-4.2493,-4.2431,-4.1712,-4.0693,-4.0364,-3.9981,-3.9697,-3.9697,-3.9597,-3.9396,-3.9045,-3.8366,-3.7701,-3.7299,-3.6784,-3.6405,-3.6405,-3.6405,-3.6405,-3.6405,-3.6405,-3.6405,-3.6405,-3.5617,-3.4856,-3.4705,-3.396,-3.3257,-3.3149,-3.3124,-3.3124,-3.3124,-3.3124,0.0,-3.3124,-3.3124,-3.3197,-3.3513,-3.3556,-3.3628,-3.394,-3.394,-3.4178,-3.4664,-3.3953,-3.3869,-3.4664,-3.3798,-3.2874,-3.1947,-3.0767,-2.9545,0.0,0.0,0.0,0.0,0.0,0.0,0.0,0.0,0.0,0.0,0.0,0.0,0.0,0.0,0.0,0.0,0.0,0.0,0.0,0.0,0.0,0.0,-4.2139,-4.2163,-4.3454,-4.2818,-4.2414,-4.2911,-4.2974,-4.2974,-4.2974,-4.2974,-4.2974,-4.2974,-4.2974,-4.2974,-4.2974,-4.2974,-4.2974,-4.2974,-4.2974,-4.2974,-4.2974,-4.2974,-4.2974,-4.2974,-4.2974,-4.2974,-4.2974,-4.2974,-4.2974,-4.2974,-4.2974,-4.2974,-4.2974,-4.2974,-4.2974,0.0,0.0,0.0,0.0,0.0,-4.1503,-4.0503,-4.0503,-4.0173,-3.9697,-3.9697,-3.9697,-3.9584,-3.9032,-3.8467,-3.7889,-3.7337,-3.6784,-3.6405,-3.6405,-3.6405,-3.6405,-3.6405,-3.6405,-3.6405,-3.6405,-3.5491,-3.468,-3.468,-3.3834,0.0,-3.3124,-3.3124,-3.3124,-3.3124,-3.3124,-3.3124,-3.3124,-3.3124,-3.3124,-3.3124,-3.3124,-3.3124,-3.3124,-3.3124,0.0,0.0,0.0,-3.3016,-3.2912,-3.2301,0.0,0.0,0.0,0.0,0.0,0.0,0.0,0.0,-2.7369,-2.6731,0.0,0.0,0.0,0.0,0.0,0.0,0.0,0.0,0.0,0.0,0.0,0.0,0.0,0.0,0.0,0.0,-4.2699,-4.2401,-4.2898,-4.2615,-4.2489,-4.2924,-4.2974,-4.2974,-4.2974,-4.2974,-4.2974,-4.2974,-4.2974,-4.2974,-4.2974,-4.2974,0.0,0.0,0.0,-4.2974,-4.2974,-4.2974,-4.2974,-4.2974,-4.2974,-4.2974,-4.2974,-4.2974,-4.2974,-4.2974,-4.2974,-4.2974,-4.2974,-4.2974,-4.2911,-4.2902,-4.3578,-4.3481,-4.289,-4.3012,-4.2363,-4.1406,-4.1406,0.0,0.0,-3.9697,-3.9697,-3.9584,-3.9032,-3.8467,-3.7889,-3.7337,-3.6784,-3.6405,-3.6405,-3.6405,-3.6405,-3.6405,-3.6405,-3.6405,-3.6405,-3.5491,-3.468,-3.468,-3.3834,-3.3124,-3.3124,-3.3124,-3.3124,-3.3124,-3.3124,-3.3124,-3.3124,-3.3124,-3.3124,-3.3124,0.0,0.0,-3.3124,-3.3124,-3.3124,-3.3124,-3.2982,-3.2117,-3.0371,-3.0304,-2.97,-2.8455,-2.841,-2.8542,-2.8828,-2.736,-2.666,-2.667,-2.5711,-2.5753,0.0,0.0,0.0,0.0,0.0,0.0,0.0,0.0,0.0,0.0,0.0,0.0,0.0,0.0,0.0,-4.4534,-4.331,-4.2401,-4.2898,-4.2886,-4.2848,-4.2961,-4.2974,-4.2974,-4.2974,-4.2974,-4.2974,-4.2974,-4.2974,-4.2974,-4.2974,-4.2974,-4.2974,-4.2974,-4.2974,-4.2974,-4.2974,-4.2974,-4.2974,-4.2974,0.0,0.0,-4.2974,-4.2974,-4.2974,-4.2974,-4.2974,-4.2974,-4.2974,-4.2974,-4.2459,-4.1643,-4.1787,-4.1501,-4.0984,-4.0555,-4.0262,-4.0083,-4.0083,-3.9929,-3.9697,-3.9697,-3.9697,-3.9584,-3.9032,-3.8467,0.0,-3.7337,-3.6784,-3.6405,-3.6405,-3.6405,-3.6405,-3.6405,-3.6405,-3.6405,-3.6405,-3.5491,-3.468,-3.468,-3.3834,-3.3124,-3.3124,-3.3124,-3.3124,-3.3124,-3.3124,-3.3124,-3.3124,-3.3124,-3.3124,-3.3124,-3.3124,-3.3124,-3.3124,-3.3124,-3.3124,-3.3124,-3.2152,-3.0953,-2.9625,-2.958,-2.8855,-2.7253,-2.7253,-2.6601,-2.538,-2.5023,-2.5089,-2.5417,-2.484,-2.4691,0.0,0.0,0.0,0.0,0.0,0.0,0.0,0.0,0.0,0.0,0.0,-4.599,-4.6638,0.0,-4.5453,-4.6003,-4.4678,-4.3694,-4.3978,-4.3449,-4.2974,-4.2974,-4.2974,-4.2974,-4.2974,-4.2974,-4.2974,-4.2974,-4.2974,-4.2974,-4.2974,-4.2974,-4.2974,-4.2974,-4.2974,-4.2974,-4.2974,-4.2974,-4.2974,-4.2974,-4.2974,-4.2974,-4.2974,-4.2974,-4.2974,-4.2974,-4.2974,-4.2974,-4.2974,-4.2974,-4.2333,-4.1288,-4.1288,-4.0786,-4.0074,-3.9798,-3.9697,-3.9697,-3.9697,-3.9697,-3.9697,-3.9697,-3.9697,-3.9584,-3.9032,-3.8668,-3.8266,-3.7425,-3.6985,-3.6757,-3.648,-3.6405,-3.6405,-3.6405,-3.6405,-3.6405,-3.6405,-3.5717,-3.5006,-3.4731,-3.406,-3.3395,-3.3174,-3.3124,-3.3124,-3.3124,-3.3124,-3.3124,-3.3124,-3.3124,-3.3124,-3.3124,-3.3124,-3.3124,-3.3124,-3.3124,-3.284,-3.2196,-3.1545,-3.0406,-2.8588,-2.8495,-2.7791,-2.6334,-2.6276,-2.5892,-2.5031,-2.5031,-2.5185,-2.54,-2.5176,-2.5031,0.0,0.0,0.0,0.0,0.0,0.0,0.0,-4.2831,-4.3794,-4.4735,-4.5756,-4.6742,-4.7596,-4.7557,-4.7424,-4.7488,-4.6331,-4.5409,-4.5409,-4.4222,-4.3394,-4.3394,-4.3129,-4.2974,-4.2974,-4.2974,-4.2974,-4.2974,-4.2974,-4.2974,-4.2974,-4.2974,-4.2974,-4.2974,-4.2974,-4.2974,-4.2974,-4.2974,-4.2974,-4.2974,-4.2974,-4.2974,-4.2974,-4.2974,-4.2974,-4.2974,-4.2974,-4.2974,-4.2974,-4.2861,-4.2233,-4.1275,-4.1175,-4.0576,-3.9697,-3.9697,-3.9697,-3.9697,-3.9697,-3.9697,-3.9697,-3.9697,-3.9697,-3.9609,-3.917,-3.9007,-3.8655,-3.7626,-3.7262,-3.7061,-3.6556,-3.6405,-3.6405,-3.6405,-3.6405,-3.6405,-3.6405,-3.5931,-3.5332,-3.4781,-3.4274,-3.3721,-3.3169,-3.3124,-3.3124,-3.3124,-3.3124,-3.3124,-3.3124,-3.3124,-3.3124,-3.3124,-3.3124,-3.3124,-3.3124,-3.2884,-3.2196,-3.0944,-3.0631,-2.9544,-2.7315,-2.722,-2.6754,-2.5742,-2.5693,-2.5693,-2.5693,-2.5693,-2.5693,-2.5693,-2.5693,-2.5693,-4.5488,-4.4486,-4.3343,-4.2192,-4.2173,-4.2697,0.0,-4.4035,-4.4648,-4.6485,-4.7019,-4.7686,-4.9529,-4.8869,-4.8292,-4.8884,-4.7771,-4.6888,-4.6888,-4.5661,-4.4792,-4.4792,-4.37,-4.2974,-4.2974,-4.2974,-4.2974,-4.2974,-4.2974,-4.2974,-4.2974,-4.2974,-4.2974,-4.2974,-4.2974,-4.2974,-4.2974,-4.2974,-4.2974,-4.2974,-4.2974,-4.2974,-4.2974,-4.2974,-4.2974,-4.2974,-4.2974,-4.2974,-4.2936,-4.2502,-4.1894,-4.1238,-4.0802,-4.0237,-3.9697,-3.9697,-3.9697,-3.9697,-3.9697,-3.9697,-3.9697,-3.9697,-3.9697,-3.9685,-3.9622,-3.9258,-3.8781,-3.8103,-3.7563,-3.7061,-3.6556,-3.6405,-3.6405,-3.6405,-3.6405,-3.6405,-3.6405,-3.5931,-3.5332,-3.4781,-3.4274,-3.3721,-3.3169,-3.3124,-3.3124,-3.3124,-3.3124,-3.3124,-3.3124,-3.3124,-3.3124,-3.3124,-3.3124,-3.3124,-3.3124,-3.2052,-3.0899,-2.9681,-2.8588,-2.7352,-2.5965,-2.5917,-2.583,-2.5693,-2.5693,-2.5693,-2.5693,-2.5693,-2.5693,-2.5693,-2.5693,-2.5693,-4.555,-4.4907,-4.4055,-4.2521,-4.248,-4.2795,-4.2615,-4.3116,-4.4211,-4.6244,-4.7279,-4.842,-5.0428,-5.0298,-5.0026,-5.0305,-4.921,-4.8339,-4.8339,-4.7094,-4.5912,-4.5088,-4.4535,-4.3852,-4.3085,-4.2974,-4.2974,-4.2974,-4.2974,-4.2974,-4.2974,-4.2974,-4.2974,-4.2974,-4.2974,-4.2974,-4.2974,-4.2974,-4.2974,-4.2974,-4.2974,-4.2974,-4.2974,-4.2974,-4.2974,-4.2974,-4.2974,-4.2974,-4.2936,-4.2439,-4.1831,-4.1225,-4.0727,-4.0174,-3.9697,-3.9697,-3.9697,-3.9697,-3.9697,-3.9697,-3.9697,-3.9697,-3.9697,-3.9697,-3.9697,-3.9534,-3.9233,-3.8668,-3.8103,-3.7538,-3.6985,-3.6644,-3.6405,-3.6405,-3.6405,-3.6405,-3.6405,-3.6182,-3.5855,-3.5257,-3.4705,-3.4211,-3.3658,-3.3294,-3.3124,-3.3124,-3.3124,-3.3124,-3.3124,-3.3124,-3.3124,-3.3124,-3.3124,-3.2797,-3.2052,-3.15,-3.0406,-2.8448,-2.7861,-2.703,-2.5732,-2.5693,-2.5693,-2.5693,-2.5693,-2.5693,-2.5693,-2.5693,-2.5693,-2.5693,-2.5693,-2.5693,-4.4576,-4.4312,-4.381,-4.2069,-4.2307,-4.2654,-4.1771,-4.2383,-4.3822,-4.6058,-4.6963,-4.8111,-5.0718,-5.0902,-5.076,-5.112,-5.0397,-4.9776,-4.9776,-4.8539,-4.7299,-4.6279,-4.582,-4.5048,-4.37,-4.324,-4.2974,-4.2974,-4.2974,-4.2974,-4.2974,-4.2974,-4.2974,-4.2974,-4.2974,-4.2974,-4.2974,-4.2974,-4.2974,-4.2974,-4.2974,-4.2974,-4.2974,-4.2974,-4.2974,-4.2974,-4.2974,-4.2974,-4.2924,-4.2221,-4.1693,-4.1213,-4.0563,-4.0049,-3.9697,-3.9697,-3.9697,-3.9697,-3.9697,-3.9697,-3.9697,-3.9697,-3.9697,-3.9697,-3.9697,-3.9697,-3.9584,-3.9032,-3.8567,-3.8078,-3.7362,-3.6885,-3.6593,-3.6443,-3.6405,-3.6405,-3.6405,-3.6405,-3.6194,-3.5608,-3.5056,-3.455,-3.3997,-3.3445,-3.3124,-3.3124,-3.3124,-3.3124,-3.3124,-3.3124,-3.3124,-3.3124,-3.2797,-3.2196,-3.1267,-3.0586,-2.9453,-2.7731,-2.7268,-2.6658,-2.5732,-2.5693,-2.5693,-2.5693,-2.5693,-2.5693,-2.5693,-2.5693,-2.5693,-2.5693,-2.5693,-2.5693,-4.2157,-4.1775,-4.1419,-4.0096,-4.1034,-4.2242,-4.2187,-4.2602,-4.3759,-4.6499,-4.6042,-4.6356,-5.0445,-5.0143,-4.9679,-5.1011,-5.1167,-5.112,-5.112,-4.9984,-4.9112,-4.9098,-4.7873,-4.6487,-4.5102,-4.3755,-4.2974,-4.2974,-4.2974,-4.2974,-4.2974,-4.2974,-4.2974,-4.2974,-4.2974,-4.2974,-4.2974,-4.2974,-4.2974,-4.2974,-4.2974,-4.2974,-4.2974,-4.2974,-4.2974,-4.2974,-4.2974,-4.2974,-4.2886,-4.1819,-4.13,-4.1175,-4.0149,-3.971,-3.9697,-3.9697,-3.9697,-3.9697,-3.9697,-3.9697,-3.9697,-3.9697,-3.9697,-3.9697,-3.9697,-3.9697,-3.9584,-3.9032,-3.8906,-3.8592,-3.7475,-3.7174,-3.7023,-3.6531,-3.6405,-3.6405,-3.6405,-3.6405,-3.6194,-3.5608,-3.5056,-3.455,-3.3997,-3.3445,-3.3124,-3.3124,-3.3124,-3.3124,-3.3124,-3.3124,-3.3124,-3.3124,-3.2008,-3.1223,-3.1223,-2.9039,-2.7683,-2.7589,-2.6428,-2.5732,-2.5693,-2.5693,-2.5693,-2.5693,-2.5693,-2.5693,-2.5693,-2.5693,-2.5693,-2.5693,-2.5693,-2.5693,-4.4257,-4.4382,-4.4339,-4.3032,-4.3385,-4.3829,-4.2907,-4.2848,-4.3755,-4.6539,-4.6747,-4.735,-5.0603,-5.0807,-5.065,-5.112,-5.1214,-5.1214,-5.1214,-5.0807,-5.0191,-4.9308,-4.7974,-4.6539,-4.5142,-4.4576,-4.3962,-4.3085,-4.2974,-4.2974,-4.2974,-4.2974,-4.2974,-4.2974,-4.2974,-4.2974,-4.2974,-4.2974,-4.2974,-4.2974,-4.2974,-4.2974,-4.2974,-4.2974,-4.2974,-4.2974,-4.2974,-4.2974,-4.2924,-4.2183,-4.1668,-4.1213,-4.0526,-4.0011,-3.9697,-3.9697,-3.9697,-3.9697,-3.9697,-3.9697,-3.9697,-3.9697,-3.9697,-3.9697,-3.9697,-3.9697,-3.9647,-3.9471,-3.9145,-3.8831,-3.8454,-3.7751,-3.7136,-3.6948,-3.6669,-3.6405,-3.6405,-3.6405,-3.6355,-3.6119,-3.5642,-3.5044,-3.4537,-3.3985,-3.3495,-3.3131,-3.3124,-3.3124,-3.3124,-3.3124,-3.3124,-3.3124,-3.1965,-3.0899,-3.0079,-2.8541,-2.722,-2.639,-2.5927,-2.5693,-2.5693,-2.5693,-2.5693,-2.5693,-2.5693,-2.5693,-2.5693,-2.5693,-2.5693,-2.5693,-2.5693,-2.5693,-4.5224,-4.5481,-4.5464,-4.5047,-4.5324,-4.5502,-4.4684,-4.4481,-4.5088,-4.735,-4.7453,-4.7923,-5.0698,-5.0807,-5.065,-5.112,-5.1214,-5.1214,-5.1214,-5.1214,-5.0698,-4.9357,-4.8389,-4.7094,-4.5195,-4.4994,-4.4427,-4.3085,-4.2974,-4.2974,-4.2974,-4.2974,-4.2974,-4.2974,-4.2974,-4.2974,-4.2974,-4.2974,-4.2974,-4.2974,-4.2974,-4.2974,-4.2974,-4.2974,-4.2974,-4.2974,-4.2974,-4.2974,-4.2936,-4.2439,-4.1831,-4.1225,-4.0727,-4.0174,-3.9697,-3.9697,-3.9697,-3.9697,-3.9697,-3.9697,-3.9697,-3.9697,-3.9697,-3.9697,-3.9697,-3.9697,-3.9697,-3.9697,-3.9433,-3.912,-3.8969,-3.8378,-3.7676,-3.7274,-3.6958,-3.6644,-3.6455,-3.6405,-3.6405,-3.6405,-3.5918,-3.5382,-3.5031,-3.4399,-3.3709,-3.3156,-3.3124,-3.3124,-3.3124,-3.3124,-3.3124,-3.3124,-3.1557,-3.0226,-2.9453,-2.7898,-2.6572,-2.5732,-2.5693,-2.5693,-2.5693,-2.5693,-2.5693,-2.5693,-2.5693,-2.5693,-2.5693,-2.5693,-2.5693,-2.5693,-2.5693,-2.5693,-4.5032,-4.5166,-4.5066,-4.6148,-4.6832,-4.7197,-4.7094,-4.7094,-4.7503,-4.8858,-4.8096,-4.801,-5.0624,-5.0147,-4.9713,-5.0967,-5.1199,-5.1214,-5.1214,-5.1214,-5.0698,-4.9357,-4.9161,-4.8024,-4.5249,-4.4941,-4.4372,-4.3085,-4.2974,-4.2974,-4.2974,-4.2974,-4.2974,-4.2974,-4.2974,-4.2974,-4.2974,-4.2974,-4.2974,-4.2974,-4.2974,-4.2974,-4.2974,-4.2974,-4.2974,-4.2974,-4.2974,-4.2974,-4.2936,-4.2464,-4.1869,-4.1275,-4.0777,-4.0224,-3.9735,-3.9697,-3.9697,-3.9697,-3.9697,-3.9697,-3.9697,-3.9697,-3.9697,-3.9697,-3.9697,-3.9697,-3.9697,-3.9697,-3.9697,-3.9572,-3.9044,-3.8944,-3.8655,-3.7525,-3.7224,-3.7048,-3.6568,-3.643,-3.6405,-3.6405,-3.5918,-3.5495,-3.5458,-3.4568,-3.3709,-3.3156,-3.3124,-3.3124,-3.3124,-3.3124,-3.3081,-3.3025,-3.0822,-2.9361,-2.9315,-2.7067,-2.5693,-2.5693,-2.5693,-2.5693,-2.5693,-2.5693,-2.5693,-2.5693,-2.5693,-2.5693,-2.5693,-2.5693,-2.5693,-2.5693,-2.5693,-2.5693,-4.7155,-4.8129,-4.8679,-4.852,-4.8574,-4.8389,-4.735,-4.7094,-4.7378,-4.825,-4.8571,-4.8873,-4.9637,-5.0262,-5.0644,-5.0463,-5.0853,-5.1214,-5.1214,-5.1214,-5.0698,-4.9357,-4.8275,-4.694,-4.5142,-4.4113,-4.3394,-4.303,-4.2974,-4.2974,-4.2974,-4.2974,-4.2974,-4.2974,-4.2974,-4.2974,-4.2974,-4.2974,-4.2974,-4.2974,-4.2974,-4.2974,-4.2974,-4.2974,-4.2974,-4.2974,-4.2974,-4.2974,-4.2974,-4.2823,-4.2446,-4.1894,-4.1342,-4.0802,-4.0262,-3.9848,-3.9697,-3.9697,-3.9697,-3.9697,-3.9697,-3.9697,-3.9697,-3.9697,-3.9697,-3.9697,-3.9697,-3.9697,-3.9697,-3.9659,-3.9521,-3.9182,-3.8844,-3.8554,-3.7801,-3.7149,-3.7059,-3.6694,-3.6405,-3.6405,-3.5918,-3.537,-3.4956,-3.4361,-3.3709,-3.3156,-3.3124,-3.3124,-3.3124,-3.3124,-3.2754,-3.1777,-3.0316,-2.9039,-2.8132,-2.661,-2.5693,-2.5693,-2.5693,-2.5693,-2.5693,-2.5693,-2.5693,-2.5693,-2.5693,-2.5693,-2.5693,-2.5693,-2.5693,-2.5693,-2.5693,-2.5693,-4.8356,-4.9839,-5.094,-5.0838,-5.08,-5.0555,-4.9457,-4.8817,-4.8508,-4.8646,-4.8996,-4.9275,-4.9298,-5.0107,-5.0629,-5.0255,-5.0749,-5.1214,-5.1214,-5.1214,-5.0698,-4.9357,-4.7974,-4.6539,-4.5142,-4.381,-4.2974,-4.2974,-4.2974,-4.2974,-4.2974,-4.2974,-4.2974,-4.2974,-4.2974,-4.2974,-4.2974,-4.2974,-4.2974,-4.2974,-4.2974,-4.2974,-4.2974,-4.2974,-4.2974,-4.2974,-4.2974,-4.2974,-4.2974,-4.2974,-4.2703,-4.215,-4.1555,-4.0949,-4.045,-3.9898,-3.9697,-3.9697,-3.9697,-3.9697,-3.9697,-3.9697,-3.9697,-3.9697,-3.9697,-3.9697,-3.9697,-3.9697,-3.9697,-3.9697,-3.9697,-3.9471,-3.917,-3.8982,-3.8191,-3.7475,-3.7236,-3.6795,-3.6405,-3.6405,-3.6119,-3.573,-3.5132,-3.4625,-3.4073,-3.352,-3.3232,-3.3124,-3.3124,-3.3124,-3.284,-3.2096,-3.0451,-2.9131,-2.8459,-2.6754,-2.5693,-2.5693,-2.5693,-2.5693,-2.5693,-2.5693,-2.5693,-2.5693,-2.5693,-2.5693,-2.5693,-2.5693,-2.5693,-2.5693,-2.5693,-2.5693,-4.9045,-5.0619,-5.1997,-5.2717,-5.2838,-5.2606,-5.2017,-5.1071,-5.0095,-4.9314,-4.9254,-4.9269,-4.909,-4.9613,-5.0061,-5.0061,-5.0614,-5.1124,-5.1214,-5.1214,-5.0698,-4.9357,-4.7974,-4.6539,-4.5142,-4.381,-4.2974,-4.2974,-4.2974,-4.2974,-4.2974,-4.2974,-4.2974,-4.2974,-4.2974,-4.2974,-4.2974,-4.2974,-4.2974,-4.2974,-4.2974,-4.2974,-4.2974,-4.2974,-4.2974,-4.2974,-4.2974,-4.2974,-4.2974,-4.2974,-4.2753,-4.225,-4.158,-4.0987,-4.0551,-3.9923,-3.9697,-3.9697,-3.9697,-3.9697,-3.9697,-3.9697,-3.9697,-3.9697,-3.9697,-3.9697,-3.9697,-3.9697,-3.9697,-3.9697,-3.9697,-3.9697,-3.9572,-3.9094,-3.8479,-3.7877,-3.74,-3.6857,-3.6405,-3.6405,-3.6405,-3.6194,-3.5596,-3.5107,-3.4613,-3.3985,-3.3495,-3.3156,-3.3124,-3.3124,-3.3025,-3.2884,-3.0777,-2.9315,-2.9177,-2.702,-2.5693,-2.5693,-2.5693,-2.5693,-2.5693,-2.5693,-2.5693,-2.5693,-2.5693,-2.5693,-2.5693,-2.5693,-2.5693,-2.5693,-2.5693,-2.5693,-4.9718,-5.0679,-5.1591,-5.2618,-5.2454,-5.1961,-5.1924,-5.1287,-5.0284,-4.8787,-4.8925,-4.8985,-4.7848,-4.8626,-4.9434,-4.9434,-4.9987,-5.0554,-5.1139,-5.1214,-5.0698,-4.9357,-4.7974,-4.6539,-4.5142,-4.381,-4.2974,-4.2974,-4.2974,-4.2974,-4.2974,-4.2974,-4.2974,-4.2974,-4.2974,-4.2974,-4.2974,-4.2974,-4.2974,-4.2974,-4.2974,-4.2974,-4.2974,-4.2974,-4.2974,-4.2974,-4.2974,0.0,-4.2974,-4.2974,-4.2924,-4.2735,-4.1731,-4.1225,-4.1025,-4.0061,-3.9697,-3.9697,-3.9697,-3.9697,-3.9697,-3.9697,-3.9697,-3.9697,-3.9697,-3.9697,-3.9697,-3.9697,-3.9697,-3.9697,-3.9697,-3.9697,-3.9672,-3.9572,-3.8755,-3.7977,-3.7889,-3.7073,-3.6405,-3.6405,-3.6405,-3.6194,-3.5596,-3.542,-3.5019,-3.4048,-3.3822,-3.3596,-3.3174,-3.3124,-3.2711,-3.1633,-3.0271,-2.8993,-2.8002,-2.6572,-2.5693,-2.5693,-2.5693,-2.5693,-2.5693,-2.5693,-2.5693,-2.5693,-2.5693,-2.5693,-2.5693,-2.5693,-2.5693,-2.5693,-2.5693,-2.5693,-4.9927,-5.1136,-5.235,-5.3498,-5.2824,-5.1821,-5.1747,-5.0576,-4.9059,-4.7589,-4.7788,-4.8057,-4.7414,-4.8102,-4.8805,-4.8805,-4.9314,-4.9957,-5.0569,-5.0659,-5.0577,-5.0305,-4.9049,-4.767,-4.6226,-4.4833,-4.3755,-4.303,-4.2974,-4.2974,-4.2974,-4.2974,-4.2974,-4.2974,-4.2974,-4.2974,-4.2974,-4.2974,-4.2974,-4.2974,-4.2974,-4.2974,-4.2974,-4.2974,-4.2974,-4.2974,-4.2974,-4.2974,-4.2974,-4.2974,-4.2974,-4.2873,-4.1769,-4.1288,-4.115,-4.0099,-3.9697,-3.9697,-3.9697,-3.9697,-3.9697,-3.9697,-3.9697,-3.9697,-3.9697,-3.9697,-3.9697,-3.9697,-3.9697,-3.9697,-3.9697,-3.9697,-3.9697,-3.9697,-3.8831,-3.7927,-3.7638,-3.6935,-3.6405,-3.6405,-3.6405,-3.6329,-3.6019,-3.5683,-3.5219,-3.4449,-3.4085,-3.3709,-3.3156,-3.3124,-3.2884,-3.2239,-3.0508,-2.9177,-2.8588,-2.6802,-2.5693,-2.5693,-2.5693,-2.5693,-2.5693,-2.5693,-2.5693,-2.5693,-2.5693,-2.5693,-2.5693,-2.5693,-2.5693,-2.5693,-2.5693,-2.5693,-5.0181,-5.1455,-5.2827,-5.3956,-5.2941,-5.1592,-5.1295,-4.9766,-4.8017,-4.6604,-4.6845,-4.7309,-4.7309,-4.7728,-4.8117,-4.8267,-4.888,-4.9494,-5.0106,-5.0315,-5.0599,-5.1154,-5.0032,-4.8638,-4.7248,-4.582,-4.4427,-4.3085,-4.2974,-4.2974,-4.2974,-4.2974,-4.2974,-4.2974,-4.2974,-4.2974,-4.2974,-4.2974,-4.2974,-4.2974,-4.2974,-4.2974,-4.2974,-4.2974,-4.2974,-4.2974,-4.2974,-4.2974,-4.2974,-4.2974,-4.2974,-4.2873,-4.1769,-4.1288,-4.115,-4.0099,-3.9697,-3.9697,-3.9697,-3.9697,-3.9697,-3.9697,-3.9697,-3.9697,-3.9697,-3.9697,-3.9697,-3.9697,-3.9697,-3.9697,-3.9697,-3.9697,-3.9659,-3.9546,-3.8743,-3.7852,-3.7299,-3.6795,-3.6405,-3.6405,-3.6405,-3.6405,-3.6405,-3.6006,-3.5483,-3.4931,-3.4525,-3.401,-3.3345,-3.3257,-3.3206,-3.3093,-3.0866,-2.9407,-2.9407,-2.7115,-2.5693,-2.5693,-2.5693,-2.5693,-2.5693,-2.5693,-2.5693,-2.5693,-2.5693,-2.5693,-2.5693,-2.5693,-2.5693,-2.5693,-2.5693,-2.5693,-5.0795,-5.1216,-5.1635,-5.2783,-5.1968,-5.0747,-5.0196,-4.9393,-4.8295,-4.6653,-4.6845,-4.7309,-4.7309,-4.7354,-4.7593,-4.8192,-4.888,-4.9494,-5.0106,-5.0704,-5.1154,-5.1214,-5.0032,-4.8638,-4.7248,-4.582,-4.4427,-4.3085,-4.2974,-4.2974,-4.2974,-4.2974,-4.2974,-4.2974,-4.2974,-4.2974,-4.2974,-4.2974,-4.2974,-4.2974,-4.2974,-4.2974,-4.2974,-4.2974,-4.2974,-4.2974,-4.2974,-4.2974,0.0,-4.2974,-4.2974,-4.2873,-4.1769,-4.1288,-4.115,-4.0099,-3.9697,-3.9697,-3.9697,-3.9697,-3.9697,-3.9697,-3.9697,-3.9697,-3.9697,-3.9697,-3.9697,-3.9697,-3.9697,-3.9697,-3.9697,-3.9697,-3.9572,-3.9069,-3.8467,-3.7852,-3.7299,-3.6795,-3.6405,-3.6405,-3.6405,-3.6405,-3.6405,-3.6367,-3.6094,-3.5508,-3.5382,-3.4969,-3.396,-3.3822,-3.3633,-3.3131,-3.0866,-2.9407,-2.9407,-2.7115,-2.5693,-2.5693,-2.5693,-2.5693,-2.5693,-2.5693,-2.5693,-2.5693,-2.5693,-2.5693,-2.5693,-2.5693,-2.5693,-2.5693,-2.5693,-2.5693,-5.0272,-5.0868,-5.1464,-5.2604,-5.1383,-4.9885,-4.9904,-4.8837,-4.7568,-4.6526,-4.6845,-4.7309,-4.7309,-4.7309,-4.7399,-4.7653,-4.7923,-4.8312,-4.897,-4.9628,-5.0182,-5.0539,-4.975,-4.8638,-4.7248,-4.582,-4.4427,-4.3085,-4.2974,-4.2974,-4.2974,-4.2974,-4.2974,-4.2974,-4.2974,-4.2974,-4.2974,-4.2974,-4.2974,-4.2974,-4.2974,-4.2974,-4.2974,-4.2974,-4.2974,-4.2974,-4.2974,-4.2974,0.0,-4.2974,-4.2841,-4.2464,-4.1643,-4.1075,-4.0752,-3.9986,-3.9697,-3.9697,-3.9697,-3.9697,-3.9697,-3.9697,-3.9697,-3.9697,-3.9697,-3.9697,-3.9697,-3.9697,-3.9697,-3.9697,-3.9697,-3.9697,-3.9634,-3.9421,-3.8931,-3.8366,-3.7801,-3.7249,-3.6807,-3.6468,-3.6405,-3.6405,-3.6405,-3.6405,-3.6182,-3.5583,-3.5495,-3.5219,-3.45,-3.411,-3.3822,-3.3596,-3.1055,-2.9407,-2.9407,-2.7115,-2.5693,-2.5693,-2.5693,-2.5693,-2.5693,-2.5693,-2.5693,-2.5693,-2.5693,-2.5693,-2.5693,-2.5693,-2.5693,-2.5693,-2.5693,-2.5693,-4.9837,-5.0674,-5.1386,-5.2184,-5.0864,-4.9328,-4.9399,-4.8304,-4.7115,-4.6456,-4.6845,-4.7309,-4.7309,-4.7309,-4.7309,-4.7309,-4.7474,-4.7818,-4.8476,-4.9015,-4.9508,-5.0121,-4.9613,-4.8574,-4.6971,-4.5355,-4.4016,-4.3085,-4.2974,-4.2974,-4.2974,-4.2974,-4.2974,-4.2974,-4.2974,-4.2974,-4.2974,-4.2974,-4.2974,-4.2974,-4.2974,-4.2974,-4.2974,-4.2974,-4.2974,-4.2974,-4.2974,-4.2974,0.0,-4.2974,-4.2703,-4.215,-4.1555,-4.0949,-4.045,-3.9898,-3.9697,-3.9697,-3.9697,-3.9697,-3.9697,-3.9697,-3.9697,-3.9697,-3.9697,-3.9697,-3.9697,-3.9697,-3.9697,-3.9697,-3.9697,-3.9697,-3.9697,-3.9697,-3.927,-3.8718,-3.8128,-3.7575,-3.7023,-3.6518,-3.6405,-3.6405,-3.6405,-3.6405,-3.6279,-3.5843,-3.5793,-3.5592,-3.4994,-3.4625,-3.4177,-3.3588,-3.1213,-2.9564,-2.9418,-2.7115,-2.5693,-2.5693,-2.5693,-2.5693,-2.5693,-2.5693,-2.5693,-2.5693,-2.5693,-2.5693,-2.5693,-2.5693,-2.5693,-2.5693,-2.5693,-2.5693,-4.9837,-5.0674,-5.1214,-5.1214,-5.0227,-4.9149,-4.8476,-4.7773,-4.7115,-4.6456,-4.6845,-4.7309,-4.7309,-4.7309,-4.7309,-4.7309,-4.7863,-4.8506,-4.9209,-4.9314,-4.9508,-5.0121,-4.9673,-4.8439,-4.6306,-4.425,-4.303,-4.2974,-4.2974,-4.2974,-4.2974,-4.2974,-4.2974,-4.2974,-4.2974,-4.2974,-4.2974,-4.2974,-4.2974,-4.2974,-4.2974,-4.2974,-4.2974,-4.2974,-4.2974,-4.2974,-4.2974,-4.2974,0.0,-4.2974,-4.2703,-4.215,-4.1555,-4.0949,-4.045,-3.9898,-3.9697,-3.9697,-3.9697,-3.9697,-3.9697,-3.9697,-3.9697,-3.9697,-3.9697,-3.9697,-3.9697,-3.9697,-3.9697,-3.9697,-3.9697,-3.9697,-3.9697,-3.9697,-3.927,-3.8718,-3.8128,-3.7575,-3.7023,-3.6518,-3.6405,-3.6405,-3.6405,-3.6405,-3.6405,-3.6405,-3.6405,-3.6157,-3.5558,-3.5483,-3.4783,-3.2886,-3.118,-2.998,-2.9452,-2.7115,-2.5693,-2.5693,-2.5693,-2.5693,-2.5693,-2.5693,-2.5693,-2.5693,-2.5693,-2.5693,-2.5693,-2.5693,-2.5693,-2.5693,-2.5693,-2.5693,-4.7997,-4.9045,-4.9883,-4.9883,-4.9239,-4.8536,-4.8341,-4.7773,-4.7249,-4.704,-4.716,-4.7309,-4.7309,-4.7309,-4.7309,-4.7309,-4.7474,-4.7683,-4.7893,-4.8701,-4.9389,-4.9553,-4.8518,-4.7167,-4.5524,-4.39,-4.2974,-4.2974,-4.2974,-4.2974,-4.2974,-4.2974,-4.2974,-4.2974,-4.2974,-4.2974,-4.2974,-4.2974,-4.2974,-4.2974,-4.2974,-4.2974,-4.2974,-4.2974,-4.2974,-4.2974,-4.2974,-4.2974,-4.2949,-4.2627,-4.2363,-4.2112,-4.1141,-4.0676,-4.045,-3.9898,-3.9697,-3.9697,-3.9697,-3.9697,-3.9697,-3.9697,-3.9697,-3.9697,-3.9697,-3.9697,-3.9697,-3.9697,-3.9697,-3.9697,-3.9697,-3.9697,-3.9697,-3.9697,-3.9559,-3.917,-3.8216,-3.7864,-3.7475,-3.6593,-3.6405,-3.6405,-3.6405,-3.6405,-3.6405,-3.6405,-3.6405,-3.6342,-3.6119,-3.578,-3.4932,-3.3398,-3.1708,-3.0116,-2.8694,-2.683,-2.5693,-2.5693,-2.5693,-2.5693,-2.5693,-2.5693,-2.5693,-2.5693,-2.5693,-2.5693,-2.5693,-2.5693,-2.5693,-2.5693,-2.5693,-2.5693,-4.6995,-4.8087,-4.9,-4.9254,-4.882,-4.8282,-4.8282,-4.7773,-4.7234,-4.698,-4.6935,-4.686,-4.6591,-4.6546,-4.6546,-4.6546,-4.677,-4.7025,-4.7264,-4.8222,-4.903,-4.9284,-4.823,-4.6966,-4.5536,-4.4405,-4.3547,-4.303,-4.2974,-4.2974,-4.2974,-4.2974,-4.2974,-4.2974,-4.2974,-4.2974,-4.2974,-4.2974,-4.2974,-4.2974,-4.2974,-4.2974,-4.2974,-4.2974,-4.2974,-4.2974,-4.2974,-4.2974,0.0,-4.2665,-4.2275,-4.1781,-4.1091,-4.0576,-4.0162,-3.9823,-3.9697,-3.9697,-3.9697,-3.9697,-3.9697,-3.9697,-3.9697,-3.9697,-3.9697,-3.9697,-3.9697,-3.9697,-3.9697,-3.9697,-3.9697,-3.9697,-3.9697,-3.9697,-3.9697,-3.9383,-3.8253,-3.8002,-3.7676,-3.6619,-3.6405,-3.6405,-3.6405,-3.6405,-3.6405,-3.6405,-3.6405,-3.6405,-3.6405,-3.6056,-3.5102,-3.327,-3.1934,-3.0362,-2.8183,-2.6745,-2.5986,-2.5986,-2.5781,-2.5693,-2.5693,-2.5693,-2.5693,-2.5693,-2.5693,-2.5693,-2.5693,-2.5693,-2.5693,-2.5693,-2.5693,-2.5693,0.0,-4.7578,-4.8222,-4.888,-4.8565,-4.8072,-4.8072,-4.7593,0.0,-4.6381,-4.6204,-4.6052,-4.5409,-4.5289,-4.5289,-4.5289,-4.5828,-4.6471,-4.7145,-4.7878,-4.8626,-4.9359,-4.8741,-4.7783,-4.6467,-4.555,-4.4481,-4.324,-4.303,-4.2974,-4.2974,-4.2974,-4.2974,-4.2974,-4.2974,-4.2974,-4.2974,-4.2974,-4.2974,-4.2974,-4.2974,-4.2974,-4.2974,-4.2974,-4.2974,0.0,-4.2974,-4.2974,-4.2974,-4.2886,-4.2283,-4.1326,-4.1213,-4.0626,-3.9747,-3.971,-3.9697,-3.9697,-3.9697,-3.9697,-3.9697,-3.9697,-3.9697,-3.9697,-3.9697,-3.9697,-3.9697,-3.9697,-3.9697,-3.9697,-3.9697,-3.9697,-3.9697,-3.9697,-3.9697,-3.9383,-3.8253,-3.8002,-3.7676,-3.6619,-3.6405,-3.6405,-3.6405,-3.6405,-3.6405,-3.6405,-3.6405,-3.6405,-3.6405,-3.6405,-3.5343,-3.2582,-3.1988,-3.0687,-2.7956,-2.6924,-2.6435,-2.6435,-2.6055,-2.5762,-2.5732,-2.5732,-2.5713,-2.5693,-2.5693,-2.5693,-2.5693,-2.5693,-2.5693,-2.5693,-2.5693,-2.5693,-4.4751,0.0,-4.6037,-4.6187,-4.6112,-4.6007,0.0,-4.5873,-4.5723,-4.5574,-4.5544,-4.5484,-4.5334,-4.5289,-4.5289,-4.5289,-4.5424,-4.5783,-4.6456,-4.7997,-4.9509,-5.0616,-4.971,-4.8833,-4.8523,-4.6354,-4.4887,-4.4522,-4.3602,-4.2974,-4.2974,-4.2974,-4.2974,-4.2974,-4.2974,-4.2974,-4.2974,-4.2974,-4.2974,-4.2974,-4.2974,-4.2974,-4.2974,-4.2974,-4.2974,-4.2974,-4.2974,-4.2974,-4.2911,-4.207,-4.1819,-4.1831,-4.0576,-4.0174,-4.0275,-3.9848,-3.9697,-3.9697,-3.9697,-3.9697,-3.9697,-3.9697,-3.9697,-3.9697,-3.9697,-3.9697,-3.9697,-3.9697,-3.9697,-3.9697,-3.9697,-3.9697,-3.9697,-3.9697,-3.9697,-3.9383,-3.8253,-3.8002,-3.7676,-3.6619,-3.6405,-3.6405,-3.6405,-3.6405,-3.6405,-3.6405,-3.6405,-3.6405,-3.6405,-3.6405,-3.5343,-3.2582,-3.223,-3.1062,-2.84,-2.7363,-2.6865,-2.6865,-2.6777,-2.6572,-2.625,-2.624,-2.6084,-2.5693,-2.5693,-2.5693,-2.5693,-2.5693,-2.5693,-2.5693,-2.5693,-2.5693,-4.3723,-4.4571,-4.5364,-4.5678,-4.5768,-4.5768,-4.5768,-4.5529,-4.5075,-4.4234,-4.4481,-4.4571,-4.3776,-4.4035,-4.4392,-4.4392,-4.49,-4.5858,-4.7444,-4.8596,-4.9748,-5.1065,-5.0555,-4.9873,-4.9259,-4.7248,-4.5714,-4.5048,-4.3755,-4.2974,-4.2974,-4.2974,-4.2974,-4.2974,-4.2974,-4.2974,-4.2974,-4.2974,-4.2974,-4.2974,-4.2974,-4.2974,-4.2974,-4.2974,-4.2974,-4.2974,-4.2974,-4.2836,-4.2615,-4.1957,-4.1593,-4.1317,-4.0425,-4.0099,-4.0111,-3.9798,-3.9697,-3.9697,-3.9697,-3.9697,-3.9697,-3.9697,-3.9697,-3.9697,-3.9697,-3.9697,-3.9697,-3.9697,-3.9697,-3.9697,-3.9697,-3.9697,-3.9697,-3.9697,-3.9697,-3.9383,-3.8253,-3.8002,-3.7676,-3.6619,-3.6405,-3.6493,-3.6744,-3.6568,-3.6493,-3.6744,-3.6568,-3.6405,-3.6405,-3.5858,-3.4666,-3.2532,-3.1735,-3.0577,-2.8495,-2.7871,-2.7519,-2.7324,-2.7129,-2.6914,-2.668,-2.6494,-2.6182,-2.5693,-2.5693,-2.5693,-2.5693,-2.5693,-2.5693,-2.5693,-2.5693,-2.5693,-4.3195,-4.4061,-4.5114,-4.5501,-4.5522,-4.5439,-4.5335,-4.5003,-4.4243,-4.2551,-4.3094,-4.3375,-4.166,-4.2199,-4.2968,-4.3169,-4.4448,-4.6307,-4.882,-4.9254,-4.9748,-5.1065,-5.1214,-5.076,-4.9616,-4.8024,-4.6591,-4.5409,-4.3852,-4.2974,-4.2974,-4.2974,-4.2974,-4.2974,-4.2898,-4.2848,-4.2848,-4.2936,-4.2974,-4.2974,-4.2974,-4.2974,-4.2974,-4.2974,-4.2974,-4.2974,0.0,0.0,-4.2213,-4.2213,-4.1555,-4.0626,-4.0551,-4.0224,-3.981,-3.9722,-3.9697,-3.9697,-3.9697,-3.9697,-3.9697,-3.9697,-3.9697,-3.9697,-3.9697,-3.9697,-3.9697,-3.9697,-3.9697,-3.9697,-3.9697,-3.9697,-3.9697,-3.9697,-3.9697,-3.9408,-3.8366,-3.814,-3.7839,-3.6857,-3.6656,-3.6807,-3.7224,-3.6971,-3.6782,-3.7123,-3.6784,-3.6505,-3.6417,-3.5223,-3.3871,-3.2431,-3.1122,-2.9765,-2.8388,-2.8291,-2.8135,-2.7783,-2.7412,-2.7148,-2.7021,-2.6611,-2.6182,-2.5693,-2.5693,-2.5693,-2.5693,-2.5693,-2.5693,-2.5693,-2.5693,-2.5693,-4.2684,-4.3097,-4.3458,-4.2531,-4.1938,-4.1439,-4.0993,-4.1525,-4.1819,-4.0572,-4.1227,-4.1619,-4.0389,-4.0679,-4.145,-4.252,-4.4645,-4.6696,-4.8222,-4.8955,-4.9748,-5.1065,-5.1214,-5.112,-5.0917,-4.8589,-4.6991,-4.6785,-4.4427,-4.2974,-4.2974,-4.2974,-4.2974,-4.2974,-4.2577,-4.2338,-4.2338,-4.2748,-4.2974,-4.2974,-4.2974,-4.2974,-4.2974,-4.2974,-4.2974,-4.2974,0.0,-4.2728,-4.2213,-4.2213,-4.1781,-4.1112,-4.0701,-4.0463,-4.0337,-3.9873,-3.9697,-3.9697,-3.9697,-3.9697,-3.9697,-3.9697,-3.9697,-3.9697,-3.9697,-3.9697,-3.9697,-3.9697,-3.9697,-3.9697,-3.9697,-3.9697,-3.9697,-3.9697,-3.9697,-3.9521,-3.8881,-3.8743,-3.8542,-3.7877,-3.7751,-3.7789,-3.7864,-3.7814,-3.7626,-3.7249,-3.7111,-3.6885,-3.6468,-3.5223,-3.3871,-3.2431,-3.1122,-2.9765,-2.8388,-2.8291,-2.8262,-2.8203,-2.8135,-2.7773,-2.7041,-2.6611,-2.6182,-2.5693,-2.5693,-2.5693,-2.5693,-2.5693,-2.5693,-2.5693,-2.5693,-2.5693,-4.1691,-4.1398,-4.1203,-4.0352,-4.0911,-4.1552,-4.1004,-4.1,-4.0695,-3.9237,-3.9871,-4.0416,-3.9514,-4.0086,-4.111,-4.2315,-4.3743,-4.5147,-4.6469,-4.7186,-4.7917,-4.8899,-4.8999,-4.8999,-4.8999,-4.7146,-4.5964,-4.5964,-4.4113,-4.2974,-4.2974,-4.2753,-4.259,-4.259,-4.1995,-4.1706,-4.1706,-4.1969,-4.2246,-4.259,-4.2836,-4.2974,-4.2974,-4.2974,-4.2974,-4.2961,0.0,-4.2221,-4.1693,-4.1392,-4.0953,-4.045,-4.0501,-4.0513,-4.0526,-4.0563,-4.0388,-4.0136,-4.0136,-3.9936,-3.9697,-3.9697,-3.9697,-3.9697,-3.9697,-3.9697,-3.9697,-3.9697,-3.9697,-3.9697,-3.9697,-3.9697,-3.9697,-3.9697,-3.9697,-3.9546,-3.9045,-3.8919,-3.8693,-3.8115,-3.8002,-3.8103,-3.8417,-3.8216,-3.7755,-3.7017,-3.7097,-3.6832,-3.5771,-3.4233,-3.3005,-3.2381,-3.0463,-2.8953,-2.8344,-2.8291,-2.8291,-2.8291,-2.8291,-2.8018,-2.7393,-2.6953,-2.6523,-2.6103,-2.581,-2.5693,-2.5693,-2.5693,-2.5693,-2.5693,-2.5693,-2.5693,-4.0715,-3.9898,-3.9176,-3.8477,-3.978,-4.1167,-4.0889,-4.0531,-3.9812,-3.8228,-3.8863,-3.9446,-3.8667,-3.9732,-4.1087,-4.2119,-4.2889,-4.3794,-4.5133,-4.565,-4.6215,-4.7011,-4.7094,-4.7094,-4.7094,-4.582,-4.4994,-4.4994,-4.364,-4.2785,-4.2785,-4.2313,-4.1969,-4.1969,-4.143,-4.11,-4.11,-4.11,-4.1492,-4.2213,-4.264,-4.2848,-4.2974,-4.2848,-4.2785,-4.2748,-4.225,-4.1656,-4.1075,-4.0774,-4.0388,-3.9936,-4.035,-4.0513,-4.0576,-4.1075,-4.0937,-4.0513,-4.0513,-4.0162,-3.9697,-3.9697,-3.9697,-3.9697,-3.9697,-3.9697,-3.9697,-3.9697,-3.9697,-3.9697,-3.9697,-3.9697,-3.9697,-3.9697,-3.9697,-3.9584,-3.9157,-3.9108,-3.8931,-3.8492,-3.8404,-3.8442,-3.855,-3.8201,-3.7484,-3.6319,-3.6372,-3.6231,-3.5286,-3.3333,-3.2104,-3.2459,-2.9973,-2.8291,-2.8291,-2.8291,-2.8291,-2.8291,-2.8291,-2.8105,-2.7738,-2.7344,-2.6924,-2.6396,-2.6064,-2.5791,-2.5693,-2.5693,-2.5693,-2.5693,-2.5693,-2.5693,-4.0151,-3.9098,-3.7939,-3.6841,-3.7086,-3.7703,-3.8171,-3.867,-3.8686,-3.7495,-3.8204,-3.8613,-3.7533,-3.9232,-4.0993,-4.158,-4.2711,-4.3918,-4.5133,-4.534,-4.5796,-4.6956,-4.7094,-4.7094,-4.7094,-4.582,-4.4994,-4.4994,-4.3268,-4.2263,-4.2263,-4.1693,-4.1338,-4.1338,-4.0865,-4.0576,-4.0576,-4.0576,-4.1103,-4.2213,-4.225,-4.2539,-4.2961,-4.2502,-4.2263,-4.2238,-4.163,-4.1037,-4.0614,-4.1025,-4.0953,-4.0463,-4.0501,-4.0513,-4.0576,-4.1075,-4.0937,-4.0513,-4.0513,-4.0162,-3.9697,-3.9697,-3.9697,-3.9697,-3.9697,-3.9697,-3.9697,-3.9697,-3.9697,-3.9697,-3.9697,-3.9697,-3.9697,-3.9697,-3.9697,-3.9685,-3.9647,-3.9634,-3.9622,-3.9584,-3.9572,-3.9146,-3.7841,-3.7541,-3.6873,-3.4863,-3.4578,-3.4907,-3.5663,-3.3016,-3.1644,-3.2996,-3.0223,-2.8291,-2.8291,-2.8291,-2.8291,-2.8291,-2.8291,-2.8105,-2.7738,-2.7689,-2.7288,-2.6406,-2.6357,-2.6143,-2.5693,-2.5693,-2.5693,-2.5693,-2.5693,-2.5693,-3.9048,-3.7912,-3.6867,-3.6497,-3.6568,-3.6857,-3.7374,-3.7965,-3.8248,-3.7786,-3.8066,-3.8199,-3.7786,-3.875,-3.9684,-3.9902,-4.0858,-4.1797,-4.2241,-4.2606,-4.2984,-4.3414,-4.3466,-4.3466,-4.3466,-4.3014,-4.2718,-4.2718,-4.2014,-4.1643,-4.1643,-4.1128,-4.0774,-4.0774,-4.0287,-4.0011,-4.0011,-4.0011,-4.0388,-4.1141,-4.148,-4.1756,-4.1957,-4.1743,-4.1643,-4.1618,-4.1065,-4.0714,-4.0513,-4.0375,-4.0199,-4.0074,-4.0764,-4.1241,-4.1605,-4.2158,-4.1794,-4.0974,-4.0974,-4.0438,-3.9697,-3.9697,-3.9697,-3.9697,-3.9697,-3.9697,-3.9697,-3.9697,-3.9697,-3.9697,-3.9697,-3.9697,-3.9697,-3.9697,-3.9697,-3.9697,-3.9697,-3.9697,-3.9697,-3.9697,-3.8973,-3.8125,-3.7571,-3.6757,-3.555,-3.382,-3.4021,-3.419,-3.3625,-3.2298,-3.1486,-3.1771,-2.9735,-2.8291,-2.8291,-2.8291,-2.8291,-2.8291,-2.8291,-2.8223,-2.8066,-2.7855,-2.7562,-2.7187,-2.666,-2.6309,-2.6143,-2.582,-2.5693,-2.5693,-2.5693,-2.5693,-3.8283,-3.6952,-3.5825,-3.5873,-3.5968,-3.6295,-3.701,-3.7613,-3.8052,-3.8241,-3.814,-3.8002,-3.8002,-3.8479,-3.8919,-3.8919,-3.9647,-4.0325,-4.0488,-4.084,-4.1087,-4.1263,-4.1288,-4.1288,-4.1288,-4.1288,-4.1288,-4.1288,-4.1125,-4.1025,-4.1025,-4.0563,-4.0262,-4.0262,-3.9885,-3.9697,-3.9697,-3.9697,-3.9885,-4.0262,-4.0639,-4.0949,-4.1275,-4.11,-4.1025,-4.1,-4.0501,-4.0262,-4.0224,-3.9848,-3.9697,-3.9785,-4.0714,-4.1304,-4.1706,-4.2258,-4.1869,-4.1025,-4.1025,-4.0475,-3.9697,-3.9697,-3.9697,-3.9697,-3.9697,-3.9697,-3.9697,-3.9697,-3.9697,-3.9697,-3.9697,-3.9697,-3.9697,-3.9697,-3.9697,-3.9697,-3.9697,-3.9697,-3.9697,-3.9697,-3.8518,-3.7358,-3.6876,-3.5563,-3.4069,-3.2644,-3.2917,-3.3085,-3.2528,-3.1698,-3.0929,-3.0399,-2.9236,-2.8437,-2.8301,-2.8291,-2.8291,-2.8291,-2.8291,-2.8291,-2.8291,-2.8018,-2.7855,-2.7718,-2.6953,-2.6523,-2.6387,-2.5947,-2.5693,-2.5693,-2.5693,-2.5693,-3.8007,-3.6379,-3.4668,-3.468,-3.5094,-3.5796,-3.6948,-3.7613,-3.8165,-3.8755,-3.8417,-3.8015,-3.8015,-3.8479,-3.8919,-3.8919,-3.9333,-3.9885,-4.0438,-4.0513,-4.0714,-4.12,-4.1263,-4.1263,-4.1263,-4.1263,-4.1263,-4.1263,-4.0761,-4.0513,-4.0513,-3.9986,-3.9697,-3.9697,-3.9697,-3.9697,-3.9697,-3.9697,-3.9697,-3.9697,-3.9697,-4.0275,-4.125,-4.0752,-4.0513,-4.0475,-3.9936,-3.9697,-3.9697,-3.9697,-3.9697,-3.9747,-4.03,-4.0513,-4.0576,-4.1075,-4.0937,-4.0513,-4.0513,-4.0162,-3.9697,-3.9697,-3.9697,-3.9697,-3.9697,-3.9697,-3.9697,-3.9697,-3.9697,-3.9697,-3.9697,-3.9697,-3.9697,-3.9697,-3.9697,-3.9697,-3.9697,-3.9697,-3.9697,-3.9697,-3.8518,-3.7026,-3.5563,-3.4069,-3.2587,-3.1112,-3.0889,-3.1441,-3.2907,-3.1392,-2.9863,-2.9014,-2.8916,-2.874,-2.833,-2.8291,-2.8291,-2.8291,-2.8291,-2.8291,-2.8291,-2.8291,-2.8096,-2.7728,-2.7236,-2.6807,-2.6396,-2.5947,-2.5693,-2.5693,-2.5693,-2.5693,-3.6668,-3.5254,-3.4236,-3.4625,-3.5429,-3.6408,-3.7513,-3.7889,-3.8278,-3.9245,-3.9007,-3.8617,-3.8617,-3.8755,-3.8919,-3.8919,-3.9333,-3.9747,-3.991,-3.9936,-3.9998,-4.0162,-4.0174,-4.0174,-4.0174,-4.0174,-4.0174,-4.0174,-4.0036,-3.9936,-3.9936,-3.9785,-3.9697,-3.9697,-3.9697,-3.9697,-3.9697,-3.9697,-3.9697,-3.9697,-3.9697,-3.9873,-4.0174,-4.0011,-3.9936,-3.9936,-3.9772,-3.9697,-3.9697,-3.9697,-3.9697,-3.9747,-4.03,-4.0513,-4.0576,-4.1075,-4.0937,-4.0513,-4.0513,-4.0162,-3.9697,-3.9697,-3.9697,-3.9697,-3.9697,-3.9697,-3.9697,-3.9697,-3.9697,-3.9697,-3.9697,-3.9697,-3.9697,-3.9697,-3.9697,-3.9697,-3.9697,-3.9697,-3.9697,-3.9697,-3.7648,-3.5836,-3.5409,-3.3201,-3.1383,-3.0947,-3.0889,-3.0936,-3.104,-3.0017,-2.9199,-2.8945,-2.8662,-2.8428,-2.8301,-2.8291,-2.8291,-2.8291,-2.8291,-2.8291,-2.8291,-2.8291,-2.8232,-2.8105,-2.7383,-2.6953,-2.6826,-2.6094,-2.5693,-2.5693,-2.5693,-2.5693,-3.6468,-3.5221,-3.4462,-3.5454,-3.6031,-3.6757,-3.804,-3.8517,-3.8868,-3.9546,-3.9258,-3.8919,-3.8919,-3.8919,-3.8919,-3.8919,-3.9333,-3.9697,-3.9697,-3.9697,-3.9697,-3.9697,-3.9697,-3.9697,-3.9697,-3.9697,-3.9697,-3.9697,-3.9697,-3.9697,-3.9697,-3.9697,-3.9697,-3.9697,-3.9697,-3.9697,-3.9697,-3.9697,-3.9697,-3.9697,-3.9697,-3.9697,-3.9697,-3.9697,-3.9697,-3.9697,-3.9697,-3.9697,-3.9697,-3.9697,-3.9697,-3.9722,-4.0061,-4.0187,-4.0224,-4.0563,-4.0475,-4.0187,-4.0187,-3.9973,-3.9697,-3.9697,-3.9697,-3.9697,-3.9697,-3.9697,-3.9697,-3.9697,-3.9697,-3.9697,-3.9697,-3.9697,-3.9697,-3.9697,-3.9697,-3.9697,-3.9697,-3.9697,-3.953,-3.8908,-3.693,-3.5123,-3.4515,-3.2493,-3.0889,-3.0889,-3.0732,-3.0518,-3.0234,-2.96,-2.9111,-2.8935,-2.8691,-2.8476,-2.8301,-2.8291,-2.8291,-2.8291,-2.8291,-2.8291,-2.8291,-2.8291,-2.8291,-2.8291,-2.7451,-2.7012,-2.7012,-2.6103,-2.5693,-2.5693,-2.5693,-2.5693,-3.6989,-3.5872,-3.5056,-3.6553,-3.6691,-3.6889,-3.858,-3.9333,-3.9697,-3.9697,-3.9295,-3.8994,-3.8994,-3.8994,-3.8994,-3.8994,-3.9371,-3.9697,-3.9697,-3.9697,-3.9697,-3.9697,-3.9697,-3.9697,-3.9697,-3.9697,-3.9697,-3.9697,-3.9697,-3.9697,-3.9697,-3.9697,-3.9697,-3.9697,-3.9697,-3.9697,-3.9697,-3.9697,-3.9697,-3.9697,-3.9697,-3.9697,-3.9697,-3.9697,-3.9697,-3.9697,-3.9697,-3.9697,-3.9697,-3.9697,-3.9697,-3.9697,-3.9697,-3.9697,-3.9697,-3.9697,-3.9697,-3.9697,-3.9697,-3.9697,-3.9697,-3.9697,-3.9697,-3.9697,-3.9697,-3.9697,-3.9697,-3.9697,-3.9697,-3.9697,-3.9697,-3.9697,-3.9697,-3.9697,-3.9697,-3.9697,-3.9697,-3.9581,-3.9077,-3.7743,-3.6217,-3.4681,-3.335,-3.1872,-3.0889,-3.0889,-3.0459,-3.0137,-3.0137,-2.9736,-2.9297,-2.8906,-2.8867,-2.8711,-2.833,-2.8291,-2.8291,-2.8291,-2.8291,-2.8291,-2.8291,-2.8291,-2.8291,-2.8291,-2.749,-2.7051,-2.7012,-2.6152,-2.5732,-2.5693,-2.5693,-2.5693,-3.6199,-3.5267,-3.4728,-3.4836,-3.5711,-3.7052,-3.9052,-3.9609,-3.9697,-3.9697,-3.9597,-3.9521,-3.9521,-3.9521,-3.9521,-3.9521,-3.9622,-3.9697,-3.9697,-3.9697,-3.9697,-3.9697,-3.9697,-3.9697,-3.9697,-3.9697,-3.9697,-3.9697,-3.9697,-3.9697,-3.9697,-3.9697,-3.9697,-3.9697,-3.9697,-3.9697,-3.9697,-3.9697,-3.9697,-3.9697,-3.9697,-3.9697,-3.9697,-3.9697,-3.9697,-3.9697,-3.9697,-3.9697,-3.9697,-3.9697,-3.9697,-3.9697,-3.9697,-3.9697,-3.9697,-3.9697,-3.9697,-3.9697,-3.9697,-3.9697,-3.9697,-3.9697,-3.9697,-3.9697,-3.9697,-3.9697,-3.9697,-3.9697,-3.9697,-3.9697,-3.9697,-3.9697,-3.9697,-3.9697,-3.9697,-3.9697,-3.9697,-3.8804,-3.7849,-3.7571,-3.5376,-3.3462,-3.3124,-3.1872,-3.0889,-3.0889,-3.0215,-2.9707,-2.9707,-2.9043,-2.8525,-2.8437,-2.8428,-2.8389,-2.8301,-2.8291,-2.8291,-2.8291,-2.8291,-2.8291,-2.8291,-2.8291,-2.8291,-2.8291,-2.7793,-2.7363,-2.7012,-2.6494,-2.6074,-2.5693,-2.5693,-2.5693,-3.6681,-3.5869,-3.5551,-3.5915,-3.7039,-3.8383,-3.9454,-3.9697,-3.9697,-3.9697,-3.9697,-3.9697,-3.9697,-3.9697,-3.9697,-3.9697,-3.9697,-3.9697,-3.9697,-3.9697,-3.9697,-3.9697,-3.9697,-3.9697,-3.9697,-3.9697,-3.9697,-3.9697,-3.9697,-3.9697,-3.9697,-3.9697,-3.9697,-3.9697,-3.9697,-3.9697,-3.9697,-3.9697,-3.9697,-3.9697,-3.9697,-3.9697,-3.9697,-3.9697,-3.9697,-3.9697,-3.9697,-3.9697,-3.9697,-3.9697,-3.9697,-3.9697,-3.9697,-3.9697,-3.9697,-3.9697,-3.9697,-3.9697,-3.9697,-3.9697,-3.9697,-3.9697,-3.9697,-3.9697,-3.9697,-3.9697,-3.9697,-3.9697,-3.9697,-3.9697,-3.9697,-3.9697,-3.9697,-3.9697,-3.9697,-3.953,-3.8804,-3.8019,-3.7079,-3.5649,-3.417,-3.2861,-3.215,-3.1383,-3.081,-3.0596,-2.999,-2.9492,-2.9287,-2.8691,-2.8291,-2.8291,-2.8291,-2.8291,-2.8291,-2.8291,-2.8291,-2.8291,-2.8291,-2.8291,-2.8291,-2.8291,-2.8291,-2.8291,-2.7676,-2.7236,-2.7012,-2.6387,-2.5967,-2.5693,-2.5693,-2.5693,-3.7881,-3.6972,-3.6644,-3.7695,-3.8692,-3.9413,-3.9633,-3.9697,-3.9697,-3.9697,-3.9697,-3.9697,-3.9697,-3.9697,-3.9697,-3.9697,-3.9697,-3.9697,-3.9697,-3.9609,-3.9584,-3.9685,-3.9609,-3.9584,-3.9685,-3.9697,-3.9697,-3.9697,-3.9697,-3.9697,-3.9697,-3.9697,-3.9697,-3.9697,-3.9697,-3.9697,-3.9697,-3.9697,-3.9697,-3.9697,-3.9697,-3.9697,-3.9697,-3.9697,-3.9697,-3.9697,-3.9697,-3.9697,-3.9697,-3.9697,-3.9697,-3.9697,-3.9697,-3.9697,-3.9697,-3.9697,-3.9697,-3.9697,-3.9697,-3.9697,-3.9697,-3.9697,-3.9697,-3.9697,-3.9697,-3.9697,-3.9697,-3.9697,-3.9697,-3.9697,-3.9697,-3.9697,-3.9697,-3.9697,-3.9697,-3.931,-3.7796,-3.7079,-3.6031,-3.3575,-3.2907,-3.2311,-3.1112,-3.0889,-3.0762,-3.0371,-2.9893,-2.9443,-2.9082,-2.8594,-2.8291,-2.8291,-2.8291,-2.8291,-2.8291,-2.8291,-2.8291,-2.8291,-2.8291,-2.8291,-2.8291,-2.8291,-2.8291,-2.8291,-2.7529,-2.709,-2.7012,-2.623,-2.5762,-2.5693,-2.5693,-2.5693,-3.9562,-3.8092,-3.6799,-3.7776,-3.7878,-3.8137,-3.9413,-3.9697,-3.9697,-3.9697,-3.9697,-3.9697,-3.9697,-3.9697,-3.9697,-3.9697,-3.9697,-3.9697,-3.9697,-3.9283,-3.9157,-3.9634,-3.927,-3.917,-3.9647,-3.9697,-3.9697,-3.9697,-3.9697,-3.9697,-3.9697,-3.9697,-3.9697,-3.9697,-3.9697,-3.9697,-3.9697,-3.9697,-3.9697,-3.9697,-3.9697,-3.9697,-3.9697,-3.9697,-3.9697,-3.9697,-3.9697,-3.9697,-3.9697,-3.9697,-3.9697,-3.9697,-3.9697,-3.9697,-3.9697,-3.9697,-3.9697,-3.9697,-3.9697,-3.9697,-3.9697,-3.9697,-3.9697,-3.9697,-3.9697,-3.9697,-3.9697,-3.9697,-3.9697,-3.9697,-3.9697,-3.9697,-3.9697,-3.9697,-3.9697,-3.931,-3.7796,-3.5485,-3.3575,-3.3191,-3.2092,-3.1112,-3.0947,-3.0889,-3.0869,-3.081,-3.0098,-2.9607,-2.9492,-2.8789,-2.8291,-2.8291,-2.8291,-2.8291,-2.8291,-2.8291,-2.8291,-2.8291,-2.8291,-2.8291,-2.8291,-2.8291,-2.8291,-2.8291,-2.7822,-2.7393,-2.7012,-2.6533,-2.6103,-2.5693,-2.5693,-2.5693,-4.0691,-3.8964,-3.7651,-3.8746,-3.8667,-3.8539,-3.9454,-3.9697,-3.9597,-3.9295,-3.9233,-3.9233,-3.9233,-3.9233,-3.9132,-3.8806,-3.8755,-3.8755,-3.8755,-3.8542,-3.8479,-3.8718,-3.853,-3.8605,-3.9182,-3.9233,-3.9371,-3.9672,-3.9697,-3.9697,-3.9697,-3.9697,-3.9697,-3.9697,-3.9697,-3.9697,-3.9697,-3.9697,-3.9697,-3.9697,-3.9697,-3.9697,-3.9697,-3.9697,-3.9697,-3.9697,-3.9697,-3.9697,-3.9697,-3.9697,-3.9697,-3.9697,-3.9697,-3.9697,-3.9697,-3.9697,-3.9697,-3.9697,-3.9697,-3.9697,-3.9697,-3.9697,-3.9697,-3.9697,-3.9697,-3.9697,-3.9697,-3.9697,-3.9697,-3.9697,-3.9697,-3.9697,-3.9697,-3.9697,-3.8425,-3.7049,-3.6433,-3.5222,-3.3856,-3.2207,-3.1325,-3.0889,-3.0889,-3.0674,-3.042,-3.0185,-2.9609,-2.9121,-2.8887,-2.8525,-2.8291,-2.8291,-2.8291,-2.8291,-2.8291,-2.8291,-2.8291,-2.8291,-2.8291,-2.8291,-2.8291,-2.8291,-2.8291,-2.8291,-2.7637,-2.7207,-2.7012,-2.6348,-2.5879,-2.5693,-2.5693,-2.5693,-4.1403,-3.986,-3.8922,-3.9887,-3.9586,-3.922,-3.9779,-3.9828,-3.9584,-3.917,-3.8969,-3.8831,-3.868,-3.8655,-3.8504,-3.8078,-3.8002,-3.8002,-3.8002,-3.7889,-3.7852,-3.799,-3.7889,-3.8078,-3.8856,-3.8919,-3.9094,-3.9647,-3.9697,-3.9697,-3.9697,-3.9697,-3.9697,-3.9697,-3.9697,-3.9697,-3.9697,-3.9697,-3.9697,-3.9697,-3.9697,-3.9697,-3.9697,-3.9697,-3.9697,-3.9697,-3.9697,-3.9697,-3.9697,-3.9697,-3.9697,-3.9697,-3.9697,-3.9697,-3.9697,-3.9697,-3.9697,-3.9697,-3.9697,-3.9697,-3.9697,-3.9697,-3.9697,-3.9697,-3.9697,-3.9697,-3.9697,-3.9697,-3.9697,-3.9697,-3.9697,-3.9413,-3.9129,-3.9129,-3.7156,-3.5068,-3.4359,-3.4191,-3.354,-3.1334,-3.0889,-3.0889,-3.0889,-3.0605,-3.0264,-2.9951,-2.9434,-2.8975,-2.8662,-2.8428,-2.8291,-2.8291,-2.8291,-2.8291,-2.8291,-2.8291,-2.8291,-2.8291,-2.8291,-2.8291,-2.8291,-2.8291,-2.8291,-2.8291,-2.7559,-2.7129,-2.7012,-2.622,-2.5801,-2.5693,-2.5693,-2.5693,-4.157,-4.0909,-4.0705,-4.0879,-4.0267,-3.976,-4.0411,-4.0131,-3.9685,-3.9659,-3.9233,-3.8705,-3.8153,-3.8052,-3.804,-3.8015,-3.8002,-3.8002,-3.8002,-3.755,-3.7425,-3.7939,-3.755,-3.7663,-3.8806,-3.8919,-3.9094,-3.9647,-3.9697,-3.9697,-3.9697,-3.9697,-3.9697,-3.9697,-3.9697,-3.9697,-3.9697,-3.9697,-3.9697,-3.9697,-3.9697,-3.9697,-3.9697,-3.9697,-3.9697,-3.9697,-3.9697,-3.9697,-3.9697,-3.9697,-3.9697,-3.9697,-3.9697,-3.9697,-3.9697,-3.9697,-3.9697,-3.9697,-3.9697,-3.9697,-3.9697,-3.9697,-3.9697,-3.9697,-3.9697,-3.9697,-3.9697,-3.9697,-3.9697,-3.9697,-3.9697,-3.8635,-3.7624,-3.7624,-3.6433,-3.4526,-3.172,-3.1112,-3.1054,-3.0947,-3.0889,-3.0889,-3.0889,-3.0869,-3.085,-3.083,-3.0088,-2.9587,-2.9567,-2.8789,-2.8291,-2.8291,-2.8291,-2.8291,-2.8291,-2.8291,-2.8291,-2.8291,-2.8291,-2.8291,-2.8291,-2.8291,-2.8291,-2.8291,-2.7861,-2.7432,-2.7012,-2.6572,-2.6143,-2.5693,-2.5693,-2.5693,-4.3218,-4.2134,-4.1109,-4.1362,-4.0969,-4.052,-4.0526,-4.0399,-4.0197,-3.9835,-3.8976,-3.814,-3.7575,-3.7475,-3.7362,-3.701,-3.6948,-3.6948,-3.6948,-3.6832,-3.6782,-3.6923,-3.7086,-3.7487,-3.8241,-3.8655,-3.9474,-4.0792,-4.0173,-4.0083,-4.0882,-4.0121,-3.9697,-3.9697,-3.9697,-3.9697,-3.9697,-3.9697,-3.9697,-3.9697,-3.9697,-3.9697,-3.9697,-3.9697,-3.9697,-3.9697,-3.9697,-3.9697,-3.9697,-3.9697,-3.9697,-3.9697,-3.9697,-3.9697,-3.9697,-3.9697,-3.9697,-3.9697,-3.9697,-3.9697,-3.9697,-3.9697,-3.9697,-3.9697,-3.9697,-3.9697,-3.9697,-3.9697,-3.9697,-3.9465,-3.8518,-3.7914,-3.7026,-3.5101,-3.4281,-3.336,-3.1334,-3.0889,-3.0889,-3.0889,-3.0889,-3.0889,-3.0889,-3.0644,-3.0449,-3.0449,-2.9707,-2.915,-2.915,-2.8652,-2.8291,-2.8291,-2.8291,-2.8291,-2.8291,-2.8291,-2.8291,-2.8291,-2.8291,-2.8291,-2.8291,-2.8291,-2.8291,-2.8291,-2.8144,-2.7725,-2.7012,-2.6592,-2.6162,-2.5693,-2.5693,-2.5693,-4.4278,-4.3183,-4.2066,-4.2777,-4.1914,-4.1038,-4.1497,-4.1064,-4.0602,-4.0676,-3.959,-3.8564,-3.8421,-3.7904,-3.7211,-3.6531,-3.6405,-3.6405,-3.6405,-3.6568,-3.6681,-3.6681,-3.7123,-3.7676,-3.8241,-3.8642,-3.9474,-4.0843,-4.0173,0.0,-4.0932,-4.0173,-3.9697,-3.9697,-3.9697,-3.9697,-3.9697,-3.9697,-3.9697,-3.9697,-3.9697,-3.9697,-3.9697,-3.9697,-3.9697,-3.9697,-3.9697,-3.9697,-3.9697,-3.9697,-3.9697,-3.9697,-3.9697,-3.9697,-3.9697,-3.9697,-3.9697,-3.9697,-3.9697,-3.9697,-3.9722,-3.991,-3.9973,-3.9973,-3.9973,-3.9973,-3.9973,-3.9973,-3.9973,-3.974,-3.8733,-3.7661,-3.6042,-3.3077,-3.2369,-3.2092,-3.1112,-3.0889,-3.0889,-3.0889,-3.0889,-3.0889,-3.0889,-3.0635,-3.043,-3.043,-2.9814,-2.9346,-2.9346,-2.8857,-2.8506,-2.8506,-2.8379,-2.8291,-2.8291,-2.8291,-2.8291,-2.8291,-2.8291,-2.8291,-2.8291,-2.8291,-2.8291,-2.8291,-2.8291,-2.7871,-2.7012,-2.6738,-2.6299,-2.5693,-2.5693,-2.5693,0.0,0.0,0.0,-4.4988,-4.3101,-4.142,-4.3354,-4.2109,-4.0911,-4.2242,-4.1106,-4.0034,-4.0724,-3.9316,-3.77,-3.6666,-3.6455,-3.6455,-3.6455,-3.692,-3.7211,-3.7211,-3.7701,-3.8253,-3.8818,-3.8881,-3.917,-3.9698,-3.9749,-3.9749,-3.9736,-3.9749,-3.9697,-3.9697,-3.9697,-3.9697,-3.9697,-3.9697,-3.9697,-3.9697,-3.9697,-3.9697,-3.9697,-3.9697,-3.9697,-3.9697,-3.9697,-3.9697,-3.9697,-3.9697,-3.9697,-3.9697,-3.9697,-3.9697,-3.9697,-3.9697,-3.9697,-3.9697,-3.971,-3.9722,-3.981,-4.0362,-4.0538,-4.0538,-4.0538,-4.0538,-4.0538,-4.0538,-4.0538,-4.0485,-4.0433,-3.7851,-3.4547,-3.1624,-3.0898,-3.0889,-3.0889,-3.0889,-3.0889,-3.0889,-3.0889,-3.0889,-3.0889,-3.0889,-3.0889,-3.0889,-3.0498,-3.0195,-3.0195,-2.9443,-2.8916,-2.8916,-2.8545,-2.8291,-2.8291,-2.8291,-2.8291,-2.8291,-2.8291,-2.8291,-2.8291,-2.8291,-2.8291,-2.8291,-2.8291,-2.7871,-2.7031,-2.7021,-2.6572,-2.5693,-2.5693,-2.5693,-4.4615,0.0,0.0,0.0,0.0,0.0,0.0,-4.2259,-4.1753,-4.3104,-4.1799,-4.0791,-4.1947,-4.0661,-3.9268,-3.9003,-3.8143,-3.755,-3.755,-3.7688,-3.7776,-3.7776,-3.8278,-3.8693,-3.8906,-3.9233,-3.9905,0.0,-4.0224,-4.007,-4.1032,-4.0224,-3.9697,-3.9697,-3.9697,-3.9697,-3.9697,-3.9697,-3.9697,-3.9697,-3.9697,-3.9697,-3.9697,-3.9697,-3.9697,-3.9697,-3.9697,-3.9697,-3.9697,-3.9697,-3.9697,-3.9697,-3.9697,-3.9697,-3.9697,-3.9697,-3.9697,-3.9747,-4.0149,-4.0287,-4.0375,-4.0874,-4.1062,-4.1062,-4.1062,-4.1062,-4.1062,-4.1062,-4.1062,-4.0542,-3.831,-3.6004,-3.38,-3.179,-3.1113,-3.0889,-3.0889,-3.0889,-3.0889,-3.0889,-3.0889,-3.0889,-3.0889,-3.0889,-3.0889,-3.0889,-3.0498,-3.0195,-3.0195,-2.9443,-2.8916,-2.8916,-2.8545,-2.8291,-2.8291,-2.8291,-2.8291,-2.8291,-2.8291,-2.8291,-2.8291,-2.8291,-2.8291,-2.8291,-2.8291,-2.8027,-2.748,-2.7168,-2.6572,-2.5693,-2.5693,-2.5693,-4.4615,-4.4615,-4.4553,-4.4361,0.0,0.0,-4.4367,-4.3554,-4.3162,-4.4818,-4.3811,-4.2808,-4.3441,-4.2485,-4.1251,-4.0336,-3.9813,-3.9151,-3.8164,-3.8216,-3.8366,-3.8366,-3.8868,-3.922,-3.922,-3.9509,-4.0032,-4.0743,-4.0121,-4.0032,-4.0794,-4.007,-3.9697,-3.9697,-3.9697,-3.9697,-3.9697,-3.9697,-3.9697,-3.9697,-3.9697,-3.9697,-3.9697,-3.9697,-3.9697,-3.9697,-3.9697,-3.9697,-3.9697,-3.9697,-3.9697,-3.9697,-3.9697,-3.9697,-3.9697,-3.9697,-3.9697,-3.9772,-4.0325,-4.0513,-4.0639,-4.143,-4.1681,-4.1681,-4.1681,-4.1681,-4.1681,-4.1681,-4.1221,-4.0115,-3.7691,-3.5454,-3.3422,-3.185,-3.1201,-3.0889,-3.0889,-3.0889,-3.0889,-3.0889,-3.0889,-3.0889,-3.0889,-3.0889,-3.0889,-3.0889,-3.0664,-3.0488,-3.0488,-2.9726,-2.9189,-2.9189,-2.8652,-2.8291,-2.8291,-2.8291,-2.8291,-2.8291,-2.8291,-2.8291,-2.8291,-2.8291,-2.8291,-2.8291,-2.8291,-2.7998,-2.7393,-2.7139,-2.6572,-2.5693,-2.5693,-2.5693,-4.457,-4.4615,-4.4767,-4.5415,-4.4491,0.0,-4.5839,-4.5098,-4.4597,-4.6564,-4.6024,-4.5118,-4.4966,-4.4431,-4.3316,-4.1174,-4.1434,-4.0995,-3.8552,-3.8642,-3.9007,-3.9007,-3.9396,-3.9697,-3.9697,-3.9697,-3.9697,-3.9697,-3.9697,-3.9697,-3.9697,-3.9697,-3.9697,-3.9697,-3.9697,-3.9697,-3.9697,-3.9697,-3.9697,-3.9697,-3.9697,-3.9697,-3.9697,-3.9697,-3.9697,-3.9697,-3.9697,-3.9697,-3.9697,-3.9697,-3.9697,-3.9697,-3.9697,-3.9697,-3.9697,-3.9697,-3.9735,-3.986,-4.0337,-4.0588,-4.0865,-4.1886,-4.225,-4.2246,-4.2068,-4.2013,-4.2013,-4.1835,-4.0728,-3.9264,-3.7807,-3.5631,-3.3437,-3.1929,-3.123,-3.0889,-3.0889,-3.0889,-3.0889,-3.0889,-3.0889,-3.0889,-3.0889,-3.0889,-3.0889,-3.0889,-3.0889,-3.0889,-3.0889,-3.0117,-2.9626,-2.9626,-2.8799,-2.8291,-2.8291,-2.8291,-2.8291,-2.8291,-2.8291,-2.8291,-2.8291,-2.8291,-2.8291,-2.8291,-2.8252,-2.7822,-2.7012,-2.6924,-2.6484,-2.5693,-2.5693,-2.5693,-4.4412,-4.4615,-4.4632,-4.4784,-4.4587,0.0,-4.4865,-4.4182,-4.3868,-4.5294,-4.4891,-4.4535,-4.5531,-4.5241,-4.4313,-4.2558,-4.2953,-4.2507,-3.9728,-3.9459,-3.9534,-3.9534,-3.9634,-3.9697,-3.9697,-3.9697,-3.9697,-3.9697,-3.9697,-3.9697,-3.9697,-3.9697,-3.9697,-3.9697,-3.9697,-3.9697,-3.9697,-3.9697,-3.9697,-3.9697,-3.9697,-3.9697,-3.9697,-3.9697,-3.9697,-3.9697,-3.9697,-3.9697,-3.9697,-3.9697,-3.9697,-3.9697,-3.9697,-3.9697,-3.9697,-3.9697,-3.9973,-4.0375,-4.0475,-4.1091,-4.1923,-4.2137,-4.2514,-4.2575,-4.1331,-4.0908,-4.0622,-3.9313,-3.8728,-3.8137,-3.657,-3.5227,-3.3962,-3.2444,-3.1455,-3.0889,-3.0889,-3.0889,-3.0889,-3.0889,-3.0889,-3.0889,-3.0889,-3.0889,-3.0889,-3.0889,-3.0889,-3.0889,-3.0889,-3.0117,-2.9626,-2.9626,-2.8799,-2.8291,-2.8291,-2.8291,-2.8291,-2.8291,-2.8291,-2.8291,-2.8291,-2.8291,-2.8291,-2.8291,-2.7959,-2.7529,-2.7012,-2.6328,-2.5849,-2.5693,-2.5693,-2.5693,-4.371,-4.3948,-4.4064,-4.4485,-4.4615,0.0,0.0,-4.4807,-4.477,-4.5807,-4.5667,-4.5454,-4.5615,-4.5701,-4.5236,-4.3632,-4.4323,-4.4167,-4.1659,-4.0936,-4.0415,-3.9788,-3.9697,-3.9697,-3.9697,-3.9697,-3.9697,-3.9697,-3.9697,-3.9697,-3.9697,-3.9697,-3.9697,-3.9697,-3.9697,-3.9697,-3.9697,-3.9697,-3.9697,-3.9697,-3.9697,-3.9697,-3.9697,-3.9697,-3.9697,-3.9697,-3.9697,-3.9697,-3.9697,-3.9697,-3.9697,-3.9697,-3.9697,-3.9697,-3.9697,-3.9697,-4.0036,-4.0563,-4.0827,-4.1467,-4.225,-4.2527,-4.2221,-4.1659,-4.0834,-4.0059,-3.9229,-3.8461,-3.7615,-3.6831,-3.5979,-3.4601,-3.3135,-3.2401,-3.1514,-3.0889,-3.0889,-3.0889,-3.0889,-3.0889,-3.0889,-3.0889,-3.0889,-3.0889,-3.0889,-3.0889,-3.0889,-3.0889,-3.0889,-3.0117,-2.9626,-2.9626,-2.8799,-2.8291,-2.8291,-2.8291,-2.8291,-2.8291,-2.8291,-2.8291,-2.8291,-2.8291,-2.8291,-2.8291,-2.7666,-2.7236,-2.7012,-2.6103,-2.5693,-2.5693,-2.5693,-2.5693,-4.2816,-4.3047,-4.3229,-4.3931,-4.4224,-4.4524,0.0,0.0,0.0,0.0,0.0,0.0,0.0,0.0,0.0,-4.4181,0.0,0.0,0.0,-4.2576,0.0,-4.0412,-4.016,-4.0083,-4.0083,-3.9738,-3.9584,-3.9685,-3.9597,-3.9584,-3.9685,-3.9697,-3.9697,-3.9697,-3.9697,-3.9697,-3.9697,-3.9697,-3.9697,-3.9697,-3.9697,-3.9697,-3.9697,-3.9697,-3.9697,-3.9697,-3.9697,-3.9697,-3.9697,-3.9697,-3.9697,-3.9697,-3.9697,-3.9697,-3.9697,-3.9697,-4.0111,-4.0727,-4.1012,-4.1681,-4.2426,-4.2766,-4.1643,-4.0117,-4.0117,-3.8817,-3.7265,-3.7265,-3.6356,-3.5324,-3.5324,-3.38,-3.2229,-3.2229,-3.1514,-3.0889,-3.0889,-3.0889,-3.0889,-3.0889,-3.0889,-3.0889,-3.0889,-3.0889,-3.0889,-3.0889,-3.0889,-3.0889,-3.0889,-3.0117,-2.9626,-2.9626,-2.8799,-2.8291,-2.8291,-2.8291,-2.8291,-2.8291,-2.8291,-2.8291,-2.8291,-2.8291,-2.8291,-2.8291,-2.7529,-2.7139,-2.7139,-2.6357,-2.5849,-2.5693,-2.5693,-2.5693,0.0,0.0,0.0,0.0,-4.2878,-4.3459,0.0,0.0,-4.475,-4.4835,0.0,0.0,0.0,0.0,0.0,0.0,0.0,0.0,-4.3464,-4.4035,-4.4081,-4.2397,-4.1714,-4.1356,-4.1356,-3.9916,-3.917,-3.9659,-3.9245,-3.9182,-3.9672,-3.9697,-3.9697,-3.9697,-3.9697,-3.9697,-3.9697,-3.9697,-3.9697,-3.9697,-3.9697,-3.9697,-3.9697,-3.9697,-3.9697,-3.9697,-3.9697,-3.9697,-3.9697,-3.9697,-3.9697,-3.9697,-3.9697,-3.9697,-3.9697,-3.9697,-4.035,-4.1125,-4.0752,-4.1605,-4.2811,-4.2439,-4.0566,-3.8461,-3.8461,-3.6367,-3.3965,-3.3965,-3.3839,-3.366,-3.366,-3.2917,-3.2229,-3.2229,-3.1514,-3.0889,-3.0889,-3.0889,-3.0889,-3.0889,-3.0889,-3.0889,-3.0889,-3.0889,-3.0889,-3.0889,-3.0889,-3.0889,-3.0889,-3.0117,-2.9626,-2.9626,-2.8799,-2.8291,-2.8291,-2.8291,-2.8291,-2.8291,-2.8291,-2.8291,-2.8291,-2.8291,-2.8291,-2.8291,-2.7832,-2.7598,-2.764,-2.7109,-2.6484,-2.5693,-2.5693,-2.5693,0.0,0.0,0.0,0.0,0.0,0.0,-4.3306,0.0,-4.4615,0.0,0.0,0.0,0.0,0.0,0.0,0.0,-4.5778,0.0,0.0,0.0,-4.5575,0.0,0.0,0.0,-4.2134,-4.1445,-4.0935,-4.0792,-4.0214,-3.9813,-3.9711,-3.9697,-3.9697,-3.9697,-3.9697,-3.9697,-3.9697,-3.9697,-3.9697,-3.9697,-3.9697,-3.9697,-3.9697,-3.9697,-3.9697,-3.9697,-3.9697,-3.9697,-3.9697,-3.9697,-3.9697,-3.9697,-3.9697,-3.9697,-3.9697,-3.9697,-4.0388,-4.125,-4.1025,-4.1869,-4.2644,-4.0571,-3.9115,-3.7865,-3.6011,-3.4445,-3.3418,-3.3418,-3.3418,-3.3418,-3.3418,-3.2978,-3.2471,-3.2287,-3.1699,-3.1182,-3.0947,-3.0889,-3.0889,-3.0889,-3.0889,-3.0889,-3.0889,-3.0889,-3.0889,-3.0889,-3.0889,-3.0889,-3.0889,-3.0332,-2.9834,-2.96,-2.9023,-2.8555,-2.831,-2.8291,-2.8291,-2.8291,-2.8291,-2.8291,-2.8291,-2.8291,-2.8291,-2.8291,-2.7881,-2.7718,-2.7718,-2.7226,-2.6826,-2.6475,-2.623,-2.5977,-4.0185,0.0,0.0,0.0,0.0,0.0,0.0,0.0,0.0,0.0,0.0,0.0,0.0,0.0,0.0,0.0,0.0,-4.6022,0.0,-4.6376,0.0,0.0,0.0,0.0,0.0,-4.2458,-4.2254,-4.2115,-4.1341,-4.068,-4.0224,-4.0224,-4.0083,-3.9697,-3.9697,-3.9697,-3.9697,-3.9697,-3.9697,-3.9697,-3.9697,-3.9697,-3.9697,-3.9697,-3.9697,-3.9697,-3.9697,-3.9697,-3.9697,-3.9697,-3.9697,-3.9697,-3.9697,-3.9697,-3.9697,-3.9697,-4.0388,-4.1288,-4.1288,-4.2057,-4.2557,-3.9756,-3.858,-3.7675,-3.4922,-3.3776,-3.3418,-3.3418,-3.3418,-3.3418,-3.3418,-3.3105,-3.2725,-3.2412,-3.1914,-3.1435,-3.1133,-3.0976,-3.0889,-3.0889,-3.0889,-3.0889,-3.0889,-3.0889,-3.0889,-3.0889,-3.0889,-3.0889,-3.0889,-3.0488,-3.0039,-2.9619,-2.918,-2.875,-2.833,-2.8291,-2.8291,-2.8291,-2.8291,-2.8291,-2.8291,-2.8291,-2.8291,-2.8291,-2.7988,-2.7832,-2.7832,-2.7519,-2.7305,-2.7178,-2.6758,-2.6328,0.0,0.0,0.0,-3.9481,0.0,0.0,0.0,0.0,-4.3591,0.0,0.0,0.0,0.0,0.0,0.0,0.0,0.0,0.0,0.0,0.0,0.0,0.0,0.0,0.0,0.0,-4.2412,-4.2219,0.0,-4.2352,-4.1657,-4.1538,-4.1555,-4.0982,-3.9736,-3.9697,-3.9697,-3.9697,-3.9697,-3.9697,-3.9697,-3.9697,-3.9697,-3.9697,-3.9697,-3.9697,-3.9697,-3.9697,-3.9697,-3.9697,-3.9697,-3.9697,-3.9697,-3.9697,-3.9697,-3.9697,-3.9697,-4.0388,-4.1288,-4.1288,-4.2057,-4.2737,-4.1064,-3.9464,-3.7865,-3.6223,-3.4612,-3.3418,-3.3418,-3.3418,-3.3418,-3.3418,-3.3105,-3.2793,-3.2773,-3.2129,-3.1514,-3.1504,-3.1172,-3.0889,-3.0889,-3.0889,-3.0889,-3.0889,-3.0889,-3.0889,-3.0889,-3.0889,-3.0889,-3.0889,-3.0488,-3.0039,-2.9619,-2.918,-2.875,-2.833,-2.8291,-2.8291,-2.8291,-2.8291,-2.8291,-2.8291,-2.8291,-2.8291,-2.8291,-2.8281,-2.8271,-2.8271,-2.8262,-2.8047,-2.7689,-2.7197,-2.6768,0.0,0.0,-3.9388,-3.9388,0.0,0.0,0.0,0.0,0.0,0.0,0.0,0.0,0.0,0.0,0.0,0.0,0.0,0.0,0.0,0.0,0.0,0.0,0.0,0.0,0.0,0.0,0.0,-4.4172,-4.374,0.0,-4.2889,-4.207,-4.1406,-4.0982,-4.0121,-3.9697,-3.9697,-3.9697,-3.9697,-3.9697,-3.9697,-3.9697,-3.9697,-3.9697,-3.9697,-3.9697,-3.9697,-3.9697,-3.9697,-3.9697,-3.9697,-3.9697,-3.9697,-3.9697,-3.9735,-4.0111,-4.0701,-4.1388,-4.217,-4.2672,-4.2557,-3.9884,-3.8639,-3.7686,-3.5036,-3.3839,-3.3418,-3.3418,-3.3418,-3.3418,-3.3418,-3.331,-3.3135,-3.2861,-3.2568,-3.2207,-3.1641,-3.1406,-3.1221,-3.0947,-3.0889,-3.0889,-3.0889,-3.0889,-3.0889,-3.0889,-3.0889,-3.0889,-3.0889,-3.0752,-3.0478,-3.0029,-2.9609,-2.918,-2.874,-2.8447,-2.8291,-2.8291,-2.8291,-2.8291,-2.8291,-2.8291,-2.8291,-2.8291,-2.8291,-2.8291,-2.8291,-2.8291,-2.8223,-2.8076,-2.793,-2.7334,-3.9388,-3.9388,0.0,-3.9388,-3.9829,0.0,-4.0622,0.0,-4.1835,0.0,0.0,0.0,0.0,0.0,0.0,0.0,0.0,0.0,0.0,-4.5229,0.0,0.0,0.0,0.0,0.0,0.0,-4.6377,-4.5508,-4.4763,-4.4295,0.0,-4.2978,-4.207,-4.1604,-4.0364,-3.9697,-3.9697,-3.9697,-3.9697,-3.9697,-3.9697,-3.9697,-3.9697,-3.9697,-3.9697,-3.9697,-3.9697,-3.9697,-3.9697,-3.9697,-3.9697,-3.9697,-3.9697,-3.9697,-3.976,-4.0312,-4.099,-4.1756,-4.266,-4.2974,-4.2444,-3.9229,-3.8223,-3.7626,-3.4383,-3.3418,-3.3418,-3.3418,-3.3418,-3.3418,-3.3418,-3.3418,-3.335,-3.3086,-3.29,-3.2607,-3.1894,-3.1631,-3.1396,-3.0976,-3.0889,-3.0889,-3.0889,-3.0889,-3.0889,-3.0889,-3.0889,-3.0889,-3.0889,-3.0889,-3.0713,-3.0244,-2.9824,-2.9336,-2.874,-2.8447,-2.8291,-2.8291,-2.8291,-2.8291,-2.8291,-2.8291,-2.8291,-2.8291,-2.8291,-2.8291,-2.8291,-2.8291,-2.8291,-2.8291,-2.8291,-2.7773]},{"header":{"parameterUnit":"m.s-1","parameterCategory":1,"la1":30.6,"la2":29.2853,"lo1":-89.7004,"lo2":-87.6739,"dy":0.0162,"dx":0.0183,"nx":112,"ny":82,"refTime":"2026-04-01T12:00:00:Z","depth":0,"parameterNumber":3,"parameterNumberName":"V-component_of_WINDS"},"data":[0.0,0.0,0.0,0.0,0.0,0.0,0.0,0.0,0.0,0.0,0.0,0.0,0.0,0.0,0.0,0.0,0.0,0.0,0.0,0.0,0.0,0.0,0.0,0.0,0.0,0.0,0.0,0.0,0.0,0.0,0.0,0.0,0.0,0.0,0.0,0.0,0.0,0.0,0.0,0.0,0.0,0.0,0.0,0.0,0.0,0.0,0.0,0.0,0.0,0.0,0.0,0.0,0.0,0.0,0.0,0.0,0.0,0.0,0.0,0.0,0.0,0.0,0.0,0.0,0.0,0.0,0.0,0.0,0.0,0.0,0.0,0.0,0.0,0.0,0.0,0.0,0.0,0.0,0.0,0.0,0.0,0.0,0.0,0.0,0.0,0.0,0.0,0.0,0.0,0.0,1.839,1.7971,1.6545,1.52,1.4038,1.2595,1.1604,1.1126,0.0,0.0,0.0,0.0,0.0,0.0,0.0,0.0,0.0,0.0,0.0,0.0,0.0,0.0,0.0,0.0,0.0,0.0,0.0,0.0,0.0,0.0,0.0,0.0,0.0,0.0,0.0,0.0,0.0,0.0,0.0,0.0,0.0,0.0,0.0,0.0,0.0,0.0,0.0,0.0,0.0,0.0,0.0,0.0,0.0,0.0,0.0,0.0,0.0,0.0,0.0,0.0,0.0,0.0,0.0,0.0,0.0,0.0,0.0,0.0,0.0,0.0,0.0,0.0,0.0,0.0,0.0,0.0,0.0,0.0,0.0,0.0,0.0,0.0,0.0,0.0,0.0,0.0,0.0,0.0,0.0,0.0,0.0,0.0,0.0,0.0,0.0,0.0,0.0,0.0,0.0,0.0,0.0,0.0,0.0,0.0,0.0,0.0,0.0,0.0,0.0,0.0,0.0,0.0,2.0644,1.9428,1.6988,1.5369,1.5148,1.3828,1.2469,1.1164,0.0,0.0,0.0,0.0,0.0,0.0,0.0,0.0,0.0,0.0,0.0,0.0,0.0,0.0,0.0,0.0,0.0,0.0,0.0,0.0,0.0,0.0,0.0,0.0,0.0,0.0,0.0,0.0,0.0,0.0,0.0,0.0,0.0,0.0,0.0,0.0,0.0,0.0,0.0,0.0,0.0,0.0,0.0,0.0,0.0,0.0,0.0,0.0,0.0,0.0,0.0,0.0,0.0,0.0,0.0,0.0,0.0,0.0,0.0,0.0,0.0,0.0,0.0,0.0,0.0,0.0,0.0,0.0,0.0,0.0,0.0,0.0,0.0,0.0,0.0,0.0,0.0,0.0,0.0,0.0,0.0,0.0,0.0,0.0,0.0,0.0,0.0,0.0,0.0,0.0,0.0,0.0,0.0,0.0,0.0,0.0,0.0,0.0,0.0,0.0,0.0,0.0,0.0,2.1296,2.1448,2.0794,1.8873,1.7358,1.6601,1.5239,1.4126,1.348,1.3518,0.0,0.0,0.0,0.0,0.0,0.0,0.0,0.0,0.0,0.0,0.0,0.0,0.0,0.0,0.0,0.0,0.0,0.0,0.0,0.0,0.0,0.0,0.0,0.0,0.0,0.0,0.0,0.0,0.0,0.0,0.0,0.0,0.0,0.0,0.0,0.0,0.0,0.0,0.0,0.0,0.0,0.0,0.0,0.0,0.0,0.0,0.0,0.0,0.0,0.0,0.0,0.0,0.0,0.0,0.0,0.0,0.0,0.0,0.0,0.0,0.0,0.0,0.0,0.0,0.0,0.0,0.0,0.0,0.0,0.0,0.0,0.0,0.0,0.0,0.0,0.0,0.0,0.0,0.0,0.0,0.0,0.0,0.0,0.0,0.0,0.0,0.0,0.0,0.0,0.0,0.0,0.0,0.0,0.0,0.0,0.0,0.0,0.0,0.0,0.0,0.0,0.0,2.2241,2.1978,2.2283,2.1067,1.9635,1.8123,1.7035,1.6103,1.5417,1.5743,0.0,0.0,0.0,0.0,0.0,0.0,0.0,0.0,0.0,0.0,0.0,0.0,0.0,0.0,0.0,0.0,0.0,0.0,0.0,0.0,0.0,0.0,0.0,0.0,0.0,0.0,0.0,0.0,0.0,0.0,0.0,0.0,0.0,0.0,0.0,0.0,0.0,0.0,0.0,0.0,0.0,0.0,0.0,0.0,0.0,0.0,0.0,0.0,0.0,0.0,0.0,0.0,0.0,0.0,0.0,0.0,0.0,0.0,0.0,0.0,0.0,0.0,0.0,0.0,0.0,0.0,0.0,0.0,0.0,0.0,0.0,0.0,0.0,0.0,0.0,0.0,0.0,0.0,0.0,0.0,0.0,0.0,0.0,0.0,0.0,0.0,0.0,0.0,0.0,0.0,0.0,0.0,0.0,0.0,0.0,0.0,0.0,0.0,0.0,0.0,0.0,0.0,2.3834,2.274,2.397,2.2894,2.1418,1.9598,1.9361,1.8203,1.5577,1.6717,0.0,0.0,0.0,0.0,0.0,0.0,0.0,0.0,0.0,0.0,0.0,0.0,0.0,0.0,0.0,0.0,0.0,0.0,0.0,0.0,0.0,0.0,0.0,0.0,0.0,0.0,0.0,0.0,0.0,0.0,0.0,0.0,0.0,0.0,0.0,0.0,0.0,0.0,0.0,0.0,0.0,0.0,0.0,0.0,0.0,0.0,0.0,0.0,0.0,0.0,0.0,0.0,0.0,0.0,0.0,0.0,0.0,0.0,0.0,0.0,0.0,0.0,0.0,0.0,0.0,0.0,0.0,0.0,0.0,0.0,0.0,0.0,0.0,0.0,0.0,0.0,0.0,0.0,0.0,0.0,0.0,0.0,0.0,0.0,0.0,0.0,0.0,0.0,0.0,0.0,0.0,0.0,0.0,0.0,0.0,0.0,0.0,0.0,0.0,0.0,0.0,0.0,2.5497,2.5024,2.5538,2.438,2.3184,2.2249,2.059,1.9074,1.7836,0.0,0.0,0.0,0.0,0.0,0.0,0.0,0.0,0.0,0.0,0.0,0.0,0.0,0.0,0.0,0.0,0.0,0.0,0.0,0.0,0.0,0.0,0.0,0.0,0.0,0.0,0.0,0.0,0.0,0.0,0.0,0.0,0.0,0.0,0.0,0.0,0.0,0.0,0.0,0.0,0.0,0.0,0.0,0.0,0.0,0.0,0.0,0.0,0.0,0.0,0.0,0.0,0.0,0.0,0.0,0.0,0.0,0.0,0.0,0.0,0.0,0.0,0.0,0.0,0.0,0.0,0.0,0.0,0.0,0.0,0.0,0.0,0.0,0.0,0.0,0.0,0.0,0.0,0.0,0.0,0.0,0.0,0.0,0.0,0.0,0.0,0.0,0.0,0.0,0.0,0.0,0.0,0.0,0.0,0.0,0.0,0.0,0.0,0.0,0.0,0.0,0.0,2.6309,2.6504,2.6592,2.6592,2.5727,2.4776,2.3786,2.1963,2.0397,1.9265,0.0,0.0,0.0,0.0,0.0,0.0,0.0,0.0,0.0,0.0,0.0,0.0,0.0,0.0,0.0,0.0,0.0,0.0,0.0,0.0,0.0,0.0,0.0,0.0,0.0,0.0,0.0,0.0,0.0,0.0,0.0,0.0,0.0,0.0,0.0,0.0,0.0,0.0,0.0,0.0,0.0,0.0,0.0,0.0,0.0,0.0,0.0,0.0,0.0,0.0,0.0,0.0,0.0,0.0,0.0,0.0,0.0,0.0,0.0,0.0,0.0,0.0,0.0,0.0,0.0,0.0,0.0,0.0,0.0,0.0,0.0,0.0,0.0,0.0,0.0,0.0,0.0,0.0,0.0,0.0,0.0,0.0,0.0,0.0,0.0,0.0,0.0,0.0,0.0,0.0,0.0,0.0,0.0,0.0,0.0,0.0,0.0,0.0,0.0,0.0,0.0,0.0,2.6329,2.6799,2.7063,2.7063,2.7063,2.6126,2.3904,2.3732,2.2462,0.0,0.0,0.0,0.0,0.0,0.0,0.0,0.0,0.0,0.0,0.0,0.0,0.0,0.0,0.0,0.0,0.0,0.0,0.0,0.0,0.0,0.0,0.0,0.0,0.0,0.0,0.0,0.0,0.0,0.0,0.0,0.0,0.0,0.0,0.0,0.0,0.0,0.0,0.0,0.0,0.0,0.0,0.0,0.0,0.0,0.0,0.0,0.0,0.0,0.0,0.0,0.0,0.0,0.0,0.0,0.0,0.0,0.0,0.0,0.0,0.0,0.0,0.0,0.0,0.0,0.0,0.0,0.0,0.0,0.0,0.0,0.0,0.0,0.0,0.0,0.0,0.0,0.0,0.0,0.0,0.0,0.0,0.0,0.0,0.0,0.0,0.0,0.0,0.0,0.0,0.0,0.0,0.0,0.0,0.0,0.0,0.0,0.0,0.0,0.0,0.0,0.0,0.0,2.7693,2.857,2.9295,2.9688,2.937,2.8391,2.661,2.5538,2.4003,2.1752,0.0,0.0,0.0,0.0,0.0,0.0,0.0,0.0,0.0,0.0,0.0,0.0,0.0,0.0,0.0,0.0,0.0,0.0,0.0,0.0,0.0,0.0,0.0,0.0,0.0,0.0,0.0,0.0,0.0,0.0,0.0,0.0,0.0,0.0,0.0,0.0,0.0,0.0,0.0,0.0,0.0,0.0,0.0,0.0,0.0,0.0,0.0,0.0,0.0,0.0,0.0,0.0,0.0,0.0,0.0,0.0,0.0,0.0,0.0,0.0,0.0,0.0,0.0,0.0,0.0,0.0,0.0,0.0,0.0,0.0,0.0,0.0,0.0,0.0,0.0,0.0,0.0,0.0,0.0,0.0,0.0,0.0,0.0,0.0,0.0,0.0,0.0,0.0,0.0,0.0,0.0,0.0,0.0,0.0,0.0,0.0,0.0,0.0,0.0,0.0,0.0,0.0,2.7994,2.9212,3.022,3.083,3.0379,2.9548,2.8398,2.7531,2.599,2.3485,0.0,0.0,0.0,0.0,0.0,0.0,0.0,0.0,0.0,0.0,0.0,0.0,0.0,0.0,0.0,0.0,0.0,0.0,0.0,0.0,0.0,0.0,0.0,0.0,0.0,0.0,0.0,0.0,0.0,0.0,0.0,0.0,0.0,0.0,0.0,0.0,0.0,0.0,0.0,0.0,0.0,0.0,0.0,0.0,0.0,0.0,0.0,0.0,0.0,0.0,0.0,0.0,0.0,0.0,0.0,0.0,0.0,0.0,0.0,0.0,0.0,0.0,0.0,0.0,0.0,0.0,0.0,0.0,0.0,0.0,0.0,0.0,0.0,0.0,0.0,0.0,0.0,0.0,0.0,0.0,0.0,0.0,0.0,0.0,0.0,0.0,0.0,0.0,0.0,0.0,0.0,0.0,0.0,0.0,0.0,0.0,0.0,0.0,0.0,0.0,0.0,0.0,2.7738,2.93,3.0529,3.1097,3.0642,3.011,2.9624,2.959,2.8222,2.4997,0.0,0.0,0.0,0.0,0.0,0.0,0.0,0.0,0.0,0.0,0.0,0.0,0.0,0.0,0.0,0.0,0.0,0.0,0.0,0.0,0.0,0.0,0.0,0.0,0.0,0.0,0.0,0.0,0.0,0.0,0.0,0.0,0.0,0.0,0.0,0.0,0.0,0.0,0.0,0.0,0.0,0.0,0.0,0.0,0.0,0.0,0.0,0.0,0.0,0.0,0.0,0.0,0.0,0.0,0.0,0.0,0.0,0.0,0.0,0.0,3.172,3.0924,0.0,0.0,0.0,0.0,0.0,0.0,0.0,0.0,0.0,0.0,0.0,0.0,0.0,0.0,0.0,0.0,0.0,0.0,0.0,0.0,0.0,0.0,0.0,0.0,0.0,0.0,0.0,0.0,0.0,0.0,0.0,0.0,0.0,0.0,0.0,0.0,0.0,0.0,0.0,0.0,2.9055,3.1095,3.2676,3.3216,3.2786,3.1998,3.0911,3.081,2.9949,2.7986,2.5361,0.0,0.0,0.0,0.0,0.0,0.0,0.0,0.0,0.0,0.0,0.0,0.0,0.0,0.0,0.0,0.0,0.0,0.0,0.0,0.0,0.0,0.0,0.0,0.0,0.0,0.0,0.0,0.0,0.0,0.0,0.0,0.0,0.0,0.0,0.0,0.0,0.0,0.0,0.0,0.0,0.0,0.0,0.0,0.0,0.0,0.0,0.0,0.0,0.0,0.0,0.0,0.0,0.0,0.0,0.0,0.0,0.0,0.0,0.0,3.4905,3.3787,0.0,0.0,0.0,0.0,0.0,0.0,0.0,0.0,0.0,0.0,0.0,0.0,0.0,0.0,0.0,0.0,0.0,0.0,0.0,0.0,0.0,0.0,0.0,0.0,0.0,0.0,0.0,0.0,0.0,0.0,0.0,0.0,0.0,0.0,0.0,0.0,0.0,0.0,0.0,0.0,3.0246,3.2021,3.3294,3.3847,3.3407,3.284,3.2152,3.2096,3.1416,2.9788,2.7595,0.0,0.0,0.0,0.0,0.0,0.0,0.0,0.0,0.0,0.0,0.0,0.0,0.0,0.0,0.0,0.0,0.0,0.0,0.0,0.0,0.0,0.0,0.0,0.0,0.0,0.0,0.0,0.0,0.0,0.0,0.0,0.0,0.0,0.0,0.0,0.0,0.0,0.0,0.0,0.0,0.0,0.0,0.0,0.0,0.0,0.0,0.0,0.0,0.0,0.0,0.0,0.0,0.0,4.2571,4.2315,4.2351,4.1646,4.1195,4.0709,3.7956,3.6343,3.5592,3.4902,0.0,0.0,0.0,0.0,0.0,0.0,0.0,0.0,0.0,0.0,0.0,0.0,0.0,0.0,0.0,0.0,0.0,0.0,0.0,0.0,0.0,0.0,0.0,0.0,3.5302,3.452,3.1558,0.0,0.0,0.0,0.0,0.0,0.0,0.0,0.0,0.0,0.0,0.0,3.1116,3.2382,3.3257,3.3709,3.3345,3.3124,3.3124,3.3124,3.2512,3.1117,2.9911,2.7824,0.0,0.0,0.0,0.0,0.0,0.0,0.0,0.0,0.0,0.0,0.0,0.0,0.0,0.0,0.0,0.0,0.0,0.0,0.0,0.0,0.0,0.0,0.0,0.0,0.0,0.0,0.0,0.0,0.0,0.0,0.0,0.0,3.5316,3.5384,0.0,0.0,0.0,0.0,0.0,0.0,0.0,0.0,0.0,0.0,0.0,0.0,0.0,4.2796,4.3537,4.4018,4.4276,4.4359,4.4774,4.5015,4.5015,4.49,4.5075,4.5385,4.4946,0.0,3.8966,3.7745,0.0,0.0,0.0,0.0,0.0,0.0,0.0,0.0,0.0,0.0,0.0,0.0,0.0,0.0,0.0,0.0,0.0,0.0,0.0,0.0,0.0,0.0,3.8022,3.7769,3.7757,3.7618,0.0,3.4306,3.153,3.0577,2.9533,0.0,0.0,0.0,0.0,0.0,0.0,0.0,3.1151,3.2326,3.3149,3.3224,3.3162,3.3124,3.3124,3.3124,3.3,3.2784,3.09,2.9564,2.9049,2.6834,0.0,0.0,0.0,0.0,0.0,0.0,0.0,0.0,0.0,0.0,0.0,0.0,0.0,0.0,0.0,0.0,0.0,0.0,0.0,0.0,0.0,0.0,0.0,0.0,0.0,0.0,0.0,0.0,0.0,3.7441,3.8305,3.8305,3.8251,3.7755,0.0,0.0,0.0,0.0,0.0,0.0,0.0,0.0,0.0,4.4393,4.4737,4.5516,4.6884,4.7114,4.7387,4.7749,4.7233,4.7226,4.7567,4.6759,4.651,4.6759,4.6759,4.5656,4.3774,4.2548,4.1689,4.0962,0.0,0.0,0.0,0.0,3.8137,3.8361,3.8925,3.8797,3.8383,3.795,0.0,0.0,0.0,0.0,0.0,0.0,0.0,0.0,0.0,0.0,3.9016,3.9155,3.9169,3.9169,3.9169,3.7494,3.5631,0.0,3.3588,3.2416,3.0676,0.0,0.0,0.0,0.0,3.1668,3.2209,3.2754,3.3124,3.3124,3.3124,3.3124,3.3124,3.3124,3.3124,3.3124,3.1911,3.0936,3.0331,2.8663,2.718,0.0,0.0,0.0,0.0,0.0,0.0,0.0,0.0,0.0,0.0,0.0,0.0,0.0,0.0,0.0,0.0,0.0,0.0,0.0,0.0,0.0,0.0,0.0,0.0,0.0,0.0,0.0,0.0,4.0575,4.1165,4.1025,4.1478,4.1131,0.0,0.0,0.0,0.0,0.0,0.0,4.3424,4.3969,4.513,4.7124,4.7374,4.8213,4.9763,4.9808,5.0002,5.0435,4.9424,4.9213,4.9679,4.8638,4.8125,4.8125,4.8125,4.8125,4.804,4.6361,4.5045,4.4006,4.349,4.2782,4.2084,4.2191,4.2486,4.2833,4.3396,4.3507,4.3258,4.2463,4.1591,4.0509,3.9101,0.0,0.0,0.0,0.0,3.9045,3.9871,4.0124,4.0195,4.0647,4.076,4.076,4.076,4.0294,3.9393,0.0,3.6915,3.5788,3.3612,0.0,0.0,0.0,0.0,3.3374,3.3833,3.3898,3.3784,3.3556,3.3513,3.3398,3.3124,3.3124,3.324,3.3471,3.3106,3.2475,3.1675,3.0765,2.9504,2.7847,0.0,0.0,0.0,0.0,0.0,0.0,0.0,0.0,0.0,0.0,0.0,0.0,0.0,0.0,0.0,0.0,0.0,0.0,0.0,0.0,0.0,0.0,0.0,0.0,0.0,0.0,0.0,0.0,0.0,4.2389,4.4072,0.0,0.0,0.0,0.0,4.2606,4.3743,4.4684,4.5319,4.7051,4.8358,4.9149,4.9716,5.0359,5.1109,5.1109,5.1139,5.1169,5.1075,5.109,5.112,5.1011,5.1011,5.1011,5.1011,5.1011,5.0748,4.7582,4.5932,4.5344,4.4733,4.381,4.281,4.3332,4.3175,4.2782,4.3344,4.3164,4.2823,4.3288,4.2251,4.0675,4.0085,3.9129,0.0,0.0,4.0689,4.105,4.2678,4.3071,4.3071,4.3115,4.313,4.313,4.313,4.2648,4.1386,0.0,3.7551,3.6888,3.6134,0.0,3.5996,3.5945,3.5945,3.5998,3.6039,3.6039,3.5668,3.4705,3.4622,3.4191,3.3197,3.3124,3.3513,3.4553,3.4596,3.4541,3.45,3.3882,3.2822,3.1188,3.0111,0.0,0.0,0.0,0.0,0.0,0.0,0.0,0.0,0.0,0.0,0.0,0.0,0.0,0.0,0.0,0.0,0.0,0.0,0.0,0.0,0.0,0.0,0.0,0.0,0.0,0.0,0.0,0.0,4.4897,4.5541,0.0,4.4338,4.4744,4.5128,4.5174,4.628,4.7421,4.8471,4.9162,4.9838,5.0496,5.075,5.0943,5.1214,5.1214,5.1214,5.1214,5.1214,5.1214,5.1214,5.1214,5.1214,5.1214,5.1214,5.1214,5.1105,4.9941,4.911,4.8512,4.8293,4.7712,4.6954,4.6719,4.6732,4.6924,4.6643,4.647,4.6193,4.5506,4.4588,4.3684,4.345,4.2821,4.2275,4.2891,4.275,4.2564,4.3135,4.329,4.329,4.329,4.329,4.329,4.329,4.2821,4.1954,4.0505,3.9692,3.8808,3.7443,3.7814,3.78,3.6408,3.6774,3.6982,3.629,3.6198,3.6053,3.5708,3.5668,3.5507,3.5116,3.5116,3.5007,3.4705,3.5319,3.5359,3.4746,3.5103,3.4911,3.3991,3.3252,3.2109,0.0,0.0,0.0,0.0,0.0,0.0,0.0,0.0,0.0,0.0,0.0,0.0,0.0,0.0,0.0,0.0,0.0,0.0,0.0,0.0,0.0,0.0,0.0,0.0,0.0,4.4828,4.6188,4.6595,4.7412,4.7492,4.6286,4.7091,4.7714,4.776,4.8505,4.9419,5.0465,5.0524,5.0719,5.1214,5.1214,5.1214,5.1214,5.1214,5.1214,5.1214,5.1214,5.1214,5.1214,5.1214,5.1214,5.1214,5.1214,5.1214,5.1214,5.1214,5.096,5.0463,5.006,4.9373,4.856,4.7645,4.7286,4.732,4.7331,4.7614,4.7818,4.6935,4.6202,4.5648,4.5648,4.502,4.4317,4.4317,4.3838,4.329,4.329,4.329,4.329,4.329,4.329,4.329,4.329,4.2821,4.2201,4.1542,4.0846,3.9951,3.8574,3.8943,3.8943,3.7482,3.789,3.8092,3.7367,3.7276,3.7123,3.6774,3.6735,3.6604,3.6237,3.6198,3.6053,3.5775,3.6383,3.6422,3.5775,3.6189,3.6077,3.5394,3.4653,3.3678,3.2458,0.0,0.0,0.0,0.0,0.0,0.0,0.0,0.0,0.0,0.0,0.0,0.0,0.0,0.0,0.0,0.0,0.0,0.0,0.0,0.0,0.0,0.0,0.0,4.4697,4.6272,4.7507,4.7536,4.9693,5.072,4.9494,4.9898,5.0226,5.0226,5.0226,5.0495,5.1184,5.1214,5.1214,5.1214,5.1214,5.1214,5.1214,5.1214,5.1214,5.1214,5.1214,5.1214,5.1214,5.1214,5.1214,5.1214,5.1214,5.1214,5.1214,5.1214,5.1214,5.1058,4.9776,4.8557,4.7304,4.5951,4.4685,4.3787,4.5024,4.6255,4.7309,4.7309,4.6875,4.6309,4.6294,4.5394,4.4347,4.4317,4.3838,4.329,4.329,4.329,4.329,4.329,4.329,4.329,4.329,4.2806,4.2186,4.1542,4.0831,4.0172,3.9493,3.9388,3.9388,3.9388,3.9388,0.0,3.9388,3.9388,3.898,3.7956,3.7829,3.742,3.6408,3.6316,3.6735,3.7753,3.7829,3.7829,3.7791,3.7209,3.6404,3.5457,3.4312,3.3782,3.3904,0.0,0.0,0.0,0.0,0.0,0.0,0.0,0.0,0.0,0.0,0.0,0.0,0.0,0.0,0.0,0.0,0.0,0.0,0.0,0.0,0.0,4.4196,4.5893,4.7081,4.8497,4.9599,5.012,5.0788,5.1079,5.072,5.084,5.0945,5.0945,5.0945,5.1035,5.1214,5.1214,5.1214,5.1214,5.1214,5.1214,5.1214,5.1214,5.1214,5.1214,5.1214,5.1214,5.1214,5.1214,5.1214,5.1214,5.1214,5.1214,5.1214,5.1214,5.1214,5.1167,5.0807,5.0147,4.9316,4.849,4.7354,4.6299,4.6638,4.7019,4.7309,4.7309,4.7189,4.695,4.6429,4.5723,4.493,4.4451,4.3838,4.329,4.329,4.329,4.329,4.329,4.329,4.329,4.329,4.2447,4.1632,4.1452,4.0472,3.9634,3.9418,3.9388,3.9388,3.9388,3.9388,0.0,3.9388,3.9388,3.9301,3.898,3.8943,3.8855,3.8531,3.8531,3.8294,3.7829,3.8546,3.862,3.7829,3.837,3.8576,3.8412,3.7158,3.6567,0.0,0.0,0.0,0.0,0.0,0.0,0.0,0.0,0.0,0.0,0.0,0.0,0.0,0.0,0.0,0.0,0.0,0.0,0.0,0.0,0.0,0.0,4.629,4.7972,4.9333,4.9912,5.0435,5.1139,5.1214,5.1214,5.1214,5.1214,5.1214,5.1214,5.1214,5.1214,5.1214,5.1214,5.1214,5.1214,5.1214,5.1214,5.1214,5.1214,5.1214,5.1214,5.1214,5.1214,5.1214,5.1214,5.1214,5.1214,5.1214,5.1214,5.1214,5.1214,5.1214,0.0,0.0,0.0,0.0,0.0,4.6705,4.6491,4.6491,4.6829,4.7309,4.7309,4.7309,4.7174,4.6516,4.5843,4.5155,4.4496,4.3838,4.329,4.329,4.329,4.329,4.329,4.329,4.329,4.329,4.2297,4.1422,4.1422,4.0322,0.0,3.9388,3.9388,3.9388,3.9388,3.9388,3.9388,3.9388,3.9388,3.9388,3.9388,3.9388,3.9388,3.9388,3.9388,0.0,0.0,0.0,3.9173,3.862,3.9184,0.0,0.0,0.0,0.0,0.0,0.0,0.0,0.0,3.6651,3.654,0.0,0.0,0.0,0.0,0.0,0.0,0.0,0.0,0.0,0.0,0.0,0.0,0.0,0.0,0.0,0.0,4.8904,5.042,5.1124,5.0674,5.0524,5.1154,5.1214,5.1214,5.1214,5.1214,5.1214,5.1214,5.1214,5.1214,5.1214,5.1214,0.0,0.0,0.0,5.1214,5.1214,5.1214,5.1214,5.1214,5.1214,5.1214,5.1214,5.1214,5.1214,5.1214,5.1214,5.1214,5.1214,5.1214,5.1139,5.079,4.9041,4.7974,4.7218,4.4833,4.4642,4.5584,4.5584,0.0,0.0,4.7309,4.7309,4.7174,4.6516,4.5843,4.5155,4.4496,4.3838,4.329,4.329,4.329,4.329,4.329,4.329,4.329,4.329,4.2297,4.1422,4.1422,4.0322,3.9388,3.9388,3.9388,3.9388,3.9388,3.9388,3.9388,3.9388,3.9388,3.9388,3.9388,0.0,0.0,3.9388,3.9388,3.9388,3.9388,3.9481,3.9662,3.994,3.9942,4.032,4.1113,4.1144,4.1433,4.2042,4.213,4.2253,4.227,3.903,3.8181,0.0,0.0,0.0,0.0,0.0,0.0,0.0,0.0,0.0,0.0,0.0,0.0,0.0,0.0,0.0,4.5616,4.8312,5.042,5.1124,5.1109,5.1065,5.1199,5.1214,5.1214,5.1214,5.1214,5.1214,5.1214,5.1214,5.1214,5.1214,5.1214,5.1214,5.1214,5.1214,5.1214,5.1214,5.1214,5.1214,5.1214,0.0,0.0,5.1214,5.1214,5.1214,5.1214,5.1214,5.1214,5.1214,5.1214,5.0601,4.9628,4.9251,4.8699,4.7986,4.6963,4.6726,4.6931,4.6931,4.7062,4.7309,4.7309,4.7309,4.7174,4.6516,4.5843,0.0,4.4496,4.3838,4.329,4.329,4.329,4.329,4.329,4.329,4.329,4.329,4.2297,4.1422,4.1422,4.0322,3.9388,3.9388,3.9388,3.9388,3.9388,3.9388,3.9388,3.9388,3.9388,3.9388,3.9388,3.9388,3.9388,3.9388,3.9388,3.9388,3.9388,4.006,4.0798,4.1533,4.1565,4.1691,4.1966,4.1966,4.2059,4.2239,4.227,4.2593,4.3149,4.1856,4.1399,0.0,0.0,0.0,0.0,0.0,0.0,0.0,0.0,0.0,0.0,0.0,3.9019,4.081,0.0,4.4085,4.6003,4.8227,4.9824,5.0147,5.076,5.1214,5.1214,5.1214,5.1214,5.1214,5.1214,5.1214,5.1214,5.1214,5.1214,5.1214,5.1214,5.1214,5.1214,5.1214,5.1214,5.1214,5.1214,5.1214,5.1214,5.1214,5.1214,5.1214,5.1214,5.1214,5.1214,5.1214,5.1214,5.1214,5.1214,5.0451,4.9314,4.9314,4.8715,4.7758,4.7429,4.7309,4.7309,4.7309,4.7309,4.7309,4.7309,4.7309,4.7174,4.6516,4.6082,4.5603,4.4601,4.4077,4.3708,4.3379,4.329,4.329,4.329,4.329,4.329,4.329,4.2566,4.1811,4.1482,4.0591,3.9798,3.9448,3.9388,3.9388,3.9388,3.9388,3.9388,3.9388,3.9388,3.9388,3.9388,3.9388,3.9388,3.9388,3.9388,3.9574,4.0025,4.0466,4.128,4.2583,4.2645,4.2897,4.3397,4.3409,4.3412,4.3464,4.3464,4.3623,4.3995,4.3606,4.3464,0.0,0.0,0.0,0.0,0.0,0.0,0.0,4.1542,4.0928,4.1263,4.0482,4.0453,4.2762,4.3387,4.4223,4.6362,4.7873,4.8802,4.8802,4.9984,5.0807,5.0807,5.1058,5.1214,5.1214,5.1214,5.1214,5.1214,5.1214,5.1214,5.1214,5.1214,5.1214,5.1214,5.1214,5.1214,5.1214,5.1214,5.1214,5.1214,5.1214,5.1214,5.1214,5.1214,5.1214,5.1214,5.1214,5.1214,5.1214,5.1079,5.0331,4.9299,4.9179,4.8356,4.7309,4.7309,4.7309,4.7309,4.7309,4.7309,4.7309,4.7309,4.7309,4.7204,4.6681,4.6384,4.6067,4.484,4.4407,4.4167,4.3469,4.329,4.329,4.329,4.329,4.329,4.329,4.2821,4.2201,4.1542,4.0846,4.0187,3.9529,3.9388,3.9388,3.9388,3.9388,3.9388,3.9388,3.9388,3.9388,3.9388,3.9388,3.9388,3.9388,3.9538,4.0025,4.0878,4.1113,4.1901,4.3502,4.3562,4.3873,4.4587,4.4615,4.4615,4.4615,4.4615,4.4615,4.4615,4.4615,4.4615,3.7916,3.8672,3.9978,4.1191,4.1989,4.2791,0.0,4.4132,4.3875,4.3253,4.2991,4.2749,4.2395,4.3331,4.4349,4.509,4.6435,4.7299,4.7299,4.8539,4.9421,4.9421,5.0493,5.1214,5.1214,5.1214,5.1214,5.1214,5.1214,5.1214,5.1214,5.1214,5.1214,5.1214,5.1214,5.1214,5.1214,5.1214,5.1214,5.1214,5.1214,5.1214,5.1214,5.1214,5.1214,5.1214,5.1214,5.1214,5.1169,5.0539,4.9927,4.9254,4.8626,4.7952,4.7309,4.7309,4.7309,4.7309,4.7309,4.7309,4.7309,4.7309,4.7309,4.7294,4.7219,4.6785,4.6115,4.5409,4.4766,4.4167,4.3469,4.329,4.329,4.329,4.329,4.329,4.329,4.2821,4.2201,4.1542,4.0846,4.0187,3.9529,3.9388,3.9388,3.9388,3.9388,3.9388,3.9388,3.9388,3.9388,3.9388,3.9388,3.9388,3.9388,4.0115,4.0912,4.1804,4.2583,4.3456,4.4412,4.444,4.4514,4.4615,4.4615,4.4615,4.4615,4.4615,4.4615,4.4615,4.4615,4.4615,3.9859,4.0523,4.1534,4.384,4.4961,4.5791,4.7018,4.6745,4.5982,4.5148,4.4378,4.3598,4.2785,4.3148,4.3582,4.3826,4.4994,4.5872,4.5872,4.7094,4.8275,4.9098,4.9679,5.0335,5.112,5.1214,5.1214,5.1214,5.1214,5.1214,5.1214,5.1214,5.1214,5.1214,5.1214,5.1214,5.1214,5.1214,5.1214,5.1214,5.1214,5.1214,5.1214,5.1214,5.1214,5.1214,5.1214,5.1214,5.1169,5.0465,4.9853,4.9239,4.8536,4.7878,4.7309,4.7309,4.7309,4.7309,4.7309,4.7309,4.7309,4.7309,4.7309,4.7309,4.7309,4.7115,4.6756,4.6082,4.5409,4.4736,4.4077,4.3574,4.329,4.329,4.329,4.329,4.329,4.312,4.2731,4.2111,4.1452,4.0771,4.0113,3.9679,3.9388,3.9388,3.9388,3.9388,3.9388,3.9388,3.9388,3.9388,3.9388,3.961,4.0115,4.05,4.128,4.2676,4.3108,4.368,4.457,4.4615,4.4615,4.4615,4.4615,4.4615,4.4615,4.4615,4.4615,4.4615,4.4615,4.4615,4.1205,4.2143,4.3334,4.601,4.7401,4.8424,4.9342,4.8972,4.8033,4.6665,4.5949,4.5061,4.3318,4.3283,4.3449,4.3085,4.381,4.4427,4.4427,4.5661,4.6888,4.7923,4.8389,4.9161,5.0493,5.0964,5.1214,5.1214,5.1214,5.1214,5.1214,5.1214,5.1214,5.1214,5.1214,5.1214,5.1214,5.1214,5.1214,5.1214,5.1214,5.1214,5.1214,5.1214,5.1214,5.1214,5.1214,5.1214,5.1154,5.0316,4.9688,4.9224,4.8341,4.7728,4.7309,4.7309,4.7309,4.7309,4.7309,4.7309,4.7309,4.7309,4.7309,4.7309,4.7309,4.7309,4.7174,4.6516,4.5963,4.5379,4.4526,4.3958,4.3514,4.3334,4.329,4.329,4.329,4.329,4.3135,4.253,4.1871,4.1175,4.0516,3.9858,3.9388,3.9388,3.9388,3.9388,3.9388,3.9388,3.9388,3.9388,3.961,4.0025,4.0656,4.1147,4.1965,4.3216,4.3532,4.3931,4.457,4.4615,4.4615,4.4615,4.4615,4.4615,4.4615,4.4615,4.4615,4.4615,4.4615,4.4615,4.1338,4.3448,4.5598,4.6946,4.8686,5.012,5.0166,5.0659,5.0338,4.7628,4.8096,4.7794,4.3755,4.4071,4.4535,4.3184,4.303,4.3085,4.3085,4.4222,4.5102,4.5088,4.6331,4.7721,4.9112,5.0445,5.1214,5.1214,5.1214,5.1214,5.1214,5.1214,5.1214,5.1214,5.1214,5.1214,5.1214,5.1214,5.1214,5.1214,5.1214,5.1214,5.1214,5.1214,5.1214,5.1214,5.1214,5.1214,5.1109,4.9838,4.9329,4.9179,4.7848,4.7324,4.7309,4.7309,4.7309,4.7309,4.7309,4.7309,4.7309,4.7309,4.7309,4.7309,4.7309,4.7309,4.7174,4.6516,4.6264,4.5992,4.4661,4.4302,4.4122,4.3439,4.329,4.329,4.329,4.329,4.3135,4.253,4.1871,4.1175,4.0516,3.9858,3.9388,3.9388,3.9388,3.9388,3.9388,3.9388,3.9388,3.9388,4.015,4.069,4.069,4.2252,4.3246,4.3306,4.4093,4.457,4.4615,4.4615,4.4615,4.4615,4.4615,4.4615,4.4615,4.4615,4.4615,4.4615,4.4615,4.4615,4.109,4.2579,4.4242,4.7167,4.8716,4.9758,5.0683,5.1065,5.0445,4.767,4.7466,4.6837,4.3602,4.3394,4.3547,4.3085,4.2974,4.2974,4.2974,4.3394,4.4016,4.4887,4.6226,4.767,4.9049,4.9616,5.0239,5.112,5.1214,5.1214,5.1214,5.1214,5.1214,5.1214,5.1214,5.1214,5.1214,5.1214,5.1214,5.1214,5.1214,5.1214,5.1214,5.1214,5.1214,5.1214,5.1214,5.1214,5.1154,5.0272,4.9658,4.9224,4.8297,4.7683,4.7309,4.7309,4.7309,4.7309,4.7309,4.7309,4.7309,4.7309,4.7309,4.7309,4.7309,4.7309,4.7249,4.704,4.6651,4.6175,4.5726,4.499,4.4257,4.4032,4.3604,4.329,4.329,4.329,4.323,4.3045,4.2476,4.1856,4.116,4.0502,3.9918,3.9484,3.9388,3.9388,3.9388,3.9388,3.9388,3.9388,4.0185,4.0912,4.1495,4.2614,4.3562,4.4138,4.4457,4.4615,4.4615,4.4615,4.4615,4.4615,4.4615,4.4615,4.4615,4.4615,4.4615,4.4615,4.4615,4.4615,4.0989,4.2412,4.3904,4.675,4.7971,4.8688,4.9518,4.9727,4.9098,4.6837,4.6733,4.6279,4.3492,4.3394,4.3547,4.3085,4.2974,4.2974,4.2974,4.2974,4.3492,4.4833,4.582,4.7094,4.8999,4.921,4.9776,5.112,5.1214,5.1214,5.1214,5.1214,5.1214,5.1214,5.1214,5.1214,5.1214,5.1214,5.1214,5.1214,5.1214,5.1214,5.1214,5.1214,5.1214,5.1214,5.1214,5.1214,5.1169,5.0465,4.9853,4.9239,4.8536,4.7878,4.7309,4.7309,4.7309,4.7309,4.7309,4.7309,4.7309,4.7309,4.7309,4.7309,4.7309,4.7309,4.7309,4.7309,4.6995,4.6621,4.6339,4.5636,4.49,4.4421,4.3947,4.3574,4.3349,4.329,4.329,4.329,4.2806,4.2261,4.1841,4.0995,4.0172,3.9514,3.9388,3.9388,3.9388,3.9388,3.9388,3.9388,4.0481,4.1412,4.1965,4.3061,4.4006,4.457,4.4615,4.4615,4.4615,4.4615,4.4615,4.4615,4.4615,4.4615,4.4615,4.4615,4.4615,4.4615,4.4615,4.4615,4.1084,4.2861,4.448,4.5747,4.6527,4.6991,4.7094,4.7094,4.6682,4.5262,4.6042,4.6161,4.3428,4.3978,4.4468,4.3146,4.2961,4.2974,4.2974,4.2974,4.3492,4.4833,4.5048,4.6174,4.895,4.9259,4.9824,5.112,5.1214,5.1214,5.1214,5.1214,5.1214,5.1214,5.1214,5.1214,5.1214,5.1214,5.1214,5.1214,5.1214,5.1214,5.1214,5.1214,5.1214,5.1214,5.1214,5.1214,5.1169,5.0495,4.9898,4.9299,4.8596,4.7938,4.7354,4.7309,4.7309,4.7309,4.7309,4.7309,4.7309,4.7309,4.7309,4.7309,4.7309,4.7309,4.7309,4.7309,4.7309,4.716,4.6531,4.6309,4.5965,4.4721,4.4362,4.4152,4.3484,4.3319,4.329,4.329,4.2806,4.2396,4.2351,4.1287,4.0172,3.9514,3.9388,3.9388,3.9388,3.9388,3.9424,3.9445,4.0995,4.2029,4.2062,4.3634,4.4615,4.4615,4.4615,4.4615,4.4615,4.4615,4.4615,4.4615,4.4615,4.4615,4.4615,4.4615,4.4615,4.4615,4.4615,4.4615,4.0452,4.1746,4.3162,4.4851,4.5395,4.582,4.6837,4.7094,4.6558,4.4797,4.4997,4.4784,4.2207,4.2739,4.3254,4.2532,4.2766,4.2974,4.2974,4.2974,4.3492,4.4833,4.5912,4.7248,4.9049,5.008,5.0807,5.1167,5.1214,5.1214,5.1214,5.1214,5.1214,5.1214,5.1214,5.1214,5.1214,5.1214,5.1214,5.1214,5.1214,5.1214,5.1214,5.1214,5.1214,5.1214,5.1214,5.1214,5.1214,5.1035,5.0586,4.9927,4.9269,4.8626,4.7982,4.7489,4.7309,4.7309,4.7309,4.7309,4.7309,4.7309,4.7309,4.7309,4.7309,4.7309,4.7309,4.7309,4.7309,4.7264,4.71,4.6696,4.619,4.5846,4.505,4.4272,4.4067,4.3633,4.329,4.329,4.2806,4.2246,4.1752,4.095,4.0172,3.9514,3.9388,3.9388,3.9388,3.9388,3.9646,4.0309,4.1346,4.2252,4.2909,4.396,4.4615,4.4615,4.4615,4.4615,4.4615,4.4615,4.4615,4.4615,4.4615,4.4615,4.4615,4.4615,4.4615,4.4615,4.4615,4.4615,4.0576,4.0992,4.1435,4.2753,4.3101,4.3178,4.3756,4.444,4.4547,4.3228,4.3158,4.2928,4.155,4.2045,4.2577,4.2263,4.2678,4.2974,4.2974,4.2974,4.3492,4.4833,4.6226,4.767,4.9049,5.0397,5.1214,5.1214,5.1214,5.1214,5.1214,5.1214,5.1214,5.1214,5.1214,5.1214,5.1214,5.1214,5.1214,5.1214,5.1214,5.1214,5.1214,5.1214,5.1214,5.1214,5.1214,5.1214,5.1214,5.1214,5.0779,5.0121,4.9523,4.891,4.8207,4.7549,4.7309,4.7309,4.7309,4.7309,4.7309,4.7309,4.7309,4.7309,4.7309,4.7309,4.7309,4.7309,4.7309,4.7309,4.7309,4.704,4.6681,4.6354,4.5514,4.4661,4.4377,4.3753,4.329,4.329,4.3045,4.2581,4.1961,4.1265,4.0606,3.9948,3.9604,3.9388,3.9388,3.9388,3.9574,4.008,4.1247,4.2189,4.2693,4.3873,4.4615,4.4615,4.4615,4.4615,4.4615,4.4615,4.4615,4.4615,4.4615,4.4615,4.4615,4.4615,4.4615,4.4615,4.4615,4.4615,4.1153,4.0808,4.026,4.0542,4.0544,4.0366,3.9914,4.0806,4.1663,4.1288,4.1238,4.125,4.11,4.163,4.2099,4.2099,4.2564,4.2898,4.2974,4.2974,4.3492,4.4833,4.6226,4.767,4.9049,5.0397,5.1214,5.1214,5.1214,5.1214,5.1214,5.1214,5.1214,5.1214,5.1214,5.1214,5.1214,5.1214,5.1214,5.1214,5.1214,5.1214,5.1214,5.1214,5.1214,5.1214,5.1214,5.1214,5.1214,5.1214,5.0838,5.024,4.9553,4.8955,4.8327,4.7578,4.7309,4.7309,4.7309,4.7309,4.7309,4.7309,4.7309,4.7309,4.7309,4.7309,4.7309,4.7309,4.7309,4.7309,4.7309,4.7309,4.716,4.6591,4.5858,4.514,4.4571,4.3828,4.329,4.329,4.329,4.3135,4.2515,4.1931,4.125,4.0502,3.9918,3.9514,3.9388,3.9388,3.9445,3.9538,4.1028,4.2062,4.2157,4.3663,4.4615,4.4615,4.4615,4.4615,4.4615,4.4615,4.4615,4.4615,4.4615,4.4615,4.4615,4.4615,4.4615,4.4615,4.4615,4.4615,4.1718,4.2243,4.2151,4.0925,4.034,4.0051,3.9843,3.971,3.9819,4.0486,4.0962,4.1012,4.0149,4.0802,4.148,4.148,4.1944,4.2514,4.2911,4.2974,4.3492,4.4833,4.6226,4.767,4.9049,5.0397,5.1214,5.1214,5.1214,5.1214,5.1214,5.1214,5.1214,5.1214,5.1214,5.1214,5.1214,5.1214,5.1214,5.1214,5.1214,5.1214,5.1214,5.1214,5.1214,5.1214,5.1214,0.0,5.1214,5.1214,5.1154,5.093,4.9733,4.9239,4.9,4.7743,4.7309,4.7309,4.7309,4.7309,4.7309,4.7309,4.7309,4.7309,4.7309,4.7309,4.7309,4.7309,4.7309,4.7309,4.7309,4.7309,4.7279,4.716,4.6187,4.5259,4.5155,4.4182,4.329,4.329,4.329,4.3135,4.2515,4.2306,4.1826,4.0576,4.0307,4.0038,3.9448,3.9388,3.9681,4.0397,4.1379,4.2284,4.3017,4.4006,4.4615,4.4615,4.4615,4.4615,4.4615,4.4615,4.4615,4.4615,4.4615,4.4615,4.4615,4.4615,4.4615,4.4615,4.4615,4.4615,4.1986,4.1967,4.1362,3.9768,3.9626,3.9495,3.803,3.8808,3.9816,3.9667,4.0099,4.0325,3.9785,4.0362,4.0862,4.0862,4.1379,4.1919,4.2527,4.2602,4.2911,4.3826,4.5142,4.6539,4.7974,4.9357,5.0445,5.1167,5.1214,5.1214,5.1214,5.1214,5.1214,5.1214,5.1214,5.1214,5.1214,5.1214,5.1214,5.1214,5.1214,5.1214,5.1214,5.1214,5.1214,5.1214,5.1214,5.1214,5.1214,5.1214,5.1214,5.1094,4.9778,4.9314,4.9149,4.7788,4.7309,4.7309,4.7309,4.7309,4.7309,4.7309,4.7309,4.7309,4.7309,4.7309,4.7309,4.7309,4.7309,4.7309,4.7309,4.7309,4.7309,4.7309,4.6277,4.52,4.4855,4.4018,4.329,4.329,4.329,4.32,4.2925,4.262,4.2066,4.1055,4.0621,4.0172,3.9514,3.9388,3.9538,3.999,4.1229,4.2157,4.2583,4.3844,4.4615,4.4615,4.4615,4.4615,4.4615,4.4615,4.4615,4.4615,4.4615,4.4615,4.4615,4.4615,4.4615,4.4615,4.4615,4.4615,4.22,4.1761,4.0719,3.9111,3.9175,3.9054,3.6757,3.81,3.9671,3.9019,3.9308,3.9697,3.9697,4.0049,4.0375,4.0501,4.0924,4.153,4.2137,4.2313,4.2552,4.2924,4.4167,4.5555,4.694,4.8389,4.9776,5.112,5.1214,5.1214,5.1214,5.1214,5.1214,5.1214,5.1214,5.1214,5.1214,5.1214,5.1214,5.1214,5.1214,5.1214,5.1214,5.1214,5.1214,5.1214,5.1214,5.1214,5.1214,5.1214,5.1214,5.1094,4.9778,4.9314,4.9149,4.7788,4.7309,4.7309,4.7309,4.7309,4.7309,4.7309,4.7309,4.7309,4.7309,4.7309,4.7309,4.7309,4.7309,4.7309,4.7309,4.7309,4.7264,4.713,4.6172,4.511,4.4451,4.3753,4.329,4.329,4.329,4.329,4.329,4.291,4.2381,4.1722,4.1145,4.0531,3.9738,3.9634,3.9574,3.9439,4.0961,4.1997,4.1997,4.3604,4.4615,4.4615,4.4615,4.4615,4.4615,4.4615,4.4615,4.4615,4.4615,4.4615,4.4615,4.4615,4.4615,4.4615,4.4615,4.4615,4.2622,4.288,4.2375,4.0777,3.9786,3.8939,3.8083,3.7815,3.7988,3.8715,3.9308,3.9697,3.9697,3.9735,3.9936,4.0438,4.0924,4.153,4.2137,4.264,4.2924,4.2974,4.4167,4.5555,4.694,4.8389,4.9776,5.112,5.1214,5.1214,5.1214,5.1214,5.1214,5.1214,5.1214,5.1214,5.1214,5.1214,5.1214,5.1214,5.1214,5.1214,5.1214,5.1214,5.1214,5.1214,5.1214,5.1214,0.0,5.1214,5.1214,5.1094,4.9778,4.9314,4.9149,4.7788,4.7309,4.7309,4.7309,4.7309,4.7309,4.7309,4.7309,4.7309,4.7309,4.7309,4.7309,4.7309,4.7309,4.7309,4.7309,4.7309,4.716,4.6561,4.5843,4.511,4.4451,4.3753,4.329,4.329,4.329,4.329,4.329,4.3245,4.3015,4.241,4.2261,4.1767,4.0472,4.0307,4.0083,3.9484,4.0961,4.1997,4.1997,4.3604,4.4615,4.4615,4.4615,4.4615,4.4615,4.4615,4.4615,4.4615,4.4615,4.4615,4.4615,4.4615,4.4615,4.4615,4.4615,4.4615,4.2183,4.2778,4.2613,4.1007,4.0507,4.0037,3.8466,3.85,3.8864,3.8867,3.9308,3.9697,3.9697,3.9697,3.9772,3.9986,4.0212,4.0538,4.1091,4.1643,4.2108,4.2502,4.4015,4.5555,4.694,4.8389,4.9776,5.112,5.1214,5.1214,5.1214,5.1214,5.1214,5.1214,5.1214,5.1214,5.1214,5.1214,5.1214,5.1214,5.1214,5.1214,5.1214,5.1214,5.1214,5.1214,5.1214,5.1214,0.0,5.1214,5.0943,5.0495,4.9628,4.906,4.8566,4.7653,4.7309,4.7309,4.7309,4.7309,4.7309,4.7309,4.7309,4.7309,4.7309,4.7309,4.7309,4.7309,4.7309,4.7309,4.7309,4.7309,4.7234,4.698,4.6396,4.5723,4.505,4.4392,4.3768,4.3364,4.329,4.329,4.329,4.329,4.312,4.25,4.2396,4.2066,4.1115,4.0651,4.0307,4.0038,4.1211,4.1997,4.1997,4.3604,4.4615,4.4615,4.4615,4.4615,4.4615,4.4615,4.4615,4.4615,4.4615,4.4615,4.4615,4.4615,4.4615,4.4615,4.4615,4.4615,4.1911,4.2615,4.2737,4.1602,4.1281,4.0844,3.9206,3.929,3.9534,3.8981,3.9308,3.9697,3.9697,3.9697,3.9697,3.9697,3.9835,4.0124,4.0676,4.1037,4.1543,4.215,4.3223,4.4705,4.6665,4.8638,5.0191,5.112,5.1214,5.1214,5.1214,5.1214,5.1214,5.1214,5.1214,5.1214,5.1214,5.1214,5.1214,5.1214,5.1214,5.1214,5.1214,5.1214,5.1214,5.1214,5.1214,5.1214,0.0,5.1214,5.0779,5.0121,4.9523,4.891,4.8207,4.7549,4.7309,4.7309,4.7309,4.7309,4.7309,4.7309,4.7309,4.7309,4.7309,4.7309,4.7309,4.7309,4.7309,4.7309,4.7309,4.7309,4.7309,4.7309,4.68,4.6142,4.5439,4.4781,4.4122,4.3424,4.329,4.329,4.329,4.329,4.314,4.2716,4.2656,4.2417,4.1796,4.1265,4.1003,4.1109,4.18,4.2221,4.2013,4.3604,4.4615,4.4615,4.4615,4.4615,4.4615,4.4615,4.4615,4.4615,4.4615,4.4615,4.4615,4.4615,4.4615,4.4615,4.4615,4.4615,4.1911,4.2615,4.2974,4.2974,4.2145,4.115,4.0586,4.0086,3.9534,3.8981,3.9308,3.9697,3.9697,3.9697,3.9697,3.9697,4.0162,4.0701,4.12,4.1288,4.1543,4.215,4.1681,4.2667,4.6004,4.9253,5.1167,5.1214,5.1214,5.1214,5.1214,5.1214,5.1214,5.1214,5.1214,5.1214,5.1214,5.1214,5.1214,5.1214,5.1214,5.1214,5.1214,5.1214,5.1214,5.1214,5.1214,5.1214,0.0,5.1214,5.0779,5.0121,4.9523,4.891,4.8207,4.7549,4.7309,4.7309,4.7309,4.7309,4.7309,4.7309,4.7309,4.7309,4.7309,4.7309,4.7309,4.7309,4.7309,4.7309,4.7309,4.7309,4.7309,4.7309,4.68,4.6142,4.5439,4.4781,4.4122,4.3424,4.329,4.329,4.329,4.329,4.329,4.329,4.329,4.309,4.247,4.2381,4.2478,4.2762,4.2916,4.2717,4.2061,4.3604,4.4615,4.4615,4.4615,4.4615,4.4615,4.4615,4.4615,4.4615,4.4615,4.4615,4.4615,4.4615,4.4615,4.4615,4.4615,4.4615,4.0275,4.1153,4.1856,4.1856,4.1317,4.0727,4.0563,4.0086,3.9647,3.9471,3.9572,3.9697,3.9697,3.9697,3.9697,3.9697,3.9835,4.0011,4.0187,4.0865,4.1351,4.158,4.3782,4.6048,4.8077,5.0059,5.1214,5.1214,5.1214,5.1214,5.1214,5.1214,5.1214,5.1214,5.1214,5.1214,5.1214,5.1214,5.1214,5.1214,5.1214,5.1214,5.1214,5.1214,5.1214,5.1214,5.1214,5.1214,5.1184,5.0689,5.0375,5.0076,4.903,4.8476,4.8207,4.7549,4.7309,4.7309,4.7309,4.7309,4.7309,4.7309,4.7309,4.7309,4.7309,4.7309,4.7309,4.7309,4.7309,4.7309,4.7309,4.7309,4.7309,4.7309,4.7145,4.6681,4.5544,4.5125,4.4661,4.3514,4.329,4.329,4.329,4.329,4.329,4.329,4.329,4.3215,4.3045,4.2641,4.2659,4.3427,4.3643,4.3717,4.3661,4.4215,4.4615,4.4615,4.4615,4.4615,4.4615,4.4615,4.4615,4.4615,4.4615,4.4615,4.4615,4.4615,4.4615,4.4615,4.4615,4.4615,3.9433,4.035,4.1025,4.1238,4.0874,4.0513,4.0513,4.0086,3.9634,3.9421,3.9383,3.932,3.9094,3.9057,3.9057,3.9057,3.9245,3.9459,3.9659,4.0463,4.105,4.1263,4.4098,4.6558,4.7985,4.9533,5.065,5.1167,5.1214,5.1214,5.1214,5.1214,5.1214,5.1214,5.1214,5.1214,5.1214,5.1214,5.1214,5.1214,5.1214,5.1214,5.1214,5.1214,5.1214,5.1214,5.1214,5.1214,0.0,5.0734,5.027,4.9793,4.897,4.8356,4.7863,4.7459,4.7309,4.7309,4.7309,4.7309,4.7309,4.7309,4.7309,4.7309,4.7309,4.7309,4.7309,4.7309,4.7309,4.7309,4.7309,4.7309,4.7309,4.7309,4.7309,4.6935,4.5589,4.5289,4.49,4.3544,4.329,4.329,4.329,4.329,4.329,4.329,4.329,4.329,4.329,4.297,4.3251,4.4554,4.4564,4.4802,4.5654,4.529,4.501,4.501,4.4767,4.4615,4.4615,4.4615,4.4615,4.4615,4.4615,4.4615,4.4615,4.4615,4.4615,4.4615,4.4615,4.4615,0.0,3.9923,4.0463,4.0924,4.0661,4.0337,4.0337,3.9936,0.0,3.8919,3.8856,3.8642,3.8103,3.8002,3.8002,3.8002,3.8454,3.8994,3.9559,4.0174,4.0802,4.1326,4.3122,4.4754,4.6063,4.7999,4.9727,5.0964,5.1167,5.1214,5.1214,5.1214,5.1214,5.1214,5.1214,5.1214,5.1214,5.1214,5.1214,5.1214,5.1214,5.1214,5.1214,5.1214,5.1214,0.0,5.1214,5.1214,5.1214,5.1109,5.0391,4.9359,4.9224,4.8416,4.7369,4.7324,4.7309,4.7309,4.7309,4.7309,4.7309,4.7309,4.7309,4.7309,4.7309,4.7309,4.7309,4.7309,4.7309,4.7309,4.7309,4.7309,4.7309,4.7309,4.7309,4.6935,4.5589,4.5289,4.49,4.3544,4.329,4.329,4.329,4.329,4.329,4.329,4.329,4.329,4.329,4.329,4.4036,4.5996,4.5578,4.5926,4.7818,4.6633,4.5788,4.5788,4.5128,4.4733,4.4682,4.4682,4.4649,4.4615,4.4615,4.4615,4.4615,4.4615,4.4615,4.4615,4.4615,4.4615,3.755,0.0,3.863,3.8755,3.8693,3.8605,0.0,3.8492,3.8366,3.8241,3.8216,3.8165,3.804,3.8002,3.8002,3.8002,3.8115,3.8417,3.8981,4.0275,4.1451,4.2472,4.3883,4.4944,4.5249,4.7687,4.9308,4.9664,5.0603,5.1214,5.1214,5.1214,5.1214,5.1214,5.1214,5.1214,5.1214,5.1214,5.1214,5.1214,5.1214,5.1214,5.1214,5.1214,5.1214,5.1214,5.1214,5.1214,5.1139,5.0137,4.9838,4.9853,4.8356,4.7878,4.7997,4.7489,4.7309,4.7309,4.7309,4.7309,4.7309,4.7309,4.7309,4.7309,4.7309,4.7309,4.7309,4.7309,4.7309,4.7309,4.7309,4.7309,4.7309,4.7309,4.7309,4.6935,4.5589,4.5289,4.49,4.3544,4.329,4.329,4.329,4.329,4.329,4.329,4.329,4.329,4.329,4.329,4.4036,4.5996,4.6029,4.6708,4.8577,4.7394,4.6532,4.6532,4.638,4.6024,4.5466,4.5449,4.5179,4.4615,4.4615,4.4615,4.4615,4.4615,4.4615,4.4615,4.4615,4.4615,3.6769,3.74,3.8065,3.8329,3.8404,3.8404,3.8404,3.8203,3.8075,3.8367,3.799,3.7733,3.797,3.761,3.7249,3.7249,3.7676,3.8479,3.981,4.0777,4.1743,4.2848,4.3657,4.4318,4.4941,4.694,4.8489,4.9161,5.0445,5.1214,5.1214,5.1214,5.1214,5.1214,5.1214,5.1214,5.1214,5.1214,5.1214,5.1214,5.1214,5.1214,5.1214,5.1214,5.1214,5.1214,5.1214,5.105,5.0674,5.0002,4.9568,4.9239,4.8177,4.7788,4.7803,4.7429,4.7309,4.7309,4.7309,4.7309,4.7309,4.7309,4.7309,4.7309,4.7309,4.7309,4.7309,4.7309,4.7309,4.7309,4.7309,4.7309,4.7309,4.7309,4.7309,4.6935,4.5589,4.5289,4.49,4.3544,4.329,4.3394,4.3693,4.3484,4.3394,4.3693,4.3484,4.329,4.329,4.3693,4.4571,4.6032,4.6609,4.7423,4.8861,4.8274,4.7665,4.7327,4.6989,4.6616,4.621,4.5889,4.5348,4.4615,4.4615,4.4615,4.4615,4.4615,4.4615,4.4615,4.4615,4.4615,3.6729,3.7549,3.8361,3.869,3.8966,3.9153,3.9064,3.8521,3.8207,3.8906,3.8126,3.7539,3.8258,3.7664,3.7024,3.6789,3.7545,3.8856,4.0874,4.1238,4.1743,4.2848,4.2974,4.3449,4.4576,4.6174,4.7619,4.8802,5.0335,5.1214,5.1214,5.1214,5.1214,5.1214,5.1124,5.1065,5.1065,5.1169,5.1214,5.1214,5.1214,5.1214,5.1214,5.1214,5.1214,5.1214,0.0,0.0,5.0196,5.0196,4.9523,4.8416,4.8327,4.7938,4.7444,4.7339,4.7309,4.7309,4.7309,4.7309,4.7309,4.7309,4.7309,4.7309,4.7309,4.7309,4.7309,4.7309,4.7309,4.7309,4.7309,4.7309,4.7309,4.7309,4.7309,4.6965,4.5723,4.5454,4.5095,4.3828,4.3589,4.3768,4.4362,4.3962,4.3738,4.4242,4.3838,4.3409,4.3305,4.4182,4.5153,4.6103,4.702,4.7982,4.8923,4.9001,4.8731,4.8122,4.7479,4.7022,4.6802,4.6092,4.5348,4.4615,4.4615,4.4615,4.4615,4.4615,4.4615,4.4615,4.4615,4.4615,3.8264,3.9147,3.9388,3.8463,3.9366,4.0368,3.9846,3.8893,3.8404,3.9523,3.8782,3.8304,3.9431,3.9888,3.9767,3.8707,3.8638,3.9182,4.0463,4.0987,4.1743,4.2848,4.2974,4.3085,4.3295,4.5608,4.7197,4.7402,4.9776,5.1214,5.1214,5.1214,5.1214,5.1214,5.0629,5.0345,5.0345,5.0945,5.1214,5.1214,5.1214,5.1214,5.1214,5.1214,5.1214,5.1214,0.0,5.0808,5.0196,5.0196,4.9793,4.9105,4.8506,4.8222,4.8072,4.7519,4.7309,4.7309,4.7309,4.7309,4.7309,4.7309,4.7309,4.7309,4.7309,4.7309,4.7309,4.7309,4.7309,4.7309,4.7309,4.7309,4.7309,4.7309,4.7309,4.71,4.6337,4.6172,4.5933,4.514,4.499,4.5035,4.5125,4.5065,4.484,4.4392,4.4227,4.3958,4.3364,4.4182,4.5153,4.6103,4.702,4.7982,4.8923,4.9001,4.8951,4.8849,4.8731,4.8105,4.6836,4.6092,4.5348,4.4615,4.4615,4.4615,4.4615,4.4615,4.4615,4.4615,4.4615,4.4615,3.7703,3.9028,4.0051,4.044,4.1179,4.1643,4.1004,4.0203,3.9817,4.0631,3.9871,3.9543,4.1097,4.106,4.0842,4.0952,4.1239,4.1825,4.2955,4.3618,4.4294,4.5103,4.5195,4.5195,4.5195,4.7043,4.8225,4.8225,5.008,5.1214,5.1214,5.0838,5.0644,5.0644,5.0047,4.9703,4.9703,5.0017,5.0346,5.0644,5.105,5.1214,5.1214,5.1214,5.1214,5.1199,0.0,5.0316,4.9688,4.9329,4.8805,4.8207,4.8267,4.8282,4.8297,4.8341,4.8132,4.7833,4.7833,4.7593,4.7309,4.7309,4.7309,4.7309,4.7309,4.7309,4.7309,4.7309,4.7309,4.7309,4.7309,4.7309,4.7309,4.7309,4.7309,4.713,4.6429,4.6279,4.6112,4.5424,4.5289,4.5409,4.5783,4.5544,4.5496,4.6123,4.5102,4.4384,4.4669,4.5223,4.5742,4.6138,4.7473,4.8545,4.897,4.9001,4.9001,4.9001,4.9001,4.8528,4.7445,4.6684,4.594,4.5213,4.4818,4.4615,4.4615,4.4615,4.4615,4.4615,4.4615,4.4615,3.7555,3.9122,4.0745,4.236,4.294,4.3003,4.262,4.188,4.1407,4.2085,4.1312,4.1027,4.2662,4.2237,4.1993,4.3142,4.3454,4.3986,4.5133,4.5749,4.6316,4.7011,4.7094,4.7094,4.7094,4.8389,4.921,4.921,5.0312,5.099,5.099,5.0315,5.0017,5.0017,4.9374,4.909,4.909,4.909,4.9449,5.0196,5.0704,5.1065,5.1214,5.1065,5.099,5.0945,5.024,4.9643,4.906,4.87,4.8132,4.7593,4.8087,4.8282,4.8356,4.906,4.8895,4.8282,4.8282,4.7863,4.7309,4.7309,4.7309,4.7309,4.7309,4.7309,4.7309,4.7309,4.7309,4.7309,4.7309,4.7309,4.7309,4.7309,4.7309,4.7174,4.6666,4.6503,4.6396,4.5873,4.5768,4.6017,4.6765,4.6445,4.66,4.7979,4.6658,4.5651,4.609,4.6516,4.6711,4.6465,4.7968,4.9001,4.9001,4.9001,4.9001,4.9001,4.9001,4.868,4.7922,4.7361,4.6633,4.572,4.5145,4.4784,4.4615,4.4615,4.4615,4.4615,4.4615,4.4615,3.9199,4.0576,4.1767,4.2945,4.3711,4.434,4.4891,4.3708,4.2777,4.3901,4.3182,4.279,4.3946,4.415,4.4346,4.508,4.4228,4.3918,4.5133,4.534,4.5796,4.6956,4.7094,4.7094,4.7094,4.8389,4.921,4.921,4.9884,5.0255,5.0255,4.9688,4.9374,4.9374,4.8701,4.8356,4.8356,4.8356,4.8985,5.0196,5.024,5.0584,5.1199,5.0539,5.0255,5.0226,4.9613,4.9015,4.8401,4.9,4.8805,4.8222,4.8267,4.8282,4.8356,4.906,4.8895,4.8282,4.8282,4.7863,4.7309,4.7309,4.7309,4.7309,4.7309,4.7309,4.7309,4.7309,4.7309,4.7309,4.7309,4.7309,4.7309,4.7309,4.7309,4.7294,4.7249,4.7234,4.7219,4.7174,4.716,4.7488,4.8435,4.8594,4.8711,4.9216,4.9154,4.8488,4.7006,4.7814,4.815,4.7233,4.8249,4.9001,4.9001,4.9001,4.9001,4.9001,4.9001,4.868,4.7922,4.7838,4.7145,4.5737,4.5652,4.528,4.4615,4.4615,4.4615,4.4615,4.4615,4.4615,3.8372,3.9603,4.0945,4.2827,4.3484,4.3828,4.4541,4.4451,4.4388,4.4833,4.457,4.443,4.4833,4.527,4.5651,4.5902,4.6284,4.6625,4.7119,4.7526,4.7948,4.8428,4.8486,4.8486,4.8486,4.894,4.925,4.925,4.9519,4.9628,4.9628,4.9015,4.87,4.87,4.8012,4.7683,4.7683,4.7683,4.8132,4.903,4.9434,4.9763,5.0002,4.9748,4.9628,4.9598,4.894,4.8521,4.8282,4.8117,4.7908,4.7758,4.8581,4.9149,4.9583,5.0242,4.9808,4.894,4.894,4.8192,4.7309,4.7309,4.7309,4.7309,4.7309,4.7309,4.7309,4.7309,4.7309,4.7309,4.7309,4.7309,4.7309,4.7309,4.7309,4.7309,4.7309,4.7309,4.7309,4.7309,4.7807,4.8361,4.8743,4.9336,5.0069,5.0855,5.0084,4.94,4.9385,4.9379,4.9067,4.8229,4.8643,4.9001,4.9001,4.9001,4.9001,4.9001,4.9001,4.8883,4.8612,4.8125,4.7618,4.709,4.6177,4.5568,4.528,4.4835,4.4615,4.4615,4.4615,4.4615,3.7868,3.9195,4.0671,4.2281,4.2865,4.3254,4.4107,4.4825,4.5349,4.5574,4.5454,4.5289,4.5289,4.5858,4.6279,4.6279,4.7249,4.8057,4.8252,4.8671,4.9075,4.9284,4.9314,4.9314,4.9314,4.9314,4.9314,4.9314,4.912,4.9,4.9,4.8341,4.7982,4.7982,4.7534,4.7309,4.7309,4.7309,4.7534,4.7982,4.8431,4.891,4.9299,4.909,4.9,4.897,4.8267,4.7982,4.7938,4.7489,4.7309,4.7414,4.8521,4.9224,4.9703,5.0361,4.9898,4.9,4.9,4.8237,4.7309,4.7309,4.7309,4.7309,4.7309,4.7309,4.7309,4.7309,4.7309,4.7309,4.7309,4.7309,4.7309,4.7309,4.7309,4.7309,4.7309,4.7309,4.7309,4.7309,4.8099,4.8907,4.9271,5.0204,5.1229,5.2241,5.1421,5.0825,5.1182,5.0851,5.0225,4.9244,4.9263,4.9255,4.9018,4.9001,4.9001,4.9001,4.9001,4.9001,4.9001,4.8528,4.8125,4.7889,4.6684,4.594,4.5703,4.4942,4.4615,4.4615,4.4615,4.4615,3.809,3.9701,4.1407,4.1422,4.1916,4.2755,4.4032,4.4825,4.5484,4.6187,4.5783,4.5304,4.5304,4.5858,4.6279,4.6279,4.6875,4.7534,4.8192,4.8282,4.8521,4.9209,4.9284,4.9284,4.9284,4.9284,4.9284,4.9284,4.8685,4.8282,4.8282,4.7653,4.7309,4.7309,4.7309,4.7309,4.7309,4.7309,4.7309,4.7309,4.7309,4.7997,4.9269,4.8566,4.8282,4.8237,4.7593,4.7309,4.7309,4.7309,4.7309,4.7369,4.8027,4.8282,4.8356,4.906,4.8895,4.8282,4.8282,4.7863,4.7309,4.7309,4.7309,4.7309,4.7309,4.7309,4.7309,4.7309,4.7309,4.7309,4.7309,4.7309,4.7309,4.7309,4.7309,4.7309,4.7309,4.7309,4.7309,4.7309,4.8099,4.9135,5.0204,5.1229,5.2277,5.3348,5.3501,5.311,5.2029,5.2116,5.1725,5.0253,5.0084,4.9779,4.9069,4.9001,4.9001,4.9001,4.9001,4.9001,4.9001,4.9001,4.8663,4.7906,4.7175,4.643,4.572,4.4942,4.4615,4.4615,4.4615,4.4615,3.8387,3.9585,4.0801,4.1265,4.2222,4.3389,4.4706,4.5155,4.5618,4.677,4.6486,4.6022,4.6022,4.6187,4.6279,4.6279,4.6875,4.7369,4.7563,4.7593,4.7668,4.7863,4.7878,4.7878,4.7878,4.7878,4.7878,4.7878,4.7713,4.7593,4.7593,4.7414,4.7309,4.7309,4.7309,4.7309,4.7309,4.7309,4.7309,4.7309,4.7309,4.7519,4.7878,4.7683,4.7593,4.7593,4.7399,4.7309,4.7309,4.7309,4.7309,4.7369,4.8027,4.8282,4.8356,4.906,4.8895,4.8282,4.8282,4.7863,4.7309,4.7309,4.7309,4.7309,4.7309,4.7309,4.7309,4.7309,4.7309,4.7309,4.7309,4.7309,4.7309,4.7309,4.7309,4.7309,4.7309,4.7309,4.7309,4.7309,4.8733,5.0009,5.0336,5.1865,5.3144,5.3467,5.3501,5.318,5.2303,5.1342,5.0574,5.0135,4.9644,4.9238,4.9018,4.9001,4.9001,4.9001,4.9001,4.9001,4.9001,4.9001,4.89,4.868,4.7428,4.6684,4.6464,4.5196,4.4615,4.4615,4.4615,4.4615,3.9193,4.0162,4.107,4.2252,4.294,4.3708,4.5334,4.5903,4.6322,4.713,4.6785,4.6279,4.6279,4.6279,4.6279,4.6279,4.6875,4.7309,4.7309,4.7309,4.7309,4.7309,4.7309,4.7309,4.7309,4.7309,4.7309,4.7309,4.7309,4.7309,4.7309,4.7309,4.7309,4.7309,4.7309,4.7309,4.7309,4.7309,4.7309,4.7309,4.7309,4.7309,4.7309,4.7309,4.7309,4.7309,4.7309,4.7309,4.7309,4.7309,4.7309,4.7339,4.7743,4.7893,4.7938,4.8341,4.8237,4.7893,4.7893,4.7638,4.7309,4.7309,4.7309,4.7309,4.7309,4.7309,4.7309,4.7309,4.7309,4.7309,4.7309,4.7309,4.7309,4.7309,4.7309,4.7309,4.7309,4.7309,4.7424,4.7834,4.9231,5.0512,5.093,5.2381,5.3501,5.3501,5.323,5.2858,5.2367,5.1268,5.0422,5.0118,4.9695,4.9323,4.9018,4.9001,4.9001,4.9001,4.9001,4.9001,4.9001,4.9001,4.9001,4.9001,4.7547,4.6786,4.6786,4.5326,4.4615,4.4615,4.4615,4.4615,4.0015,4.0994,4.1871,4.3853,4.4018,4.4158,4.5978,4.6875,4.7309,4.7309,4.683,4.6369,4.6369,4.6369,4.6369,4.6369,4.692,4.7309,4.7309,4.7309,4.7309,4.7309,4.7309,4.7309,4.7309,4.7309,4.7309,4.7309,4.7309,4.7309,4.7309,4.7309,4.7309,4.7309,4.7309,4.7309,4.7309,4.7309,4.7309,4.7309,4.7309,4.7309,4.7309,4.7309,4.7309,4.7309,4.7309,4.7309,4.7309,4.7309,4.7309,4.7309,4.7309,4.7309,4.7309,4.7309,4.7309,4.7309,4.7309,4.7309,4.7309,4.7309,4.7309,4.7309,4.7309,4.7309,4.7309,4.7309,4.7309,4.7309,4.7309,4.7309,4.7309,4.7309,4.7309,4.7309,4.7309,4.7381,4.7722,4.8636,4.9734,5.0817,5.1724,5.2784,5.3501,5.3501,5.2756,5.2198,5.2198,5.1505,5.0744,5.0067,4.9999,4.9729,4.9069,4.9001,4.9001,4.9001,4.9001,4.9001,4.9001,4.9001,4.9001,4.9001,4.7614,4.6853,4.6786,4.541,4.4682,4.4615,4.4615,4.4615,3.8989,4.0303,4.1942,4.4189,4.5811,4.6894,4.7059,4.7204,4.7309,4.7309,4.7189,4.71,4.71,4.71,4.71,4.71,4.7219,4.7309,4.7309,4.7309,4.7309,4.7309,4.7309,4.7309,4.7309,4.7309,4.7309,4.7309,4.7309,4.7309,4.7309,4.7309,4.7309,4.7309,4.7309,4.7309,4.7309,4.7309,4.7309,4.7309,4.7309,4.7309,4.7309,4.7309,4.7309,4.7309,4.7309,4.7309,4.7309,4.7309,4.7309,4.7309,4.7309,4.7309,4.7309,4.7309,4.7309,4.7309,4.7309,4.7309,4.7309,4.7309,4.7309,4.7309,4.7309,4.7309,4.7309,4.7309,4.7309,4.7309,4.7309,4.7309,4.7309,4.7309,4.7309,4.7309,4.7309,4.7919,4.8553,4.8743,5.0288,5.1651,5.1869,5.2784,5.3501,5.3501,5.2334,5.1454,5.1454,5.0304,4.9407,4.9255,4.9238,4.9171,4.9018,4.9001,4.9001,4.9001,4.9001,4.9001,4.9001,4.9001,4.9001,4.9001,4.8139,4.7394,4.6786,4.5889,4.5162,4.4615,4.4615,4.4615,3.8993,4.0188,4.135,4.4352,4.6356,4.7505,4.7334,4.7309,4.7309,4.7309,4.7309,4.7309,4.7309,4.7309,4.7309,4.7309,4.7309,4.7309,4.7309,4.7309,4.7309,4.7309,4.7309,4.7309,4.7309,4.7309,4.7309,4.7309,4.7309,4.7309,4.7309,4.7309,4.7309,4.7309,4.7309,4.7309,4.7309,4.7309,4.7309,4.7309,4.7309,4.7309,4.7309,4.7309,4.7309,4.7309,4.7309,4.7309,4.7309,4.7309,4.7309,4.7309,4.7309,4.7309,4.7309,4.7309,4.7309,4.7309,4.7309,4.7309,4.7309,4.7309,4.7309,4.7309,4.7309,4.7309,4.7309,4.7309,4.7309,4.7309,4.7309,4.7309,4.7309,4.7309,4.7309,4.7424,4.7919,4.8444,4.9094,5.0094,5.1139,5.2082,5.2592,5.3144,5.3365,5.2993,5.1944,5.1082,5.0727,4.9695,4.9001,4.9001,4.9001,4.9001,4.9001,4.9001,4.9001,4.9001,4.9001,4.9001,4.9001,4.9001,4.9001,4.9001,4.7936,4.7175,4.6786,4.5703,4.4976,4.4615,4.4615,4.4615,3.838,4.0084,4.1328,4.4527,4.6419,4.7495,4.7337,4.7309,4.7309,4.7309,4.7309,4.7309,4.7309,4.7309,4.7309,4.7309,4.7309,4.7309,4.7309,4.7204,4.7174,4.7294,4.7204,4.7174,4.7294,4.7309,4.7309,4.7309,4.7309,4.7309,4.7309,4.7309,4.7309,4.7309,4.7309,4.7309,4.7309,4.7309,4.7309,4.7309,4.7309,4.7309,4.7309,4.7309,4.7309,4.7309,4.7309,4.7309,4.7309,4.7309,4.7309,4.7309,4.7309,4.7309,4.7309,4.7309,4.7309,4.7309,4.7309,4.7309,4.7309,4.7309,4.7309,4.7309,4.7309,4.7309,4.7309,4.7309,4.7309,4.7309,4.7309,4.7309,4.7309,4.7309,4.7309,4.7581,4.8594,4.9094,4.9821,5.1578,5.2029,5.247,5.3348,5.3501,5.3281,5.2604,5.1775,5.0997,5.0371,4.9526,4.9001,4.9001,4.9001,4.9001,4.9001,4.9001,4.9001,4.9001,4.9001,4.9001,4.9001,4.9001,4.9001,4.9001,4.7682,4.6921,4.6786,4.5432,4.4733,4.4615,4.4615,4.4615,3.4542,3.9103,4.3953,4.502,4.6985,4.8377,4.7495,4.7309,4.7309,4.7309,4.7309,4.7309,4.7309,4.7309,4.7309,4.7309,4.7309,4.7309,4.7309,4.6815,4.6666,4.7234,4.68,4.6681,4.7249,4.7309,4.7309,4.7309,4.7309,4.7309,4.7309,4.7309,4.7309,4.7309,4.7309,4.7309,4.7309,4.7309,4.7309,4.7309,4.7309,4.7309,4.7309,4.7309,4.7309,4.7309,4.7309,4.7309,4.7309,4.7309,4.7309,4.7309,4.7309,4.7309,4.7309,4.7309,4.7309,4.7309,4.7309,4.7309,4.7309,4.7309,4.7309,4.7309,4.7309,4.7309,4.7309,4.7309,4.7309,4.7309,4.7309,4.7309,4.7309,4.7309,4.7309,4.7581,4.8594,5.0211,5.1578,5.1849,5.2627,5.3348,5.3467,5.3501,5.3467,5.3365,5.2131,5.1151,5.1082,4.9864,4.9001,4.9001,4.9001,4.9001,4.9001,4.9001,4.9001,4.9001,4.9001,4.9001,4.9001,4.9001,4.9001,4.9001,4.8189,4.7445,4.6786,4.5957,4.5213,4.4615,4.4615,4.4615,3.3543,3.8457,4.3122,4.4084,4.5878,4.738,4.7334,4.7309,4.7189,4.683,4.6756,4.6756,4.6756,4.6756,4.6636,4.6247,4.6187,4.6187,4.6187,4.5933,4.5858,4.6142,4.5918,4.6007,4.6696,4.6756,4.692,4.7279,4.7309,4.7309,4.7309,4.7309,4.7309,4.7309,4.7309,4.7309,4.7309,4.7309,4.7309,4.7309,4.7309,4.7309,4.7309,4.7309,4.7309,4.7309,4.7309,4.7309,4.7309,4.7309,4.7309,4.7309,4.7309,4.7309,4.7309,4.7309,4.7309,4.7309,4.7309,4.7309,4.7309,4.7309,4.7309,4.7309,4.7309,4.7309,4.7309,4.7309,4.7309,4.7309,4.7309,4.7309,4.7309,4.7309,4.8198,4.9166,4.9575,5.0419,5.1394,5.2557,5.3179,5.3501,5.3501,5.3129,5.2689,5.2283,5.1285,5.0439,5.0033,4.9407,4.9001,4.9001,4.9001,4.9001,4.9001,4.9001,4.9001,4.9001,4.9001,4.9001,4.9001,4.9001,4.9001,4.9001,4.7868,4.7124,4.6786,4.5635,4.4936,4.4615,4.4615,4.4615,3.2786,3.6927,4.0393,4.1849,4.3964,4.5819,4.6472,4.6943,4.7174,4.6681,4.6441,4.6277,4.6097,4.6067,4.5888,4.5379,4.5289,4.5289,4.5289,4.5155,4.511,4.5274,4.5155,4.5379,4.6204,4.6279,4.6591,4.7249,4.7309,4.7309,4.7309,4.7309,4.7309,4.7309,4.7309,4.7309,4.7309,4.7309,4.7309,4.7309,4.7309,4.7309,4.7309,4.7309,4.7309,4.7309,4.7309,4.7309,4.7309,4.7309,4.7309,4.7309,4.7309,4.7309,4.7309,4.7309,4.7309,4.7309,4.7309,4.7309,4.7309,4.7309,4.7309,4.7309,4.7309,4.7309,4.7309,4.7309,4.7309,4.7309,4.7309,4.7495,4.7679,4.7679,4.9085,5.055,5.1059,5.1171,5.1647,5.3195,5.3501,5.3501,5.3501,5.301,5.2418,5.1877,5.098,5.0185,4.9644,4.9238,4.9001,4.9001,4.9001,4.9001,4.9001,4.9001,4.9001,4.9001,4.9001,4.9001,4.9001,4.9001,4.9001,4.9001,4.7733,4.6989,4.6786,4.5529,4.4801,4.4615,4.4615,4.4615,3.1325,3.3648,3.5697,3.7954,4.1155,4.3965,4.4587,4.6064,4.7294,4.7264,4.6756,4.6127,4.5469,4.5349,4.5334,4.5304,4.5289,4.5289,4.5289,4.4751,4.4601,4.5214,4.4751,4.4885,4.6145,4.6279,4.6591,4.7249,4.7309,4.7309,4.7309,4.7309,4.7309,4.7309,4.7309,4.7309,4.7309,4.7309,4.7309,4.7309,4.7309,4.7309,4.7309,4.7309,4.7309,4.7309,4.7309,4.7309,4.7309,4.7309,4.7309,4.7309,4.7309,4.7309,4.7309,4.7309,4.7309,4.7309,4.7309,4.7309,4.7309,4.7309,4.7309,4.7309,4.7309,4.7309,4.7309,4.7309,4.7309,4.7309,4.7309,4.803,4.8702,4.8702,4.9575,5.0946,5.2921,5.3348,5.3382,5.3467,5.3501,5.3501,5.3501,5.3467,5.3433,5.3399,5.2114,5.1117,5.1083,4.9864,4.9001,4.9001,4.9001,4.9001,4.9001,4.9001,4.9001,4.9001,4.9001,4.9001,4.9001,4.9001,4.9001,4.9001,4.8257,4.7513,4.6786,4.6024,4.528,4.4615,4.4615,4.4615,2.9288,3.132,3.3588,3.5955,3.8372,4.052,4.1966,4.3991,4.5435,4.5025,4.5334,4.5454,4.4781,4.4661,4.4526,4.4107,4.4032,4.4032,4.4032,4.3798,4.3738,4.4003,4.4197,4.4676,4.5574,4.6067,4.6218,4.6107,4.6829,4.6931,4.6107,4.6873,4.7309,4.7309,4.7309,4.7309,4.7309,4.7309,4.7309,4.7309,4.7309,4.7309,4.7309,4.7309,4.7309,4.7309,4.7309,4.7309,4.7309,4.7309,4.7309,4.7309,4.7309,4.7309,4.7309,4.7309,4.7309,4.7309,4.7309,4.7309,4.7309,4.7309,4.7309,4.7309,4.7309,4.7309,4.7309,4.7309,4.7309,4.7452,4.8099,4.8527,4.9135,5.048,5.1064,5.174,5.3195,5.3501,5.3501,5.3501,5.3501,5.3501,5.3501,5.3078,5.2739,5.2739,5.1454,5.049,5.049,4.9627,4.9001,4.9001,4.9001,4.9001,4.9001,4.9001,4.9001,4.9001,4.9001,4.9001,4.9001,4.9001,4.9001,4.9001,4.8748,4.802,4.6786,4.6058,4.5314,4.4615,4.4615,4.4615,2.74,2.899,3.0985,3.2898,3.5248,3.7522,3.9293,4.1605,4.335,4.3334,4.4066,4.4657,4.4394,4.4477,4.4347,4.3439,4.329,4.329,4.329,4.3484,4.3618,4.3618,4.4242,4.49,4.5574,4.6052,4.6218,4.6063,4.6829,0.0,4.6062,4.6829,4.7309,4.7309,4.7309,4.7309,4.7309,4.7309,4.7309,4.7309,4.7309,4.7309,4.7309,4.7309,4.7309,4.7309,4.7309,4.7309,4.7309,4.7309,4.7309,4.7309,4.7309,4.7309,4.7309,4.7309,4.7309,4.7309,4.7309,4.7309,4.7339,4.7563,4.7638,4.7638,4.7638,4.7638,4.7638,4.7638,4.7638,4.7782,4.8477,4.897,4.9836,5.1921,5.2435,5.2627,5.3348,5.3501,5.3501,5.3501,5.3501,5.3501,5.3501,5.3061,5.2706,5.2706,5.164,5.0828,5.0828,4.9982,4.9373,4.9373,4.9154,4.9001,4.9001,4.9001,4.9001,4.9001,4.9001,4.9001,4.9001,4.9001,4.9001,4.9001,4.9001,4.8274,4.6786,4.6312,4.5551,4.4615,4.4615,4.4615,0.0,0.0,0.0,2.8729,3.182,3.4987,3.654,3.8925,4.1179,4.2334,4.3034,4.3689,4.4249,4.4831,4.4829,4.3504,4.3349,4.3349,4.3349,4.3902,4.4347,4.4347,4.493,4.5589,4.6262,4.6337,4.6578,4.7206,4.7266,4.7266,4.7251,4.7266,4.7309,4.7309,4.7309,4.7309,4.7309,4.7309,4.7309,4.7309,4.7309,4.7309,4.7309,4.7309,4.7309,4.7309,4.7309,4.7309,4.7309,4.7309,4.7309,4.7309,4.7309,4.7309,4.7309,4.7309,4.7309,4.7309,4.7324,4.7339,4.7444,4.8102,4.8312,4.8312,4.8312,4.8312,4.8312,4.8312,4.8312,4.8356,4.84,4.944,5.0978,5.3024,5.3518,5.3501,5.3501,5.3501,5.3501,5.3501,5.3501,5.3501,5.3501,5.3501,5.3501,5.3501,5.2824,5.23,5.23,5.0997,5.0084,5.0084,4.9441,4.9001,4.9001,4.9001,4.9001,4.9001,4.9001,4.9001,4.9001,4.9001,4.9001,4.9001,4.9001,4.8274,4.6819,4.6802,4.6024,4.4615,4.4615,4.4615,2.5693,0.0,0.0,0.0,0.0,0.0,0.0,3.4681,3.743,3.8556,4.0277,4.1873,4.2873,4.3508,4.3803,4.3412,4.4169,4.4751,4.4751,4.4915,4.502,4.502,4.5618,4.6112,4.6264,4.6756,4.6723,0.0,4.6785,4.6916,4.5973,4.6785,4.7309,4.7309,4.7309,4.7309,4.7309,4.7309,4.7309,4.7309,4.7309,4.7309,4.7309,4.7309,4.7309,4.7309,4.7309,4.7309,4.7309,4.7309,4.7309,4.7309,4.7309,4.7309,4.7309,4.7309,4.7309,4.7369,4.7848,4.8012,4.8117,4.882,4.9045,4.9045,4.9045,4.9045,4.9045,4.9045,4.9045,4.94,5.0955,5.1779,5.2548,5.3969,5.389,5.3501,5.3501,5.3501,5.3501,5.3501,5.3501,5.3501,5.3501,5.3501,5.3501,5.3501,5.2824,5.23,5.23,5.0997,5.0084,5.0084,4.9441,4.9001,4.9001,4.9001,4.9001,4.9001,4.9001,4.9001,4.9001,4.9001,4.9001,4.9001,4.9001,4.8545,4.7597,4.7056,4.6024,4.4615,4.4615,4.4615,2.5693,2.5693,2.5917,2.6853,0.0,0.0,2.9715,3.1862,3.4026,3.5332,3.7089,3.8884,4.0332,4.1478,4.2624,4.373,4.4705,4.5337,4.5281,4.5544,4.5723,4.5723,4.6322,4.6741,4.6741,4.7085,4.6975,4.6255,4.6873,4.6975,4.6211,4.6916,4.7309,4.7309,4.7309,4.7309,4.7309,4.7309,4.7309,4.7309,4.7309,4.7309,4.7309,4.7309,4.7309,4.7309,4.7309,4.7309,4.7309,4.7309,4.7309,4.7309,4.7309,4.7309,4.7309,4.7309,4.7309,4.7399,4.8057,4.8282,4.8431,4.9374,4.9673,4.9673,4.9673,4.9673,4.9673,4.9673,5.0005,5.0772,5.2476,5.2935,5.3228,5.4342,5.4042,5.3501,5.3501,5.3501,5.3501,5.3501,5.3501,5.3501,5.3501,5.3501,5.3501,5.3501,5.3112,5.2807,5.2807,5.1488,5.0557,5.0557,4.9627,4.9001,4.9001,4.9001,4.9001,4.9001,4.9001,4.9001,4.9001,4.9001,4.9001,4.9001,4.9001,4.8494,4.7445,4.7005,4.6024,4.4615,4.4615,4.4615,2.5732,2.5693,2.5781,2.6221,2.6865,0.0,2.8992,2.9921,3.0938,3.2453,3.3746,3.5171,3.6985,3.8794,4.0837,4.3293,4.4336,4.5033,4.5439,4.6052,4.6384,4.6384,4.695,4.7309,4.7309,4.7309,4.7309,4.7309,4.7309,4.7309,4.7309,4.7309,4.7309,4.7309,4.7309,4.7309,4.7309,4.7309,4.7309,4.7309,4.7309,4.7309,4.7309,4.7309,4.7309,4.7309,4.7309,4.7309,4.7309,4.7309,4.7309,4.7309,4.7309,4.7309,4.7309,4.7309,4.7354,4.7504,4.8072,4.8371,4.8701,4.9807,5.024,5.0346,5.0469,5.0515,5.0515,5.0637,5.1432,5.2461,5.3496,5.3451,5.3381,5.4477,5.4093,5.3501,5.3501,5.3501,5.3501,5.3501,5.3501,5.3501,5.3501,5.3501,5.3501,5.3501,5.3501,5.3501,5.3501,5.2164,5.1185,5.1185,4.9881,4.9001,4.9001,4.9001,4.9001,4.9001,4.9001,4.9001,4.9001,4.9001,4.9001,4.9001,4.8934,4.8189,4.6786,4.6633,4.5872,4.4615,4.4615,4.4615,2.5965,2.5693,2.5703,2.5791,2.5937,0.0,2.6428,2.7407,2.8556,2.9766,3.0925,3.2208,3.3461,3.5108,3.661,3.7818,3.9967,4.2787,4.6413,4.7025,4.7115,4.7115,4.7234,4.7309,4.7309,4.7309,4.7309,4.7309,4.7309,4.7309,4.7309,4.7309,4.7309,4.7309,4.7309,4.7309,4.7309,4.7309,4.7309,4.7309,4.7309,4.7309,4.7309,4.7309,4.7309,4.7309,4.7309,4.7309,4.7309,4.7309,4.7309,4.7309,4.7309,4.7309,4.7309,4.7309,4.7638,4.8117,4.8237,4.897,4.9852,5.0106,5.0554,5.1191,5.2076,5.2359,5.2582,5.3494,5.392,5.4339,5.5382,5.4766,5.4088,5.5217,5.4482,5.3501,5.3501,5.3501,5.3501,5.3501,5.3501,5.3501,5.3501,5.3501,5.3501,5.3501,5.3501,5.3501,5.3501,5.2164,5.1185,5.1185,4.9881,4.9001,4.9001,4.9001,4.9001,4.9001,4.9001,4.9001,4.9001,4.9001,4.9001,4.9001,4.8426,4.7682,4.6786,4.5602,4.4886,4.4615,4.4615,4.4615,2.6982,2.6668,2.6476,2.5878,2.5693,0.0,0.0,2.6525,2.7234,2.7933,2.8605,2.9377,3.0623,3.1778,3.3169,3.5097,3.7027,3.9507,4.3045,4.5166,4.6594,4.7207,4.7309,4.7309,4.7309,4.7309,4.7309,4.7309,4.7309,4.7309,4.7309,4.7309,4.7309,4.7309,4.7309,4.7309,4.7309,4.7309,4.7309,4.7309,4.7309,4.7309,4.7309,4.7309,4.7309,4.7309,4.7309,4.7309,4.7309,4.7309,4.7309,4.7309,4.7309,4.7309,4.7309,4.7309,4.7713,4.8341,4.8656,4.9419,5.024,5.0569,5.1332,5.2139,5.2738,5.3281,5.3871,5.4421,5.4986,5.5514,5.607,5.5509,5.501,5.5559,5.4583,5.3501,5.3501,5.3501,5.3501,5.3501,5.3501,5.3501,5.3501,5.3501,5.3501,5.3501,5.3501,5.3501,5.3501,5.2164,5.1185,5.1185,4.9881,4.9001,4.9001,4.9001,4.9001,4.9001,4.9001,4.9001,4.9001,4.9001,4.9001,4.9001,4.7919,4.7175,4.6786,4.5326,4.4615,4.4615,4.4615,4.4615,2.8272,2.7955,2.7673,2.6658,2.6245,2.6161,0.0,0.0,0.0,0.0,0.0,0.0,0.0,0.0,0.0,3.2692,0.0,0.0,0.0,4.1385,0.0,4.6182,4.6711,4.6931,4.6931,4.7045,4.7174,4.7294,4.7189,4.7174,4.7294,4.7309,4.7309,4.7309,4.7309,4.7309,4.7309,4.7309,4.7309,4.7309,4.7309,4.7309,4.7309,4.7309,4.7309,4.7309,4.7309,4.7309,4.7309,4.7309,4.7309,4.7309,4.7309,4.7309,4.7309,4.7309,4.7803,4.8536,4.8985,4.9673,5.045,5.0853,5.2002,5.3237,5.3237,5.4168,5.5247,5.5247,5.585,5.6531,5.6531,5.6114,5.5681,5.5681,5.4583,5.3501,5.3501,5.3501,5.3501,5.3501,5.3501,5.3501,5.3501,5.3501,5.3501,5.3501,5.3501,5.3501,5.3501,5.2164,5.1185,5.1185,4.9881,4.9001,4.9001,4.9001,4.9001,4.9001,4.9001,4.9001,4.9001,4.9001,4.9001,4.9001,4.7682,4.7005,4.7005,4.5652,4.4886,4.4615,4.4615,4.4615,0.0,0.0,0.0,0.0,2.8179,2.7421,0.0,0.0,2.5771,2.582,0.0,0.0,0.0,0.0,0.0,0.0,0.0,0.0,3.3958,3.55,3.8066,4.2676,4.4636,4.5629,4.5629,4.6121,4.6681,4.7264,4.677,4.6696,4.7279,4.7309,4.7309,4.7309,4.7309,4.7309,4.7309,4.7309,4.7309,4.7309,4.7309,4.7309,4.7309,4.7309,4.7309,4.7309,4.7309,4.7309,4.7309,4.7309,4.7309,4.7309,4.7309,4.7309,4.7309,4.7309,4.8087,4.912,4.8566,4.9583,5.102,5.0465,5.2156,5.4421,5.4421,5.5866,5.7517,5.7517,5.7591,5.7718,5.7718,5.6727,5.5681,5.5681,5.4583,5.3501,5.3501,5.3501,5.3501,5.3501,5.3501,5.3501,5.3501,5.3501,5.3501,5.3501,5.3501,5.3501,5.3501,5.2164,5.1185,5.1185,4.9881,4.9001,4.9001,4.9001,4.9001,4.9001,4.9001,4.9001,4.9001,4.9001,4.9001,4.9001,4.8206,4.78,4.7753,4.6955,4.5872,4.4615,4.4615,4.4615,0.0,0.0,0.0,0.0,0.0,0.0,2.7589,0.0,2.5693,0.0,0.0,0.0,0.0,0.0,0.0,0.0,2.7642,0.0,0.0,0.0,3.4577,0.0,0.0,0.0,4.3726,4.4058,4.4771,4.6107,4.5654,4.5901,4.7221,4.7309,4.7309,4.7309,4.7309,4.7309,4.7309,4.7309,4.7309,4.7309,4.7309,4.7309,4.7309,4.7309,4.7309,4.7309,4.7309,4.7309,4.7309,4.7309,4.7309,4.7309,4.7309,4.7309,4.7309,4.7309,4.8132,4.9269,4.9,4.9898,5.1388,5.2399,5.3591,5.4838,5.6119,5.7185,5.7881,5.7881,5.7881,5.7881,5.7881,5.712,5.6241,5.5783,5.4905,5.4008,5.3602,5.3501,5.3501,5.3501,5.3501,5.3501,5.3501,5.3501,5.3501,5.3501,5.3501,5.3501,5.3501,5.2536,5.1674,5.1268,5.027,4.9458,4.9035,4.9001,4.9001,4.9001,4.9001,4.9001,4.9001,4.9001,4.9001,4.9001,4.8291,4.7889,4.7889,4.7158,4.6464,4.5855,4.5432,4.4993,3.1965,0.0,0.0,0.0,0.0,0.0,0.0,0.0,0.0,0.0,0.0,0.0,0.0,0.0,0.0,0.0,0.0,2.7042,0.0,2.8909,0.0,0.0,0.0,0.0,0.0,4.2643,4.3092,4.4769,4.4236,4.4687,4.6682,4.6785,4.6931,4.7309,4.7309,4.7309,4.7309,4.7309,4.7309,4.7309,4.7309,4.7309,4.7309,4.7309,4.7309,4.7309,4.7309,4.7309,4.7309,4.7309,4.7309,4.7309,4.7309,4.7309,4.7309,4.7309,4.8132,4.9314,4.9314,5.0122,5.1511,5.3483,5.4337,5.4945,5.6849,5.7628,5.7881,5.7881,5.7881,5.7881,5.7881,5.734,5.6681,5.6139,5.5277,5.4448,5.3923,5.3653,5.3501,5.3501,5.3501,5.3501,5.3501,5.3501,5.3501,5.3501,5.3501,5.3501,5.3501,5.2807,5.2029,5.1302,5.0541,4.9796,4.9069,4.9001,4.9001,4.9001,4.9001,4.9001,4.9001,4.9001,4.9001,4.9001,4.8477,4.8206,4.8206,4.7665,4.7293,4.7073,4.6346,4.5602,0.0,0.0,0.0,3.2982,0.0,0.0,0.0,0.0,2.7173,0.0,0.0,0.0,0.0,0.0,0.0,0.0,0.0,0.0,0.0,0.0,0.0,0.0,0.0,0.0,0.0,4.2412,4.2219,0.0,4.2445,4.2856,4.5331,4.5448,4.6018,4.7251,4.7309,4.7309,4.7309,4.7309,4.7309,4.7309,4.7309,4.7309,4.7309,4.7309,4.7309,4.7309,4.7309,4.7309,4.7309,4.7309,4.7309,4.7309,4.7309,4.7309,4.7309,4.7309,4.8132,4.9314,4.9314,5.0122,5.1386,5.256,5.3699,5.4838,5.5913,5.7039,5.7881,5.7881,5.7881,5.7881,5.7881,5.734,5.6799,5.6765,5.5649,5.4583,5.4566,5.3991,5.3501,5.3501,5.3501,5.3501,5.3501,5.3501,5.3501,5.3501,5.3501,5.3501,5.3501,5.2807,5.2029,5.1302,5.0541,4.9796,4.9069,4.9001,4.9001,4.9001,4.9001,4.9001,4.9001,4.9001,4.9001,4.9001,4.8984,4.8968,4.8968,4.8951,4.8578,4.7838,4.7107,4.6363,0.0,0.0,3.3124,3.3124,0.0,0.0,0.0,0.0,0.0,0.0,0.0,0.0,0.0,0.0,0.0,0.0,0.0,0.0,0.0,0.0,0.0,0.0,0.0,0.0,0.0,0.0,0.0,4.1553,4.1327,0.0,4.4027,4.4918,4.5584,4.6018,4.6873,4.7309,4.7309,4.7309,4.7309,4.7309,4.7309,4.7309,4.7309,4.7309,4.7309,4.7309,4.7309,4.7309,4.7309,4.7309,4.7309,4.7309,4.7309,4.7309,4.7354,4.7803,4.8506,4.9434,5.0257,5.0855,5.1511,5.3412,5.4295,5.4961,5.6756,5.7591,5.7881,5.7881,5.7881,5.7881,5.7881,5.7695,5.7391,5.6917,5.641,5.5784,5.4803,5.4397,5.4076,5.3602,5.3501,5.3501,5.3501,5.3501,5.3501,5.3501,5.3501,5.3501,5.3501,5.3264,5.279,5.2012,5.1285,5.0541,4.9779,4.9272,4.9001,4.9001,4.9001,4.9001,4.9001,4.9001,4.9001,4.9001,4.9001,4.9001,4.9001,4.9001,4.8883,4.8629,4.8376,4.7344,3.3124,3.3124,0.0,3.3124,3.2469,0.0,3.1311,0.0,2.9772,0.0,0.0,0.0,0.0,0.0,0.0,0.0,0.0,0.0,0.0,2.6113,0.0,0.0,0.0,0.0,0.0,0.0,3.7138,4.0173,3.9865,4.05,0.0,4.4022,4.4918,4.5403,4.6638,4.7309,4.7309,4.7309,4.7309,4.7309,4.7309,4.7309,4.7309,4.7309,4.7309,4.7309,4.7309,4.7309,4.7309,4.7309,4.7309,4.7309,4.7309,4.7309,4.7384,4.8042,4.885,4.9763,5.084,5.1214,5.1603,5.3871,5.4589,5.5002,5.7222,5.7881,5.7881,5.7881,5.7881,5.7881,5.7881,5.7881,5.7763,5.7306,5.6985,5.6478,5.5243,5.4786,5.438,5.3653,5.3501,5.3501,5.3501,5.3501,5.3501,5.3501,5.3501,5.3501,5.3501,5.3501,5.3196,5.2384,5.1657,5.0811,4.9779,4.9272,4.9001,4.9001,4.9001,4.9001,4.9001,4.9001,4.9001,4.9001,4.9001,4.9001,4.9001,4.9001,4.9001,4.9001,4.9001,4.8105]}]]